[[{"header":{"parameterUnit":"m.s-1","parameterCategory":1,"la1":30.6,"la2":29.2853,"lo1":-89.7004,"lo2":-87.6739,"dy":0.0162,"dx":0.0183,"nx":112,"ny":82,"refTime":"2026-04-17T00:00:00:Z","depth":0,"parameterNumber":2,"parameterNumberName":"U-component_of_WINDS"},"data":[0.0,0.0,0.0,0.0,0.0,0.0,0.0,0.0,0.0,0.0,0.0,0.0,0.0,0.0,0.0,0.0,0.0,0.0,0.0,0.0,0.0,0.0,0.0,0.0,0.0,0.0,0.0,0.0,0.0,0.0,0.0,0.0,0.0,0.0,0.0,0.0,0.0,0.0,0.0,0.0,0.0,0.0,0.0,0.0,0.0,0.0,0.0,0.0,0.0,0.0,0.0,0.0,0.0,0.0,0.0,0.0,0.0,0.0,0.0,0.0,0.0,0.0,0.0,0.0,0.0,0.0,0.0,0.0,0.0,0.0,0.0,0.0,0.0,0.0,0.0,0.0,0.0,0.0,0.0,0.0,0.0,0.0,0.0,0.0,0.0,0.0,0.0,0.0,0.0,0.0,0.0,6.0948,6.8191,7.2464,7.1921,7.1197,6.7003,5.813,0.0,0.0,0.0,0.0,0.0,0.0,0.0,0.0,0.0,0.0,0.0,0.0,0.0,0.0,0.0,0.0,0.0,0.0,0.0,0.0,0.0,0.0,0.0,0.0,0.0,0.0,0.0,0.0,0.0,0.0,0.0,0.0,0.0,0.0,0.0,0.0,0.0,0.0,0.0,0.0,0.0,0.0,0.0,0.0,0.0,0.0,0.0,0.0,0.0,0.0,0.0,0.0,0.0,0.0,0.0,0.0,0.0,0.0,0.0,0.0,0.0,0.0,0.0,0.0,0.0,0.0,0.0,0.0,0.0,0.0,0.0,0.0,0.0,0.0,0.0,0.0,0.0,0.0,0.0,0.0,0.0,0.0,0.0,0.0,0.0,0.0,0.0,0.0,0.0,0.0,0.0,0.0,0.0,0.0,0.0,0.0,0.0,0.0,0.0,0.0,0.0,0.0,0.0,0.0,5.7942,6.8561,7.1487,7.2935,7.347,6.9821,6.5156,5.9572,0.0,0.0,0.0,0.0,0.0,0.0,0.0,0.0,0.0,0.0,0.0,0.0,0.0,0.0,0.0,0.0,0.0,0.0,0.0,0.0,0.0,0.0,0.0,0.0,0.0,0.0,0.0,0.0,0.0,0.0,0.0,0.0,0.0,0.0,0.0,0.0,0.0,0.0,0.0,0.0,0.0,0.0,0.0,0.0,0.0,0.0,0.0,0.0,0.0,0.0,0.0,0.0,0.0,0.0,0.0,0.0,0.0,0.0,0.0,0.0,0.0,0.0,0.0,0.0,0.0,0.0,0.0,0.0,0.0,0.0,0.0,0.0,0.0,0.0,0.0,0.0,0.0,0.0,0.0,0.0,0.0,0.0,0.0,0.0,0.0,0.0,0.0,0.0,0.0,0.0,0.0,0.0,0.0,0.0,0.0,0.0,0.0,0.0,0.0,0.0,0.0,0.0,0.0,5.5733,6.131,7.1088,7.2863,7.3323,7.3317,7.0521,6.5944,5.9362,5.6732,0.0,0.0,0.0,0.0,0.0,0.0,0.0,0.0,0.0,0.0,0.0,0.0,0.0,0.0,0.0,0.0,0.0,0.0,0.0,0.0,0.0,0.0,0.0,0.0,0.0,0.0,0.0,0.0,0.0,0.0,0.0,0.0,0.0,0.0,0.0,0.0,0.0,0.0,0.0,0.0,0.0,0.0,0.0,0.0,0.0,0.0,0.0,0.0,0.0,0.0,0.0,0.0,0.0,0.0,0.0,0.0,0.0,0.0,0.0,0.0,0.0,0.0,0.0,0.0,0.0,0.0,0.0,0.0,0.0,0.0,0.0,0.0,0.0,0.0,0.0,0.0,0.0,0.0,0.0,0.0,0.0,0.0,0.0,0.0,0.0,0.0,0.0,0.0,0.0,0.0,0.0,0.0,0.0,0.0,0.0,0.0,0.0,0.0,0.0,0.0,0.0,0.0,6.1781,6.5555,7.2006,7.3409,7.353,7.2567,7.0027,6.561,5.8844,5.5163,0.0,0.0,0.0,0.0,0.0,0.0,0.0,0.0,0.0,0.0,0.0,0.0,0.0,0.0,0.0,0.0,0.0,0.0,0.0,0.0,0.0,0.0,0.0,0.0,0.0,0.0,0.0,0.0,0.0,0.0,0.0,0.0,0.0,0.0,0.0,0.0,0.0,0.0,0.0,0.0,0.0,0.0,0.0,0.0,0.0,0.0,0.0,0.0,0.0,0.0,0.0,0.0,0.0,0.0,0.0,0.0,0.0,0.0,0.0,0.0,0.0,0.0,0.0,0.0,0.0,0.0,0.0,0.0,0.0,0.0,0.0,0.0,0.0,0.0,0.0,0.0,0.0,0.0,0.0,0.0,0.0,0.0,0.0,0.0,0.0,0.0,0.0,0.0,0.0,0.0,0.0,0.0,0.0,0.0,0.0,0.0,0.0,0.0,0.0,0.0,0.0,0.0,6.462,7.0482,7.2475,7.3426,7.3274,7.1725,6.6248,6.1597,5.8601,5.216,0.0,0.0,0.0,0.0,0.0,0.0,0.0,0.0,0.0,0.0,0.0,0.0,0.0,0.0,0.0,0.0,0.0,0.0,0.0,0.0,0.0,0.0,0.0,0.0,0.0,0.0,0.0,0.0,0.0,0.0,0.0,0.0,0.0,0.0,0.0,0.0,0.0,0.0,0.0,0.0,0.0,0.0,0.0,0.0,0.0,0.0,0.0,0.0,0.0,0.0,0.0,0.0,0.0,0.0,0.0,0.0,0.0,0.0,0.0,0.0,0.0,0.0,0.0,0.0,0.0,0.0,0.0,0.0,0.0,0.0,0.0,0.0,0.0,0.0,0.0,0.0,0.0,0.0,0.0,0.0,0.0,0.0,0.0,0.0,0.0,0.0,0.0,0.0,0.0,0.0,0.0,0.0,0.0,0.0,0.0,0.0,0.0,0.0,0.0,0.0,0.0,0.0,6.3029,6.8372,0.0,7.3243,7.2397,7.0704,6.757,6.3092,5.709,0.0,0.0,0.0,0.0,0.0,0.0,0.0,0.0,0.0,0.0,0.0,0.0,0.0,0.0,0.0,0.0,0.0,0.0,0.0,0.0,0.0,0.0,0.0,0.0,0.0,0.0,0.0,0.0,0.0,0.0,0.0,0.0,0.0,0.0,0.0,0.0,0.0,0.0,0.0,0.0,0.0,0.0,0.0,0.0,0.0,0.0,0.0,0.0,0.0,0.0,0.0,0.0,0.0,0.0,0.0,0.0,0.0,0.0,0.0,0.0,0.0,0.0,0.0,0.0,0.0,0.0,0.0,0.0,0.0,0.0,0.0,0.0,0.0,0.0,0.0,0.0,0.0,0.0,0.0,0.0,0.0,0.0,0.0,0.0,0.0,0.0,0.0,0.0,0.0,0.0,0.0,0.0,0.0,0.0,0.0,0.0,0.0,0.0,0.0,0.0,0.0,0.0,5.702,6.2412,6.7683,0.0,7.3255,7.2461,7.1,6.8137,6.3573,5.6826,0.0,0.0,0.0,0.0,0.0,0.0,0.0,0.0,0.0,0.0,0.0,0.0,0.0,0.0,0.0,0.0,0.0,0.0,0.0,0.0,0.0,0.0,0.0,0.0,0.0,0.0,0.0,0.0,0.0,0.0,0.0,0.0,0.0,0.0,0.0,0.0,0.0,0.0,0.0,0.0,0.0,0.0,0.0,0.0,0.0,0.0,0.0,0.0,0.0,0.0,0.0,0.0,0.0,0.0,0.0,0.0,0.0,0.0,0.0,0.0,0.0,0.0,0.0,0.0,0.0,0.0,0.0,0.0,0.0,0.0,0.0,0.0,0.0,0.0,0.0,0.0,0.0,0.0,0.0,0.0,0.0,0.0,0.0,0.0,0.0,0.0,0.0,0.0,0.0,0.0,0.0,0.0,0.0,0.0,0.0,0.0,0.0,0.0,0.0,0.0,0.0,0.0,5.6344,6.3685,6.9659,7.2522,7.3559,7.3652,7.2765,6.7201,6.2087,0.0,0.0,0.0,0.0,0.0,0.0,0.0,0.0,0.0,0.0,0.0,0.0,0.0,0.0,0.0,0.0,0.0,0.0,0.0,0.0,0.0,0.0,0.0,0.0,0.0,0.0,0.0,0.0,0.0,0.0,0.0,0.0,0.0,0.0,0.0,0.0,0.0,0.0,0.0,0.0,0.0,0.0,0.0,0.0,0.0,0.0,0.0,0.0,0.0,0.0,0.0,0.0,0.0,0.0,0.0,0.0,0.0,0.0,0.0,0.0,0.0,0.0,0.0,0.0,0.0,0.0,0.0,0.0,0.0,0.0,0.0,0.0,0.0,0.0,0.0,0.0,0.0,0.0,0.0,0.0,0.0,0.0,0.0,0.0,0.0,0.0,0.0,0.0,0.0,0.0,0.0,0.0,0.0,0.0,0.0,0.0,0.0,0.0,0.0,0.0,0.0,0.0,0.0,0.0,6.6745,7.2406,7.4935,7.5314,7.4625,7.2665,6.9442,6.434,5.6806,0.0,0.0,0.0,0.0,0.0,0.0,0.0,0.0,0.0,0.0,0.0,0.0,0.0,0.0,0.0,0.0,0.0,0.0,0.0,0.0,0.0,0.0,0.0,0.0,0.0,0.0,0.0,0.0,0.0,0.0,0.0,0.0,0.0,0.0,0.0,0.0,0.0,0.0,0.0,0.0,0.0,0.0,0.0,0.0,0.0,0.0,0.0,0.0,0.0,0.0,0.0,0.0,0.0,0.0,0.0,0.0,0.0,0.0,0.0,0.0,0.0,0.0,0.0,0.0,0.0,0.0,0.0,0.0,0.0,0.0,0.0,0.0,0.0,0.0,0.0,0.0,0.0,0.0,0.0,0.0,0.0,0.0,0.0,0.0,0.0,0.0,0.0,0.0,0.0,0.0,0.0,0.0,0.0,0.0,0.0,0.0,0.0,0.0,0.0,0.0,0.0,0.0,6.0326,6.7694,7.3621,7.6779,7.7032,7.6412,7.4962,7.2549,6.7435,5.877,0.0,0.0,0.0,0.0,0.0,0.0,0.0,0.0,0.0,0.0,0.0,0.0,0.0,0.0,0.0,0.0,0.0,0.0,0.0,0.0,0.0,0.0,0.0,0.0,0.0,0.0,0.0,0.0,0.0,0.0,0.0,0.0,0.0,0.0,0.0,0.0,0.0,0.0,0.0,0.0,0.0,0.0,0.0,0.0,0.0,0.0,0.0,0.0,0.0,0.0,0.0,0.0,0.0,0.0,0.0,0.0,0.0,0.0,0.0,0.0,0.0,0.0,0.0,0.0,0.0,0.0,0.0,0.0,0.0,0.0,0.0,0.0,0.0,0.0,0.0,0.0,0.0,0.0,0.0,0.0,0.0,0.0,0.0,0.0,0.0,0.0,0.0,0.0,0.0,0.0,0.0,0.0,0.0,0.0,0.0,0.0,0.0,0.0,0.0,0.0,0.0,0.0,6.0133,6.7658,7.4092,7.8265,7.8762,7.8716,7.8517,7.594,7.0826,6.2667,0.0,0.0,0.0,0.0,0.0,0.0,0.0,0.0,0.0,0.0,0.0,0.0,0.0,0.0,0.0,0.0,0.0,0.0,0.0,0.0,0.0,0.0,0.0,0.0,0.0,0.0,0.0,0.0,0.0,0.0,0.0,0.0,0.0,0.0,0.0,0.0,0.0,0.0,0.0,0.0,0.0,0.0,0.0,0.0,0.0,0.0,0.0,0.0,0.0,0.0,0.0,0.0,0.0,0.0,0.0,0.0,0.0,0.0,0.0,0.0,5.0836,0.0,0.0,0.0,0.0,0.0,0.0,0.0,0.0,0.0,0.0,0.0,0.0,0.0,0.0,0.0,0.0,0.0,0.0,0.0,0.0,0.0,0.0,0.0,0.0,0.0,0.0,0.0,0.0,0.0,0.0,0.0,0.0,0.0,0.0,0.0,0.0,0.0,0.0,0.0,0.0,0.0,6.2713,7.0962,7.7272,7.9935,8.073,8.0385,7.8663,7.639,7.1688,6.368,0.0,0.0,0.0,0.0,0.0,0.0,0.0,0.0,0.0,0.0,0.0,0.0,0.0,0.0,0.0,0.0,0.0,0.0,0.0,0.0,0.0,0.0,0.0,0.0,0.0,0.0,0.0,0.0,0.0,0.0,0.0,0.0,0.0,0.0,0.0,0.0,0.0,0.0,0.0,0.0,0.0,0.0,0.0,0.0,0.0,0.0,0.0,0.0,0.0,0.0,0.0,0.0,0.0,0.0,0.0,0.0,0.0,0.0,0.0,0.0,0.0,5.3416,0.0,0.0,0.0,0.0,0.0,0.0,0.0,0.0,0.0,0.0,0.0,0.0,0.0,0.0,0.0,0.0,0.0,0.0,0.0,0.0,0.0,0.0,0.0,0.0,0.0,0.0,0.0,0.0,0.0,0.0,0.0,0.0,0.0,0.0,0.0,0.0,0.0,0.0,0.0,0.0,6.4293,7.2641,7.8895,8.1492,8.2088,8.1591,7.9736,7.7881,7.3877,6.6964,6.176,0.0,0.0,0.0,0.0,0.0,0.0,0.0,0.0,0.0,0.0,0.0,0.0,0.0,0.0,0.0,0.0,0.0,0.0,0.0,0.0,0.0,0.0,0.0,0.0,0.0,0.0,0.0,0.0,0.0,0.0,0.0,0.0,0.0,0.0,0.0,0.0,0.0,0.0,0.0,0.0,0.0,0.0,0.0,0.0,0.0,0.0,0.0,0.0,0.0,0.0,0.0,0.0,0.0,0.0,6.6256,6.7931,6.9322,6.9509,6.8528,6.3995,6.1084,5.9359,0.0,0.0,0.0,0.0,0.0,0.0,0.0,0.0,0.0,0.0,0.0,0.0,0.0,0.0,0.0,0.0,0.0,0.0,0.0,0.0,0.0,0.0,0.0,0.0,0.0,6.3215,6.2818,0.0,0.0,0.0,0.0,0.0,0.0,0.0,0.0,0.0,0.0,0.0,0.0,6.5576,7.3646,7.9756,8.2618,8.2883,8.2287,8.0843,7.9458,7.6311,7.0726,6.5935,6.0797,0.0,0.0,0.0,0.0,0.0,0.0,0.0,0.0,0.0,0.0,0.0,0.0,0.0,0.0,0.0,0.0,0.0,0.0,0.0,0.0,0.0,0.0,0.0,0.0,0.0,0.0,0.0,0.0,0.0,0.0,0.0,0.0,4.6245,4.7173,0.0,0.0,0.0,0.0,0.0,0.0,0.0,0.0,0.0,0.0,0.0,0.0,0.0,0.0,6.5182,6.9247,7.1711,7.2672,7.5807,7.7484,7.7722,7.7947,7.798,7.7821,7.7099,0.0,6.5559,6.4375,0.0,0.0,0.0,0.0,0.0,0.0,0.0,0.0,0.0,0.0,0.0,0.0,0.0,0.0,0.0,0.0,0.0,0.0,0.0,0.0,0.0,0.0,6.9069,6.8597,6.9212,6.9438,0.0,6.1004,5.4313,5.0877,0.0,0.0,0.0,0.0,0.0,0.0,0.0,0.0,6.7483,7.4859,8.0338,8.2651,8.2883,8.2287,8.0843,7.9921,7.749,7.2933,6.9036,6.4929,6.0472,5.4821,0.0,0.0,0.0,0.0,0.0,0.0,0.0,0.0,0.0,0.0,0.0,0.0,0.0,0.0,0.0,0.0,0.0,0.0,0.0,0.0,0.0,0.0,0.0,0.0,0.0,0.0,0.0,0.0,0.0,4.6551,4.979,4.9284,5.0377,4.9947,0.0,0.0,0.0,0.0,0.0,0.0,0.0,0.0,0.0,6.77,6.9181,7.1168,7.3848,7.6179,7.8146,7.975,8.1312,8.2704,8.3943,8.3943,8.3943,8.3943,8.3943,8.1302,7.6706,7.1777,6.7725,6.4285,0.0,0.0,0.0,0.0,0.0,6.0695,6.4008,0.0,0.0,0.0,0.0,0.0,0.0,0.0,0.0,0.0,0.0,0.0,0.0,0.0,0.0,7.3069,7.4038,7.4357,7.3608,6.9573,6.4249,0.0,5.602,5.3331,4.6864,0.0,0.0,0.0,0.0,0.0,6.9699,7.5847,8.0451,8.2651,8.2519,8.187,8.0777,8.0021,7.81,7.4548,7.2039,6.8915,6.5006,6.0008,5.5671,0.0,0.0,0.0,0.0,0.0,0.0,0.0,0.0,0.0,0.0,0.0,0.0,0.0,0.0,0.0,0.0,0.0,0.0,0.0,0.0,0.0,0.0,0.0,0.0,0.0,0.0,0.0,0.0,5.0469,5.3575,5.2307,5.4882,5.5114,0.0,0.0,0.0,0.0,0.0,0.0,6.5094,6.684,7.0241,7.5715,7.6801,7.8656,8.1544,8.2121,8.3281,8.5103,8.5103,8.6063,8.7834,8.7834,8.7735,8.7569,8.7768,8.709,8.5386,7.8477,7.3972,7.1156,6.7888,6.6177,6.5647,6.6574,6.7093,6.8031,7.2602,7.3376,7.2162,7.1344,0.0,6.5603,6.0723,0.0,0.0,0.0,0.0,6.3986,6.821,0.0,7.3762,7.6483,7.7702,7.81,7.7537,7.6171,7.2693,0.0,6.2566,5.9684,5.2572,0.0,0.0,0.0,0.0,6.6044,7.2063,7.694,8.065,8.2684,8.2221,8.1506,8.0777,8.0021,7.853,7.6006,7.4469,7.227,6.9145,6.4973,6.1094,0.0,0.0,0.0,0.0,0.0,0.0,0.0,0.0,0.0,0.0,0.0,0.0,0.0,0.0,0.0,0.0,0.0,0.0,0.0,0.0,0.0,0.0,0.0,0.0,0.0,0.0,0.0,0.0,0.0,0.0,5.7518,6.0632,0.0,0.0,0.0,0.0,6.1482,6.6298,7.044,7.3446,7.7576,8.0943,8.338,8.4852,8.6026,8.6906,8.6954,8.7337,8.8069,8.8069,8.85,8.9295,8.9295,8.8897,8.8268,8.8997,8.8864,8.7837,8.401,8.1081,7.8815,7.6543,7.5231,7.4561,7.3931,7.4548,7.5847,7.6841,7.6675,7.6477,7.9153,7.6238,7.1168,6.8795,6.6122,0.0,0.0,6.8076,7.0903,7.3268,7.6006,7.8332,7.9212,8.0001,8.0512,8.0479,7.8776,7.5682,0.0,6.8196,6.5767,6.1208,0.0,0.0,6.1647,6.5481,7.0009,7.4561,7.8358,8.1227,8.2751,8.2221,8.1506,8.0777,8.0021,7.8947,7.7404,7.5973,7.4482,7.29,6.9245,6.558,6.1956,5.6236,0.0,0.0,0.0,0.0,0.0,0.0,0.0,0.0,0.0,0.0,0.0,0.0,0.0,0.0,0.0,0.0,0.0,0.0,0.0,0.0,0.0,0.0,0.0,0.0,0.0,0.0,0.0,0.0,6.2731,6.7193,0.0,0.0,6.6353,6.7844,6.9103,7.3508,7.7172,7.9684,8.2154,8.454,8.6693,8.7289,8.7919,8.8647,8.8647,8.9244,9.0403,9.0403,9.1066,9.2225,9.1728,9.1132,9.0403,9.0189,8.9427,8.8235,8.7407,8.5798,8.3593,8.0896,7.9703,7.9452,7.9187,7.9717,8.0664,8.1379,8.1478,8.1128,8.0253,7.8265,7.5682,7.3024,7.1843,7.15,7.203,7.3575,7.5483,7.7205,7.8809,8.0101,8.0849,8.1227,8.1406,8.1406,8.0796,7.9272,7.6013,7.3098,6.9886,6.5966,6.6684,6.7325,6.5889,6.9412,7.3289,7.6258,7.8597,8.0399,8.1359,8.0816,8.0286,8.0021,7.8895,7.7768,7.6742,7.5376,7.3918,7.2436,7.0229,6.7512,6.4332,6.0431,5.5127,0.0,0.0,0.0,0.0,0.0,0.0,0.0,0.0,0.0,0.0,0.0,0.0,0.0,0.0,0.0,0.0,0.0,0.0,0.0,0.0,0.0,0.0,0.0,0.0,0.0,0.0,6.7269,6.7269,7.2448,7.478,7.1554,7.3475,7.533,7.6324,7.9988,8.3049,8.5003,8.6494,8.8051,8.9741,9.0039,9.0388,9.0884,9.0884,9.1364,9.234,9.234,9.2738,9.3434,9.2937,9.2174,9.1231,9.0999,9.0189,8.9063,8.9295,8.8714,8.7403,8.4937,8.3976,8.3976,8.3759,8.3958,8.4421,8.4639,8.4918,8.4672,8.1975,8.0749,7.9921,7.7497,7.7099,7.7431,7.7199,7.798,7.9093,8.0087,8.0896,8.1572,8.2055,8.2154,8.2154,8.2154,8.197,8.1359,7.9888,7.7073,7.3926,7.0747,7.162,7.1985,6.9774,7.278,7.5695,7.6874,7.8517,7.9888,8.0611,8.0054,7.961,7.961,7.7802,7.6589,7.6311,7.4051,7.2394,7.1653,6.95,6.7281,6.5127,6.0976,5.6075,5.035,0.0,0.0,0.0,0.0,0.0,0.0,0.0,0.0,0.0,0.0,0.0,0.0,0.0,0.0,0.0,0.0,0.0,0.0,0.0,0.0,0.0,0.0,0.0,5.9164,6.6022,7.1123,7.1223,7.6311,7.898,7.6874,7.9272,8.1539,8.2983,8.578,8.8033,8.9427,9.0867,9.2009,9.2705,9.3434,9.3782,9.3782,9.3782,9.3782,9.3782,9.3782,9.3434,9.2738,9.2705,9.1894,9.0586,9.1264,9.1132,9.0421,8.9725,8.9858,9.0339,8.8864,8.8301,8.8268,8.7602,8.7352,8.7238,8.6524,8.6722,8.6973,8.4771,8.4076,8.3811,8.232,8.187,8.1691,8.0976,8.1274,8.1823,8.1823,8.2353,8.2883,8.2883,8.2883,8.2883,8.2883,8.232,8.179,8.179,8.0054,7.7901,7.582,7.6006,7.5715,7.3628,7.5682,0.0,7.6477,7.8252,7.9855,8.0578,7.9988,7.9543,7.9543,7.692,7.5542,7.6179,7.215,7.0108,7.0825,6.7402,6.5149,6.452,5.7995,5.3271,5.0507,0.0,0.0,0.0,0.0,0.0,0.0,0.0,0.0,0.0,0.0,0.0,0.0,0.0,0.0,0.0,0.0,0.0,0.0,0.0,0.0,0.0,0.0,6.4619,6.5138,7.0747,7.5827,7.8491,8.2102,8.454,8.4956,8.5718,8.6593,8.7539,8.9358,9.0816,9.1728,9.2689,9.3301,9.35,9.3683,9.3782,9.3782,9.3782,9.3782,9.3782,9.3782,9.3683,9.3484,9.2921,9.2208,9.128,9.0966,9.0388,8.9725,9.0056,9.0321,9.0339,8.8864,8.8632,8.9063,8.8912,8.8482,8.7985,8.7786,8.7852,8.7753,8.6111,8.5946,8.6012,8.401,8.3413,8.3248,8.2486,8.2453,8.2585,8.2585,8.2751,8.2883,8.2883,8.2883,8.2883,8.2883,8.232,8.179,8.179,8.0863,7.9902,7.9319,7.9385,7.9107,7.8,0.0,0.0,7.8716,7.9212,7.9477,7.9126,7.8914,7.8597,7.8067,7.584,7.4594,0.0,7.1135,6.9346,7.0075,6.8097,6.6893,6.6728,6.0777,5.6837,0.0,0.0,0.0,0.0,0.0,0.0,0.0,0.0,0.0,0.0,0.0,0.0,0.0,0.0,0.0,0.0,0.0,0.0,0.0,0.0,0.0,0.0,6.6805,7.1277,7.3264,7.6742,8.02,8.3295,8.5946,8.7985,8.9096,8.9509,8.9972,9.0734,9.1861,9.2837,9.3583,9.4014,9.4246,9.4246,9.4246,9.4411,9.471,9.4411,9.4577,9.5173,9.4544,9.408,9.3749,9.3036,9.2307,0.0,9.1132,9.0734,9.0337,9.0454,9.0686,0.0,0.0,0.0,0.0,0.0,8.9394,8.8732,8.84,8.8301,8.8117,8.7006,8.6954,8.694,8.5037,8.4473,8.4241,8.3181,8.2883,8.2883,8.2883,8.2883,8.2883,8.2883,8.2883,8.2883,8.2883,8.2552,8.2254,8.2254,0.0,0.0,8.1208,8.0909,8.0332,7.9279,7.9411,7.9378,0.0,7.9212,7.9444,7.9014,7.9226,7.9239,7.8809,7.6238,0.0,0.0,0.0,6.7877,6.7093,0.0,0.0,0.0,0.0,0.0,0.0,0.0,0.0,0.0,5.6108,5.6537,0.0,0.0,0.0,0.0,0.0,0.0,0.0,0.0,0.0,0.0,0.0,0.0,0.0,0.0,0.0,0.0,7.2795,7.7672,8.1486,8.2609,8.3877,8.6148,8.818,8.9755,9.067,9.1115,9.1761,9.2872,9.3373,9.4052,9.4958,0.0,0.0,0.0,0.0,9.5604,9.6233,9.5604,9.5836,9.6946,9.567,9.4577,9.3782,9.3135,9.2406,9.1711,9.1711,9.1677,9.1545,9.09,9.0999,9.1611,9.1611,9.1611,9.1512,9.0851,9.0156,0.0,0.0,0.0,0.0,8.7668,8.747,8.7238,8.5699,8.5221,8.4937,8.3546,8.3148,8.3148,8.3148,8.3082,8.3016,8.3016,8.3016,8.2983,8.2916,8.2883,8.2883,8.2883,8.2817,8.2585,8.2022,8.1307,8.0299,7.8861,7.9179,7.9113,7.7835,7.8861,7.9676,7.961,0.0,0.0,8.0578,7.7331,7.5323,7.5409,7.0891,6.7037,6.4387,6.4288,6.4023,6.3426,6.3824,6.4675,6.601,6.6673,6.739,6.7943,6.126,6.0594,0.0,0.0,0.0,0.0,0.0,0.0,0.0,0.0,0.0,0.0,0.0,0.0,0.0,0.0,0.0,7.1085,7.4553,7.8188,8.2848,8.3656,8.4811,8.7564,8.8732,9.0113,9.2082,9.0691,9.1015,9.425,9.3449,9.3692,9.5671,9.6366,0.0,9.6648,9.7244,9.7641,9.7774,9.7641,9.7111,9.62,0.0,0.0,9.3782,9.3649,9.3186,9.2506,9.2506,9.2141,9.1578,9.1446,9.1479,9.1611,9.1611,9.1611,9.1578,9.1446,9.0933,9.0288,9.0123,9.009,8.9858,8.8548,8.8515,8.8614,8.6608,8.5993,0.0,8.4937,8.4658,8.4658,8.4658,8.4227,8.3778,8.3778,8.3778,8.3612,8.3016,8.2883,8.2883,8.2883,8.2419,8.2154,8.2618,8.2088,8.1094,7.961,7.951,7.951,7.9212,7.9921,8.0266,7.9643,7.9709,7.9808,7.9808,7.7033,7.5542,7.6059,7.3562,7.1509,7.0361,7.0328,7.0527,7.0991,6.9379,6.8982,6.9831,6.9997,7.0428,7.109,6.7884,6.7232,0.0,0.0,0.0,0.0,0.0,0.0,0.0,0.0,0.0,0.0,0.0,5.9577,0.0,0.0,6.9788,7.4148,7.6741,7.9479,8.2892,8.4077,8.521,8.6985,8.8121,8.9335,9.0851,9.0228,9.0666,9.2935,9.2701,9.3281,9.5232,9.4943,9.4906,9.5382,9.5415,9.5547,9.594,9.6366,9.6532,9.6532,9.5803,9.5074,9.4345,9.3981,9.3599,9.3268,9.3268,9.3036,9.2671,9.2307,9.1943,9.1611,9.1611,9.1611,9.1611,9.1611,9.1132,9.052,9.052,9.0255,8.9825,8.9096,8.8864,8.8581,8.7171,8.649,8.606,8.5302,8.5088,8.5088,8.5088,8.4823,8.4558,8.4558,8.4558,8.4459,8.4076,8.401,8.391,8.3513,8.3148,8.2784,8.2419,8.2022,8.1691,8.1312,8.0948,8.0683,8.0683,8.1028,8.1094,8.0749,8.1014,8.1114,8.0716,7.8378,7.6887,7.6841,7.5483,7.4403,7.3687,7.3653,7.3819,7.4171,7.3442,7.3409,7.4158,7.4523,7.4887,7.5251,7.4489,7.3773,0.0,0.0,0.0,0.0,0.0,0.0,0.0,0.0,5.6938,5.9317,6.2574,6.5577,6.7437,7.0468,7.3618,7.6559,7.8501,8.0455,8.2613,8.3795,8.4723,8.539,8.6937,8.8337,8.9381,8.9379,8.993,9.1366,9.1476,9.2289,9.4116,9.3028,9.2665,9.3413,9.2997,9.3061,9.3659,9.4308,9.5325,9.6646,9.5458,9.4979,9.5074,9.4511,9.4146,9.4014,9.3848,9.3782,9.3749,9.3168,9.2572,9.2042,9.2042,9.2042,9.1976,9.1711,9.1231,9.0719,9.0719,9.0321,8.9791,8.9659,8.9195,8.8614,8.7934,8.7171,8.6476,8.5898,8.5633,8.5533,8.5533,8.5434,8.5302,8.5302,8.5302,8.5254,8.5121,8.5202,8.5103,8.4374,8.4194,8.3811,8.2453,8.2221,8.2287,8.2453,8.1956,8.1605,8.1605,8.1705,8.179,8.179,8.232,8.2453,8.187,8.0418,7.9193,7.8298,7.7702,7.6987,7.6171,7.6006,7.5973,7.6138,7.6523,7.7172,7.8033,7.863,7.8928,7.8928,7.9557,7.8795,4.669,4.6963,4.851,5.0571,5.1474,5.3788,0.0,0.0,6.3419,6.6337,6.9219,7.1282,7.1615,7.3144,7.5276,7.8093,7.8745,7.9845,8.2525,8.2498,8.2412,8.3074,8.5457,8.7836,8.9901,8.7748,8.7875,9.1877,8.9873,8.9686,9.2438,9.2451,9.2438,9.2525,9.3082,9.3449,9.3513,9.3614,9.4136,9.5069,9.4904,9.5197,9.5869,9.5803,9.5405,9.4743,9.408,9.3782,9.3782,9.3716,9.3616,9.355,9.355,9.355,9.34,9.2075,9.1545,9.1479,9.1479,9.1412,9.1247,9.0586,9.0306,9.0123,8.9394,8.8632,8.8051,8.797,8.7521,8.7039,8.7039,8.6575,8.6093,8.6093,8.6093,8.5912,8.5235,8.56,8.5846,8.5136,8.4989,8.4724,8.391,8.3745,8.3115,8.1241,8.0876,8.081,8.081,8.1406,8.179,8.179,8.1856,8.1889,8.1804,8.2784,8.2784,8.1393,8.1227,8.0564,7.9193,7.8497,7.8464,7.9113,7.855,7.8928,8.0346,8.0412,8.0446,8.0479,8.0545,8.0101,5.0402,5.133,0.0,0.0,5.6993,6.0158,6.5292,6.6986,6.8186,7.0676,7.2797,7.4205,7.4282,7.5174,7.6523,0.0,7.8597,7.9351,8.191,8.1261,8.0852,8.1771,8.3024,8.4657,8.6804,8.6005,8.6544,8.9416,8.8515,8.8925,9.1478,9.0386,9.0082,9.1038,9.0944,9.0882,9.0882,9.1762,9.2402,9.2762,9.3709,9.4339,9.469,9.559,9.5836,9.5538,9.5206,9.4842,9.4445,9.4445,9.4179,9.3782,9.3782,9.3782,9.3732,9.3102,9.2605,9.2241,9.2241,9.1976,9.1545,9.1231,9.0851,9.0454,9.0123,8.9526,8.893,8.893,8.8732,8.8515,8.8515,8.8283,8.8051,8.8051,8.772,8.7322,8.7009,8.6906,8.6608,8.5879,8.5747,8.5515,8.4771,8.4625,8.4341,8.3413,8.2519,8.197,8.197,8.2254,8.2453,8.2453,8.2069,8.2154,8.3016,8.3248,8.348,8.3711,8.3711,8.3432,8.2836,8.2505,8.2505,8.2803,8.2074,8.2008,8.2618,8.2188,8.197,8.1989,8.2419,8.2453,5.2329,0.0,0.0,5.8815,6.1993,6.5555,6.8641,7.0327,7.1701,7.3226,7.4669,7.5621,7.5514,7.6199,0.0,7.8321,7.8642,7.9448,8.1355,8.0613,8.0114,8.0683,8.0675,8.1373,8.3401,8.4346,8.5526,8.7224,8.7136,8.7846,8.9848,8.8106,8.7706,8.9105,8.8531,8.8248,8.8364,8.9462,9.0232,9.0674,9.1848,9.2627,9.3083,9.4656,9.559,9.6001,9.6001,9.5703,9.5206,9.5206,9.4875,9.4411,9.4411,9.4411,9.4411,9.4411,9.3815,9.297,9.2771,9.234,9.1876,9.1677,9.1231,9.0785,9.0785,9.0288,8.9692,8.9692,8.956,8.9394,8.9394,8.9394,8.9394,8.9394,8.8997,8.8533,8.8334,8.7919,8.737,8.6656,8.649,8.6277,8.5533,8.5401,8.5335,8.5121,8.4208,8.3513,8.3513,8.3513,8.3446,8.3215,8.2916,8.3049,8.3943,8.3711,8.3877,8.4724,8.479,8.4691,8.4492,8.4506,8.4506,8.4506,8.4175,8.401,8.401,8.3678,8.3513,8.3513,8.4043,8.4308,0.0,0.0,6.0042,6.2904,6.5754,6.8675,7.175,7.309,7.3743,7.3864,7.4916,7.5622,7.503,7.5938,7.7028,7.7711,7.9149,8.0396,8.1128,8.0827,8.0344,7.9714,7.8748,7.8819,0.0,8.2797,8.4763,8.6342,8.5652,8.5764,8.7043,8.6064,8.587,8.6768,8.642,8.637,8.6758,8.6817,8.7612,8.9058,8.9115,8.9929,9.1421,9.303,9.4589,9.6001,9.6001,9.6001,9.5968,9.5968,9.5968,9.5935,9.5935,9.5935,9.5935,9.5935,9.5008,9.3649,9.297,9.2705,9.2539,9.1843,9.1578,9.1578,9.1578,9.1066,9.0487,9.0487,8.9957,8.9394,8.9394,8.9394,8.9394,8.9394,8.9394,8.9162,8.8433,8.8268,8.8084,8.7403,8.7286,8.7021,8.6292,8.6159,8.5912,8.5202,8.5055,8.5022,8.5022,8.5022,8.4757,8.4028,8.4606,8.4738,8.4076,8.4625,8.4757,8.4076,8.4043,8.3711,8.2983,8.2983,8.2983,8.2983,8.3645,8.401,8.401,8.4705,8.5022,8.5022,8.5055,8.5055,0.0,0.0,6.2963,6.6401,6.9273,7.1632,7.3123,7.401,7.4393,7.3983,7.3547,7.3156,7.2934,7.3409,7.4461,7.6438,7.8239,7.9867,8.1196,8.1156,8.0259,7.8193,7.8478,0.0,0.0,0.0,0.0,8.6143,8.5291,8.5522,8.7575,8.6523,8.6111,8.6659,8.6569,8.6569,8.6708,8.6708,8.6955,8.7495,8.8517,8.9799,9.1312,9.1852,9.2978,9.4455,9.4455,9.5059,9.6001,9.6001,9.6001,9.6001,9.6001,9.6001,9.6001,9.6001,9.5703,9.514,9.4411,9.3533,9.2671,9.2406,9.2009,9.1611,9.1611,9.1446,9.1231,9.1231,9.1032,9.0867,9.0867,9.0867,9.0867,9.0867,9.0502,9.0056,8.9825,8.9394,8.8963,8.8747,8.868,8.8614,8.8382,8.7919,8.7355,8.6674,8.5732,8.5088,8.5088,8.5088,8.4989,8.4757,8.4956,8.5202,8.5449,8.568,8.5912,8.6177,8.6177,8.6078,8.5846,8.5813,8.5813,8.5813,8.5581,8.5449,8.5449,8.5235,8.5088,8.5121,8.5614,8.6078,5.9692,6.2883,6.5919,6.9733,7.2218,7.3823,7.4133,7.4561,7.4612,7.3533,7.1824,7.0484,7.0387,6.9922,7.075,7.4441,7.6292,7.8296,8.1214,8.0989,7.9889,7.8091,7.8319,0.0,0.0,0.0,0.0,8.4968,8.4817,8.5225,8.6779,8.6154,8.6064,8.6778,8.6688,8.6748,8.7048,8.6828,8.6708,8.6728,8.7952,8.921,9.0504,9.0736,9.1872,9.3688,9.3688,9.4589,9.6001,9.6001,9.6001,9.6001,9.6001,9.6001,9.6001,9.6001,9.6001,9.5902,9.5173,9.4279,9.3434,9.3168,9.2771,9.234,9.2075,9.2174,9.234,9.2075,9.1976,9.1976,9.1976,9.181,9.1611,9.1611,9.1231,9.0818,9.0553,9.0123,8.9725,8.946,8.9394,8.9394,8.9394,8.8997,8.8533,8.8117,8.7024,8.6163,8.5931,8.5898,8.5798,8.55,8.55,8.5581,8.578,8.5813,8.6012,8.6476,8.6509,8.6641,8.6888,8.6921,8.6921,8.6921,8.6689,8.6457,8.6192,8.5979,8.5997,8.6247,8.6726,8.7337,6.3293,6.6102,6.9001,7.2819,7.4597,7.5264,7.4757,7.4746,7.4313,7.2421,6.9718,6.761,0.0,0.0,6.628,7.174,7.361,7.6124,8.1156,8.0541,7.9481,0.0,0.0,0.0,0.0,0.0,0.0,8.2907,0.0,8.4705,8.493,8.5035,8.5699,8.6949,8.6624,8.6778,8.7666,8.7018,8.6708,8.6708,8.7377,8.8131,8.8961,8.9637,9.1261,9.3542,9.3542,9.4449,9.5871,9.5953,9.5953,9.592,9.6035,9.6068,9.6068,9.6068,9.6101,9.6001,9.5273,9.4975,9.4776,9.408,9.3815,9.3649,9.297,9.3219,9.3649,9.297,9.2738,9.2705,9.2705,9.2174,9.1644,9.1644,9.1644,9.1479,9.0752,9.0586,9.0355,8.9659,8.9526,8.9493,8.946,8.946,8.9427,8.9394,8.8798,8.8117,8.7437,8.7319,8.7021,8.6325,8.6258,8.5979,8.5254,8.5221,8.5221,8.5254,8.5221,8.5567,8.6325,8.6325,8.6325,8.6358,8.7054,8.7054,8.6358,8.7087,8.7735,8.8367,8.8367,8.8765,6.7025,7.0015,7.236,7.4616,7.576,7.5932,7.4386,7.4054,7.2992,6.9151,6.6027,6.3282,6.1092,0.0,0.0,6.82,7.3179,0.0,8.0937,8.2233,0.0,0.0,0.0,7.9801,7.8727,7.9365,0.0,0.0,8.2244,8.3503,8.6731,8.5617,8.5601,8.716,8.6539,8.6495,8.7152,8.6858,8.6708,8.6708,8.7377,8.7806,8.8043,8.8737,9.0005,9.168,9.168,9.2546,9.4092,9.5277,9.5454,9.5069,9.6316,9.6813,9.6813,9.6813,9.7161,9.7542,9.6797,9.5836,9.4875,9.4676,9.4246,9.3749,9.3583,9.3649,9.3749,9.355,9.3135,9.2705,9.2705,9.2572,9.2406,9.2406,9.2406,9.2373,9.2159,9.1695,9.1264,9.1081,9.1048,9.0867,9.0321,9.0222,9.0023,8.9493,8.9228,8.8864,8.815,8.7602,8.7219,8.7054,8.7021,8.694,8.6774,8.6741,8.6958,8.744,8.7024,8.7289,8.8548,8.8051,8.8018,8.8581,8.878,8.878,8.8581,8.878,8.893,8.9129,8.9129,8.9526,7.0626,7.3221,7.493,7.6124,7.6678,7.5947,7.2414,7.1434,6.9696,6.4254,6.0711,0.0,5.5722,0.0,0.0,0.0,0.0,0.0,8.0643,8.2123,8.2384,0.0,8.1107,0.0,8.0556,8.0875,8.1775,0.0,8.2608,8.3357,8.6342,8.578,8.585,8.699,8.7062,8.7146,8.7323,8.7197,8.7157,8.7157,8.7826,8.8125,8.8155,8.8833,8.9801,9.0994,0.0,9.1887,9.3403,9.5018,9.5024,9.4207,9.5851,9.6499,9.6499,9.6499,9.7204,9.8138,9.7741,9.683,9.5803,9.5505,9.5107,9.471,9.4378,9.4511,9.471,9.4378,9.3981,9.3665,9.3665,9.3434,9.3186,9.3186,9.3186,9.3102,9.2771,9.2638,9.2473,9.2141,9.2075,9.1843,9.1099,9.0999,9.0834,9.0436,9.009,8.9725,8.9328,8.8647,8.8217,8.8217,8.8217,8.8217,8.8217,8.8217,8.8382,8.8765,8.8415,8.8581,8.9361,8.8997,8.8963,8.9394,8.9394,8.9394,8.9394,8.9394,8.956,8.9891,9.0189,9.0767,7.3792,7.5726,7.6859,7.7275,7.7074,7.5364,6.9912,6.7929,6.5354,5.8822,0.0,5.2488,5.1118,5.2599,5.6051,6.2226,0.0,7.4644,8.0497,8.1339,8.1804,8.3052,8.2181,8.1891,8.2965,8.253,8.2936,8.4727,8.3914,8.3865,8.5142,8.5644,8.6116,8.6665,8.7749,8.8108,8.7755,8.7785,8.7826,8.7856,8.8514,8.8833,8.8863,8.9522,9.0225,9.0938,0.0,0.0,9.3053,9.4693,9.4483,9.3282,9.4909,9.5518,9.5518,9.5518,9.665,9.815,9.8051,9.7739,9.7244,9.6432,9.6101,9.5869,9.524,9.5505,9.5869,9.524,9.4975,9.4908,9.4908,9.4411,9.3948,9.3948,9.3948,9.3749,9.3135,9.3418,9.3616,9.297,9.2837,9.2638,9.2009,9.1876,9.1876,9.1876,9.1364,9.0951,9.0951,9.0056,8.9394,8.9394,8.9394,8.9394,8.9394,8.9394,8.9427,8.9526,8.946,8.9493,8.9692,8.9593,8.9593,8.9692,8.9692,8.9692,8.9692,8.9791,9.0156,9.0818,9.1529,9.2241,7.5378,7.7091,7.7943,7.7507,7.6199,7.3813,6.9123,6.5515,0.0,0.0,0.0,4.9413,4.7887,5.1458,5.665,6.2834,0.0,0.0,0.0,0.0,8.2326,0.0,0.0,0.0,0.0,0.0,0.0,0.0,0.0,0.0,8.5789,8.549,8.57,8.6686,8.7749,8.82,8.7944,8.8331,8.8534,8.8514,8.9193,8.9542,8.9552,9.016,9.0544,9.0661,0.0,0.0,9.1203,9.2852,9.3041,9.2378,9.3988,9.4623,9.4623,9.4623,9.6035,9.7837,9.7266,9.7859,9.8702,9.736,9.6482,9.5968,9.5869,9.5902,9.5968,9.5869,9.5372,9.4908,9.4908,9.4809,9.471,9.471,9.471,9.4676,9.4544,9.4146,9.3749,9.3616,9.3616,9.3566,9.3434,9.3418,9.3418,9.3418,9.3318,9.3219,9.3219,9.0984,8.9394,8.9394,8.9394,8.9394,8.9394,8.9394,8.9659,9.0288,8.9725,8.9939,9.118,9.0619,9.0602,9.1214,9.1214,9.1214,9.1214,9.1843,9.2192,9.2324,9.3053,9.35,7.6801,7.8146,7.8727,7.8088,7.5969,7.2456,6.629,0.0,0.0,0.0,0.0,4.516,4.417,4.8179,0.0,5.7783,0.0,0.0,0.0,0.0,0.0,0.0,0.0,0.0,0.0,0.0,0.0,0.0,0.0,0.0,8.5963,8.6071,8.6573,8.7659,8.7862,8.8051,8.8144,8.8619,8.8875,8.8875,8.9419,8.9851,9.019,9.0468,9.0597,9.0597,9.0597,0.0,9.0742,9.2416,9.2362,9.1436,9.3071,9.3731,9.3731,9.3731,9.4971,9.6579,9.6241,9.6414,9.6782,9.6905,9.679,9.6482,9.6134,9.6001,9.6001,9.6001,9.577,9.5471,9.5471,9.5471,9.5471,9.5471,9.5173,9.5008,9.5405,9.4908,9.4378,9.4378,9.4378,9.4246,9.3848,9.3782,9.3782,9.3782,9.3782,9.3782,9.3782,9.2556,9.1529,9.1165,9.1132,9.0966,9.0569,9.09,9.1264,9.1629,9.1662,9.1993,9.2738,9.2424,9.2391,9.2738,9.2738,9.2738,9.2738,9.3102,9.3268,9.3285,9.4014,9.4378,7.7682,7.8959,7.9336,7.8582,7.5863,7.1365,6.3661,5.8232,0.0,0.0,4.2682,4.166,4.157,4.5134,4.9354,0.0,5.829,6.4648,0.0,0.0,0.0,0.0,0.0,0.0,0.0,0.0,0.0,0.0,0.0,0.0,8.6166,8.671,8.7432,8.8416,8.8077,8.8046,8.8363,8.8824,8.9116,8.922,8.9572,9.0047,9.0597,9.0597,9.0597,9.0597,9.0597,0.0,0.0,9.2023,9.178,9.0742,9.2063,9.2576,9.2576,9.2576,9.3586,9.4969,9.4969,9.4833,9.4817,9.5925,9.6511,9.6778,9.6532,9.6366,9.6266,9.6432,9.6366,9.6266,9.6432,9.6366,9.62,9.6035,9.5571,9.5306,9.5869,9.5538,9.514,9.514,9.514,9.4941,9.4378,9.4279,9.4279,9.4279,9.4279,9.4279,9.4279,9.4279,9.3981,9.3268,9.3036,9.2705,9.2108,9.2605,9.2937,9.2937,9.3484,9.3782,9.3782,9.3782,9.3782,9.3782,9.3782,9.3782,9.3782,9.4113,9.4279,9.4279,9.5173,9.5604,7.7711,7.9278,7.9917,7.8698,7.5515,7.0668,6.3022,0.0,0.0,4.375,4.1241,4.0651,4.1833,4.4291,4.8142,5.4255,5.8116,6.3486,7.241,7.566,0.0,0.0,0.0,0.0,0.0,0.0,0.0,0.0,0.0,0.0,0.0,8.6963,8.7283,8.7943,8.8323,8.855,8.8593,8.9061,8.9504,8.9903,8.9945,9.0184,9.0597,9.0597,9.0597,9.0597,0.0,0.0,0.0,9.0783,9.0742,9.0618,9.0783,9.0815,9.0815,9.0815,9.1881,9.3321,9.3321,9.4226,9.5312,9.478,9.5167,9.6098,9.757,9.7525,9.7161,9.7807,9.7525,9.7161,9.7807,9.7492,9.6813,9.6167,9.5968,9.5935,9.6001,9.5968,9.5902,9.5902,9.5902,9.5869,9.5803,9.5803,9.5803,9.5803,9.5803,9.5803,9.5803,9.5803,9.5505,9.4776,9.408,9.3649,9.3599,9.3649,9.3683,9.3683,9.3749,9.3782,9.3782,9.3782,9.3782,9.3782,9.3782,9.3782,9.3782,9.514,9.5803,9.5836,9.7244,9.7906,7.7391,7.9336,8.0004,7.8727,7.4906,6.9536,6.2267,0.0,4.9083,4.2789,4.0466,3.9828,4.0728,4.2382,4.5053,4.9499,5.1298,5.5403,6.4822,6.7318,0.0,0.0,0.0,0.0,0.0,0.0,0.0,0.0,0.0,0.0,0.0,8.7552,8.7646,8.7907,8.808,8.8188,8.8188,8.8659,8.895,8.917,8.9445,8.9824,9.0243,9.0243,9.0368,9.0597,0.0,0.0,0.0,9.0597,9.0597,9.0597,9.0597,9.0597,9.0597,9.0597,9.1022,9.1606,9.1606,9.1993,9.2675,9.3393,9.3837,9.4278,9.5005,9.5053,9.4874,9.5182,9.5053,9.4874,9.5182,9.5756,9.6347,9.6615,9.6995,9.7194,9.6763,9.6995,9.7211,9.6763,9.6648,9.6648,9.6648,9.6648,9.6797,9.7277,9.731,9.731,9.731,9.6929,9.6548,9.6266,9.5173,9.4279,9.3848,9.4213,9.4445,9.4445,9.4875,9.5107,9.5107,9.5107,9.5339,9.577,9.5803,9.6001,9.6449,9.7045,9.731,9.7343,9.7906,9.8221,7.6409,7.8688,7.9423,7.8146,7.3966,6.8347,0.0,5.4617,4.8125,4.2538,4.0379,3.9654,4.0263,4.1337,4.3021,4.5797,4.7352,5.1124,5.948,6.2296,6.6535,0.0,0.0,0.0,0.0,0.0,0.0,0.0,0.0,0.0,0.0,8.7907,8.7907,8.7907,8.7907,8.7907,8.7907,8.8231,8.8467,8.8616,8.9085,8.9488,8.9803,9.0055,9.0264,9.0431,0.0,0.0,0.0,9.0597,9.0597,9.0597,9.0597,9.0597,9.0597,9.0597,9.0597,9.0597,9.0597,9.0597,9.0774,9.1982,9.2355,9.2393,9.2479,9.3046,9.3671,9.3879,9.4295,9.46,9.4391,9.5518,9.6878,9.7308,9.7807,9.8039,9.7525,9.784,9.8039,9.7525,9.7426,9.7426,9.7426,9.7426,9.7592,9.8105,9.8221,9.8221,9.8221,9.7741,9.7426,9.7426,9.6498,9.5571,9.4842,9.524,9.5637,9.5852,9.6366,9.6631,9.6631,9.6631,9.6896,9.7426,9.7426,9.7658,9.8221,9.842,9.8553,9.8553,9.8735,9.8834,7.4612,7.7191,7.8117,7.6849,7.2631,6.7157,0.0,5.4327,4.8241,4.3148,4.1018,4.0292,4.096,4.1628,4.2712,4.46,4.8653,5.3371,5.8581,6.3676,6.8061,0.0,0.0,0.0,0.0,0.0,0.0,0.0,0.0,0.0,0.0,8.7907,8.7907,8.7907,8.7907,8.7907,8.7907,8.7907,8.8145,8.8616,8.9085,8.9318,8.934,9.0201,9.0389,0.0,0.0,0.0,0.0,9.0597,9.0597,9.0597,9.0597,9.0597,9.0597,9.0597,9.0597,9.0597,9.0597,9.0597,9.0597,9.0618,9.0638,9.0638,9.0608,9.2393,9.4529,9.5262,9.6611,9.7685,9.6952,9.8017,9.9082,9.8337,9.8188,9.8221,9.8188,9.8188,9.8221,9.8188,9.8188,9.8188,9.8188,9.8188,9.8188,9.8221,9.8221,9.8221,9.8221,9.8188,9.8188,9.8188,9.8171,9.7873,9.7128,9.7078,9.7393,9.8122,9.8188,9.8188,9.8188,9.8188,9.8188,9.8188,9.8188,9.8188,9.8221,9.8933,9.9298,9.9298,9.9977,10.0308,6.7304,6.9684,7.0653,6.8927,6.5832,6.1841,5.6769,5.1857,4.7184,4.2963,4.1395,4.0854,4.1057,4.1667,4.3573,4.8125,5.0058,5.2933,5.8523,0.0,0.0,0.0,0.0,0.0,0.0,0.0,0.0,0.0,0.0,0.0,0.0,8.7675,8.7907,8.7907,8.7907,8.7907,8.7907,8.7907,8.7972,8.8123,8.8274,8.8531,8.8851,8.9445,0.0,0.0,0.0,0.0,0.0,9.0201,9.0201,9.0222,9.0493,9.0597,9.0597,9.0597,9.0597,9.0597,9.0597,9.0597,9.0597,9.0597,9.0597,9.0597,9.0597,9.117,9.184,9.2073,9.2506,9.311,9.4046,9.5487,9.6784,9.7142,9.8481,9.9513,9.9033,9.9331,9.948,9.9033,9.8933,9.8933,9.8933,9.8933,9.9099,9.9579,9.9645,9.9645,9.9645,9.9232,9.8933,9.8933,9.852,9.8122,9.7873,9.784,9.794,9.8188,9.8221,9.8221,9.8221,9.8221,9.8453,9.8933,9.8933,9.9165,9.9645,9.9877,9.9977,9.9977,10.0209,10.0291,6.2101,6.482,6.5764,6.4282,6.1452,5.8023,5.4261,5.014,4.6197,4.3079,4.1928,4.1482,4.1482,4.2005,4.3699,4.7532,4.9374,5.1917,0.0,0.0,0.0,0.0,0.0,0.0,0.0,0.0,0.0,0.0,0.0,0.0,0.0,0.0,8.7443,8.7182,8.7646,8.7907,8.7907,8.7907,8.7907,8.7907,8.808,8.8231,8.8359,8.9022,0.0,0.0,0.0,0.0,0.0,8.9929,9.0013,9.0055,9.0451,9.0514,9.0368,9.0368,9.0368,9.0368,9.0368,9.0472,9.0597,9.0597,9.0597,9.0597,9.0597,9.0597,9.0597,9.0597,9.1063,9.178,9.2825,9.4307,9.5802,9.6951,9.8318,9.9471,9.9626,10.001,10.0209,9.9745,9.9696,9.9696,9.9696,9.9696,9.9811,10.0192,10.0291,10.0291,10.0291,9.9944,9.9696,9.9696,9.9265,9.9,9.9,9.8768,9.8702,9.9,9.9,9.9,9.9,9.9,9.9232,9.9662,9.9696,9.9877,10.0291,10.0606,10.0688,10.0688,10.0986,10.1004,0.0,6.1453,6.2373,6.17,5.862,5.5151,5.271,4.8834,0.0,4.338,4.2509,4.215,4.2266,4.2673,4.3351,4.4425,4.766,5.0958,0.0,5.9016,0.0,0.0,0.0,0.0,0.0,0.0,0.0,0.0,0.0,0.0,0.0,0.0,8.6652,8.5963,8.7124,8.7762,8.7762,8.782,8.782,8.7762,8.8272,8.825,8.7871,8.8763,0.0,0.0,0.0,0.0,0.0,8.9719,8.9908,8.995,9.0347,9.0285,8.995,8.995,8.9971,9.0013,9.0013,9.0264,9.0597,9.0597,9.0597,9.0597,9.0597,9.0597,9.0597,9.0597,9.1719,9.2925,9.2925,9.421,9.5879,9.7358,9.7915,9.8503,9.9966,10.0291,10.0291,10.0291,10.0291,10.0291,10.0407,10.0407,10.039,10.039,10.0507,10.0507,10.0507,10.039,10.039,10.0507,10.039,10.039,10.0507,9.9778,9.9662,10.0308,10.0291,10.0291,10.0291,10.0407,10.0407,10.0407,10.039,10.0507,10.0507,10.1102,10.1483,10.1483,10.2212,10.2095,4.916,0.0,5.3132,5.2302,5.0884,4.9333,0.0,4.6041,4.4164,4.3206,4.2509,4.2538,4.399,4.3554,4.4658,4.9751,5.2149,5.4458,5.7507,0.0,0.0,0.0,0.0,0.0,0.0,0.0,0.0,0.0,0.0,0.0,0.0,8.671,8.6499,8.5345,8.605,8.6456,8.6456,8.6971,8.6971,8.6456,8.7078,8.731,8.7225,8.7821,0.0,0.0,0.0,0.0,8.8787,8.8894,8.8936,8.895,8.9445,8.9572,8.9466,8.9466,8.9698,9.0013,9.0013,9.0264,9.0597,9.0597,9.0597,9.0597,9.0597,9.0597,9.0597,9.0597,9.0877,9.1177,9.1177,9.331,9.5596,9.5973,9.7933,9.9845,10.0189,10.0291,10.0291,10.0291,10.0291,10.0507,10.1002,10.1102,10.13,10.1914,10.2013,10.2013,10.2013,10.1483,10.1401,10.1914,10.1483,10.1401,10.1896,10.0788,10.0092,10.0308,10.0291,10.0291,10.0291,10.0821,10.1102,10.1102,10.1715,10.2013,10.2013,10.2196,10.2194,10.2194,10.2393,10.2411,4.5194,4.759,4.9812,4.9438,4.853,4.7528,4.6873,4.5077,4.3351,4.2712,0.0,4.2509,4.3787,4.3932,4.5296,4.9693,5.2207,0.0,0.0,0.0,0.0,0.0,0.0,0.0,0.0,0.0,0.0,0.0,0.0,0.0,0.0,8.5926,8.5686,8.4649,8.4968,8.5411,8.5971,8.634,8.634,8.6,8.6681,8.6992,8.6992,8.7248,0.0,0.0,0.0,0.0,8.7908,8.8414,8.8616,8.8659,8.9128,8.917,8.9022,8.9234,8.9466,8.9719,8.9929,9.0264,9.0597,9.0597,9.0597,9.0597,9.0597,9.0597,9.0597,9.0597,9.0597,9.0597,9.0597,9.2134,9.3892,9.4678,9.7023,9.9148,9.9584,10.0517,10.1218,10.0904,10.1086,10.14,10.1797,10.1914,10.1996,10.2393,10.251,10.251,10.251,10.2196,10.2079,10.2477,10.2095,10.2079,10.251,10.1799,10.1284,10.1284,10.1284,10.1284,10.1284,10.1715,10.1914,10.1914,10.2311,10.251,10.251,10.2808,10.3024,10.3024,10.3389,10.3305,4.4636,4.7214,4.9569,4.9311,4.847,4.755,4.6976,4.4927,0.0,0.0,0.0,0.0,0.0,4.4745,0.0,0.0,0.0,0.0,0.0,0.0,0.0,0.0,0.0,0.0,0.0,0.0,0.0,0.0,0.0,0.0,0.0,8.5105,8.4786,8.4118,8.4118,8.462,8.5702,8.5818,8.5818,8.5731,8.6477,8.6818,8.6702,8.6818,8.6826,0.0,0.0,0.0,8.7072,8.8097,8.8509,8.8531,8.8936,8.8851,8.8552,8.8958,8.9149,8.9276,8.9824,9.0222,9.0514,9.0576,9.0597,9.0597,9.0597,9.0597,9.0627,9.0717,9.0687,9.0627,9.0717,9.1344,9.2367,9.388,9.5969,9.7795,9.8521,10.0496,10.1895,10.1301,10.1889,10.2492,10.2592,10.2693,10.2709,10.2808,10.2791,10.2791,10.2791,10.2691,10.2709,10.2808,10.2709,10.2709,10.2808,10.2791,10.2791,10.2791,10.2592,10.2594,10.2693,10.2693,10.2709,10.2791,10.2791,10.2791,10.2791,10.3506,10.3804,10.3804,10.44,10.44,4.689,4.8924,4.9551,4.6915,4.6791,4.693,4.556,4.4505,4.3816,0.0,0.0,0.0,0.0,4.7961,0.0,0.0,0.0,0.0,0.0,0.0,0.0,0.0,0.0,0.0,0.0,0.0,0.0,0.0,0.0,0.0,0.0,0.0,8.4786,8.4118,8.4118,8.4184,8.4387,8.4939,8.4939,8.4416,8.5586,8.5876,8.5424,8.5905,8.6166,0.0,0.0,8.6992,8.705,8.7732,8.8015,8.8015,8.8101,8.808,8.8015,8.8101,8.8381,8.883,8.9719,9.0055,9.016,9.0493,9.0597,9.0597,9.0597,9.0597,9.0717,9.1306,9.1036,9.0717,9.1306,9.2576,9.3911,9.4686,9.6202,9.7556,9.768,9.914,10.0383,10.0202,10.1513,10.2709,10.3289,10.3389,10.3588,10.4301,10.44,10.44,10.44,10.3786,10.3705,10.4283,10.3804,10.3705,10.4283,10.44,10.44,10.44,10.3206,10.2792,10.3406,10.3389,10.3687,10.44,10.44,10.44,10.44,10.45,10.4482,10.4482,10.4614,10.4614,4.4696,4.6383,4.7774,4.808,4.9379,5.0189,4.8599,4.7346,0.0,0.0,0.0,0.0,0.0,0.0,0.0,0.0,0.0,0.0,0.0,0.0,0.0,0.0,0.0,0.0,0.0,0.0,0.0,0.0,0.0,0.0,0.0,0.0,8.4437,8.4118,8.4118,8.4118,8.4118,8.4408,8.4408,8.4118,8.5055,8.5374,8.5105,8.5403,8.552,8.5549,0.0,8.6477,8.6514,8.7501,8.7907,8.7907,8.7907,8.7907,8.7929,8.8188,8.8595,8.9043,8.9488,8.9635,8.9698,9.0139,9.0285,9.0327,9.0535,9.0597,9.0746,9.1425,9.1366,9.1306,9.1985,9.2984,9.3912,9.4174,9.5793,9.7153,9.6779,9.8312,9.9935,10.0497,10.1514,10.2703,10.3993,10.4202,10.4301,10.4614,10.4699,10.4699,10.4699,10.44,10.4283,10.4699,10.44,10.4283,10.4699,10.4699,10.4699,10.4699,10.4102,10.3802,10.4202,10.4202,10.44,10.4699,10.4699,10.4699,10.4699,10.4699,10.4699,10.4699,10.4699,10.4699,4.3748,4.5021,4.6793,4.9993,0.0,5.2449,5.2709,0.0,0.0,0.0,0.0,0.0,0.0,0.0,0.0,0.0,0.0,0.0,0.0,0.0,0.0,0.0,0.0,0.0,0.0,0.0,0.0,0.0,0.0,0.0,0.0,0.0,8.4118,8.4118,8.4118,8.4118,8.4118,8.4118,8.4118,8.4118,8.4786,8.5018,8.4873,8.5047,8.5018,8.4931,8.5673,8.6,8.6087,8.7385,8.7907,8.7907,8.7907,8.7907,8.7951,8.8317,8.8681,8.9,8.9106,8.9149,8.9234,8.9824,9.0013,9.0076,9.0472,9.0717,9.0956,9.1635,9.1934,9.2194,9.2703,9.3233,9.3652,9.3802,9.5208,9.6379,9.5767,9.7433,9.9215,9.9994,10.1308,10.2616,10.3895,10.4415,10.4699,10.4699,10.4699,10.4699,10.4699,10.4699,10.4699,10.4699,10.4699,10.4699,10.4699,10.4699,10.4699,10.4699,10.4699,10.4699,10.4699,10.4699,10.4699,10.4699,10.4699,10.4699,10.4699,10.4699,10.4699,10.4699,10.4699,10.4699,4.7821,4.8242,4.8372,5.1486,5.0618,0.0,5.646,5.5372,0.0,0.0,0.0,0.0,0.0,0.0,0.0,0.0,0.0,0.0,0.0,0.0,0.0,0.0,0.0,0.0,0.0,0.0,0.0,0.0,0.0,0.0,0.0,0.0,0.0,8.4118,8.4118,8.4118,8.4118,8.4118,8.4118,8.4118,8.4786,8.4765,8.4205,8.4815,8.4757,8.4242,8.5469,8.6,8.6087,8.7385,8.7907,8.7907,8.7907,8.7907,8.7907,8.7929,8.7972,8.8058,8.8509,8.8659,8.8809,8.9719,9.0013,9.0076,9.0472,9.1016,9.1665,9.2344,9.2972,9.3473,9.3532,9.3562,9.3772,9.4379,9.4645,9.4783,9.4701,9.6061,9.7292,9.7353,9.9984,10.221,10.2392,10.3695,10.4699,10.4699,10.4699,10.4699,10.4699,10.4699,10.4699,10.4699,10.4699,10.4699,10.4699,10.4699,10.4699,10.4699,10.4699,10.4699,10.4699,10.4699,10.4699,10.4699,10.4699,10.4699,10.4699,10.4699,10.4699,10.4699,10.4699,10.4699,4.4971,4.6213,4.7913,5.1744,5.3095,0.0,0.0,5.89,6.0235,0.0,0.0,0.0,0.0,0.0,0.0,0.0,0.0,0.0,0.0,0.0,0.0,0.0,0.0,0.0,0.0,0.0,0.0,0.0,0.0,0.0,0.0,0.0,0.0,8.4118,8.4118,8.4118,8.4118,8.4118,8.4118,8.4118,8.4379,8.435,8.4118,8.4358,8.4582,8.4765,8.5615,8.6224,8.6681,8.7559,8.7907,8.7907,8.7907,8.7907,8.7907,8.7907,8.7907,8.7929,8.8101,8.8166,8.8396,8.9748,8.9897,8.9757,9.0887,9.1395,9.1725,9.2404,9.3062,9.3712,9.411,9.4229,9.4289,9.4558,9.4618,9.4618,9.4618,9.5097,9.5847,9.6888,9.8151,9.9701,10.18,10.2677,10.3695,10.5184,10.4997,10.4897,10.531,10.5394,10.5394,10.5394,10.5807,10.5891,10.5409,10.5807,10.609,10.609,10.5178,10.4699,10.4699,10.4699,10.4699,10.4699,10.4699,10.4699,10.4699,10.4699,10.4699,10.4681,10.5196,10.5111,4.3695,4.5056,4.7424,5.132,0.0,0.0,6.0366,6.2892,6.5506,0.0,0.0,0.0,0.0,0.0,0.0,0.0,0.0,0.0,0.0,0.0,0.0,0.0,0.0,0.0,0.0,0.0,0.0,0.0,0.0,0.0,0.0,0.0,0.0,0.0,8.4118,8.4118,8.4118,8.4118,8.4118,8.4118,8.4118,8.4118,8.4118,8.4118,8.4329,8.4844,8.5461,8.6079,8.6739,8.7377,8.7733,8.7907,8.7907,8.7907,8.7907,8.7907,8.7907,8.7907,8.7907,8.7907,8.8095,8.935,8.9713,8.9791,9.0797,9.1641,9.2284,9.2524,9.3242,9.402,9.4499,9.4618,9.4618,9.4618,9.4618,9.4618,9.4618,9.4618,9.4955,9.607,9.6752,9.7846,10.0204,10.151,10.2811,10.4389,10.4905,10.5211,10.5708,10.6006,10.6087,10.6087,10.6602,10.6701,10.6205,10.6602,10.69,10.69,10.5991,10.5277,10.5096,10.4813,10.4699,10.4699,10.4699,10.4699,10.4699,10.4913,10.5012,10.5096,10.5807,10.5792,4.5264,4.5693,4.7259,5.0274,0.0,0.0,6.5554,6.748,6.96,0.0,0.0,0.0,0.0,0.0,0.0,0.0,0.0,0.0,0.0,0.0,0.0,0.0,0.0,0.0,0.0,0.0,0.0,0.0,0.0,0.0,0.0,0.0,0.0,0.0,8.4118,8.4118,8.4118,8.4118,8.4118,8.4118,8.4118,8.4118,8.4118,8.4118,8.4118,8.4147,8.4844,8.5461,8.605,8.671,8.7348,8.7907,8.7907,8.7907,8.7907,8.7907,8.7907,8.7907,8.7907,8.7907,8.7972,8.8445,8.9348,9.0251,9.0074,9.1677,9.3443,9.2793,9.3571,9.4618,9.4618,9.4618,9.4618,9.4618,9.4618,9.4618,9.4618,9.4618,9.4618,9.4618,9.5953,9.7075,9.7095,9.9917,10.2205,10.2191,10.4297,10.5807,10.5807,10.6521,10.69,10.69,10.69,10.69,10.69,10.69,10.69,10.69,10.69,10.6602,10.5807,10.5078,10.4681,10.4681,10.4699,10.4699,10.4699,10.5409,10.5807,10.5807,10.662,10.6503,4.4338,4.6469,0.0,5.2726,0.0,0.0,0.0,7.176,0.0,0.0,0.0,0.0,0.0,0.0,0.0,0.0,0.0,0.0,0.0,0.0,0.0,0.0,0.0,0.0,0.0,0.0,0.0,0.0,0.0,0.0,0.0,0.0,0.0,0.0,8.4118,8.4118,8.4118,8.4118,8.4118,8.4118,8.4118,8.4118,8.4118,8.4118,8.4379,8.4823,8.544,8.5847,8.605,8.671,8.7348,8.7907,8.7907,8.7907,8.7907,8.7907,8.7907,8.7907,8.7907,8.7907,8.8052,8.9014,8.9457,8.9816,9.0973,9.2073,9.2943,9.3233,9.393,9.4618,9.4618,9.4618,9.4618,9.4618,9.4618,9.4618,9.4618,9.4618,9.4618,9.4618,9.499,9.5698,9.6888,9.8926,10.0985,10.2701,10.4592,10.6223,10.7198,10.7511,10.7695,10.7695,10.8107,10.8207,10.7677,10.8107,10.8406,10.8406,10.7993,10.7279,10.6602,10.5891,10.5494,10.5494,10.4997,10.4699,10.4699,10.4879,10.5277,10.5807,10.662,10.6503,4.6256,4.9109,0.0,5.6634,6.2136,6.826,7.4267,0.0,0.0,0.0,0.0,0.0,0.0,0.0,0.0,0.0,0.0,0.0,0.0,0.0,0.0,0.0,0.0,0.0,0.0,0.0,0.0,0.0,0.0,0.0,0.0,0.0,0.0,0.0,8.3458,8.3363,8.3363,8.3363,8.3363,8.3342,8.3624,8.372,8.3749,8.4002,8.4466,8.5142,8.6013,8.6253,8.605,8.671,8.7348,8.7878,8.7646,8.7675,8.7907,8.7907,8.7907,8.7907,8.7907,8.7907,8.8052,8.8926,8.9428,8.9875,9.0854,9.2014,9.3032,9.3152,9.387,9.4618,9.4618,9.4618,9.4618,9.4618,9.4618,9.4618,9.4618,9.4618,9.4618,9.4618,9.4618,9.4934,9.5953,9.807,10.0103,10.1582,10.4297,10.6801,10.8207,10.8406,10.8406,10.8406,10.8803,10.8902,10.849,10.8803,10.9101,10.9101,10.8689,10.8207,10.7795,10.6801,10.6105,10.5807,10.5394,10.4997,10.4699,10.4997,10.5394,10.5807,10.662,10.6503,4.956,5.2639,5.668,6.1309,6.5622,0.0,7.8611,0.0,0.0,0.0,0.0,0.0,0.0,0.0,0.0,0.0,0.0,0.0,0.0,0.0,0.0,0.0,0.0,0.0,0.0,0.0,0.0,0.0,0.0,0.0,0.0,0.0,0.0,8.3284,8.2675,8.2355,8.2355,8.2326,8.2268,0.0,8.2849,8.311,8.311,8.3798,8.4495,8.5229,8.6295,8.6477,8.6137,8.6623,8.7232,8.7762,8.7203,8.7377,8.7907,8.7907,8.7907,8.7907,8.7907,8.7907,8.7972,8.8467,8.9318,9.0192,9.0104,9.1677,9.3413,9.2853,9.3601,9.4618,9.4618,9.4618,9.4618,9.4618,9.4618,9.4618,9.4618,9.4618,9.4618,9.4618,9.4618,9.4618,9.4618,9.7261,9.9503,9.9882,10.3908,10.7298,10.8704,10.8987,10.9002,10.9002,10.9087,10.9101,10.9101,10.9101,10.9101,10.9101,10.9101,10.9101,10.9101,10.7695,10.6602,10.5906,10.5792,10.5394,10.4699,10.5394,10.5708,10.5807,10.6503,10.6385,4.836,5.261,5.8218,6.3703,7.0262,7.6346,8.0149,8.1514,0.0,0.0,0.0,0.0,0.0,0.0,0.0,0.0,0.0,0.0,0.0,0.0,0.0,0.0,0.0,0.0,0.0,0.0,0.0,0.0,0.0,0.0,0.0,0.0,0.0,8.3914,8.3769,8.3711,8.3711,8.3226,8.2965,0.0,8.2588,8.2434,8.2442,8.3575,8.4736,8.576,8.5026,8.5511,8.671,8.5839,8.6158,8.7174,8.705,8.7377,8.7907,8.7907,8.7907,8.7907,8.7907,8.7907,8.7972,8.8467,8.9025,8.9669,9.0447,9.1686,9.2883,9.3293,9.396,9.4618,9.4618,9.4618,9.4618,9.4618,9.4618,9.4618,9.4618,9.4618,9.4618,9.4618,9.4618,9.4618,9.4618,9.6302,9.8732,10.1987,10.4502,10.6421,10.7298,10.7894,10.8207,10.8207,10.8788,10.9101,10.9101,10.9101,10.9101,10.9101,10.9101,10.9101,10.9101,10.7695,10.6801,10.672,10.5509,10.4897,10.4699,10.4897,10.5211,10.5807,10.5991,10.5991,5.0233,5.5091,6.1077,6.9002,0.0,7.8553,8.1107,8.1949,0.0,0.0,0.0,0.0,0.0,0.0,0.0,0.0,0.0,0.0,0.0,0.0,0.0,0.0,0.0,0.0,0.0,0.0,0.0,0.0,0.0,0.0,0.0,8.3827,8.3662,8.3662,8.3342,8.3168,8.3168,8.2878,8.2704,8.2704,8.2675,8.2675,8.2704,8.3682,8.43,8.4686,8.5229,8.5715,8.6063,8.5694,8.5926,8.6536,8.6536,8.6913,8.7493,8.7791,8.7907,8.7907,8.7907,8.7907,8.7972,8.8467,8.8936,8.9462,9.0231,9.1477,9.2673,9.3002,9.384,9.4618,9.4618,9.4618,9.4618,9.4618,9.4618,9.4618,9.4618,9.4618,9.4618,9.4618,9.4618,9.4618,9.4618,9.5965,9.8472,10.2501,10.3795,10.4988,10.6706,10.718,10.771,10.849,10.8888,10.9101,10.9101,10.9101,10.9101,10.9101,10.9101,10.9101,10.9101,10.8008,10.7298,10.69,10.6087,10.5409,10.4699,10.4699,10.4879,10.5295,10.5295,10.5295,5.1599,5.7492,6.4328,7.4089,7.7468,0.0,8.1601,8.2181,8.2559,0.0,0.0,0.0,0.0,0.0,0.0,0.0,0.0,0.0,0.0,0.0,0.0,0.0,0.0,0.0,0.0,0.0,0.0,0.0,0.0,0.0,8.3952,8.3575,8.3342,8.3342,8.284,8.253,8.253,8.2413,8.2355,8.2384,8.282,8.2965,8.2878,8.3624,8.374,8.3458,8.5599,8.5976,8.5134,8.5499,8.5731,8.5847,8.5963,8.6398,8.7079,8.7675,8.7907,8.7907,8.7907,8.7907,8.7972,8.8467,8.8936,8.9403,8.9866,9.123,9.2613,9.2613,9.3571,9.4618,9.4618,9.4618,9.4618,9.4618,9.4618,9.4618,9.4618,9.4618,9.4618,9.4618,9.4618,9.4618,9.4618,9.61,9.8318,10.1508,10.2597,10.4014,10.6582,10.69,10.7397,10.8623,10.8902,10.9101,10.9101,10.9101,10.9101,10.9101,10.9101,10.9101,10.9101,10.8505,10.7809,10.7099,10.7018,10.6205,10.4897,10.4979,10.4979,10.4897,10.4897,10.4813,4.7236,5.6376,6.707,7.4641,7.7468,7.9075,0.0,0.0,8.2559,0.0,0.0,0.0,0.0,0.0,0.0,0.0,0.0,0.0,0.0,0.0,0.0,0.0,0.0,0.0,0.0,0.0,0.0,0.0,0.0,0.0,8.3342,8.372,8.4002,8.4002,8.3894,8.3856,8.3856,8.3334,8.3052,8.3052,8.2559,8.2036,8.1514,8.2733,8.3546,8.4002,8.4329,8.4727,8.5055,8.4562,8.4707,8.5258,8.5789,8.6398,8.7079,8.7675,8.7907,8.7907,8.7907,8.7907,8.7972,8.8467,8.8936,8.9403,8.9866,9.123,9.2613,9.2613,9.3571,9.4618,9.4618,9.4618,9.4618,9.4618,9.4618,9.4618,9.4618,9.4618,9.4618,9.4618,9.4618,9.4618,9.4618,9.6427,9.805,9.855,10.1988,10.5004,10.6698,10.69,10.7,10.7198,10.8306,10.9101,10.9101,10.9101,10.9101,10.9101,10.9101,10.9101,10.9101,10.9002,10.8604,10.7894,10.718,10.6503,10.5693,10.6304,10.6322,10.5693,10.5693,10.531,5.1166,5.9698,6.816,7.5233,7.742,7.8524,8.1049,8.192,8.2471,0.0,0.0,0.0,0.0,0.0,0.0,0.0,0.0,0.0,0.0,0.0,0.0,0.0,0.0,0.0,0.0,0.0,0.0,0.0,0.0,8.3081,8.3168,8.3429,8.3749,8.4089,8.3749,8.3749,8.4118,8.3487,8.3371,8.3691,8.3421,8.2936,8.2355,8.3284,8.3458,8.3101,8.4205,8.4611,8.4553,8.464,8.4611,8.462,8.5615,8.6166,8.6565,8.753,8.7907,8.7907,8.7907,8.7907,8.7929,8.8145,8.8723,8.934,8.9551,9.0989,9.2613,9.2613,9.3571,9.4618,9.4618,9.4618,9.4618,9.4618,9.4618,9.4618,9.4618,9.4618,9.4618,9.4618,9.4618,9.4618,9.4618,9.5431,9.61,9.61,9.7795,10.1222,10.73,10.8107,10.8107,10.8107,10.8704,10.9101,10.9101,10.9101,10.9101,10.9101,10.9101,10.9101,10.9101,10.9101,10.8788,10.8008,10.7695,10.7217,10.6403,10.6683,10.6701,10.6403,10.6403,10.6205,5.261,5.9379,6.507,7.2602,7.5359,7.6927,0.0,0.0,8.2181,0.0,0.0,0.0,0.0,0.0,0.0,0.0,0.0,0.0,0.0,0.0,0.0,0.0,0.0,0.0,0.0,0.0,0.0,0.0,0.0,8.25,8.2675,8.2849,8.3139,8.3604,8.3168,8.3139,8.3624,8.3342,8.345,8.3865,8.4031,8.3778,8.3226,8.3807,8.3508,8.253,8.4126,8.4669,8.4408,8.4902,8.4881,8.4678,8.5818,8.6253,8.6398,8.7501,8.7907,8.7907,8.7907,8.7907,8.7929,8.8037,8.8638,8.934,8.9445,9.0926,9.2613,9.2613,9.3571,9.4618,9.4618,9.4618,9.4618,9.4618,9.4618,9.4618,9.4618,9.4618,9.4618,9.4618,9.4618,9.4618,9.4618,9.4618,9.4618,9.4618,9.5165,9.8211,10.5519,10.8005,10.9101,10.9101,10.9101,10.9101,10.9101,10.9101,10.9101,10.9101,10.9101,10.9101,10.9101,10.9101,10.8803,10.8292,10.8292,10.7909,10.7198,10.7397,10.7415,10.7198,10.7198,10.7099,4.6527,5.0797,5.5459,6.4313,6.9711,7.3832,0.0,0.0,8.1601,0.0,0.0,0.0,0.0,0.0,0.0,0.0,0.0,0.0,0.0,0.0,0.0,0.0,0.0,0.0,0.0,0.0,0.0,0.0,0.0,8.2617,8.1368,8.1891,8.2268,8.2297,8.2268,8.2268,8.2297,8.2907,8.3218,8.3255,8.3827,8.3778,8.3226,8.3807,8.3749,8.3168,8.3865,8.4495,8.5026,8.5105,8.5432,8.5963,8.6681,8.6963,8.7021,8.7646,8.7907,8.7907,8.7907,8.7907,8.7972,8.8424,8.8915,8.9382,8.9824,9.1209,9.2613,9.2613,9.3571,9.4618,9.4618,9.4618,9.4618,9.4618,9.4618,9.4618,9.4618,9.4618,9.4618,9.4618,9.4618,9.4618,9.4618,9.4618,9.4618,9.4618,9.6721,9.8471,9.8995,10.4912,10.9101,10.9101,10.9101,10.9101,10.9101,10.9101,10.9101,10.9101,10.9101,10.9101,10.9101,10.9101,10.912,10.9002,10.9002,10.8689,10.7909,10.8604,10.8604,10.7909,10.7909,10.7596,4.5267,4.9204,5.3733,6.1033,6.5315,6.8944,7.36,7.6811,7.9249,8.0991,0.0,0.0,0.0,0.0,0.0,0.0,0.0,0.0,0.0,0.0,0.0,0.0,0.0,0.0,0.0,0.0,0.0,0.0,0.0,0.0,8.1194,8.1426,8.1746,8.2181,8.1775,8.1543,8.1543,8.221,8.2559,8.2559,8.2762,8.2994,8.3197,8.34,8.3624,8.3798,8.4031,8.4495,8.5076,8.464,8.4823,8.549,8.6108,8.634,8.6485,8.753,8.7907,8.7907,8.7907,8.7907,8.7972,8.8467,8.9201,9.0023,9.0447,9.1835,9.3233,9.3233,9.39,9.4618,9.4618,9.4618,9.4618,9.4618,9.4618,9.4618,9.4618,9.4618,9.4618,9.4618,9.4618,9.4888,9.5747,9.5157,9.5165,9.684,9.7887,9.8516,9.8516,10.0703,10.3987,10.8605,10.9101,10.9101,10.9101,10.9101,10.9101,10.9101,10.9101,10.9101,10.9101,10.9101,10.9101,10.9101,10.9101,10.902,10.8704,10.902,10.8987,10.8704,10.8704,10.8306,4.2295,4.5808,5.0307,5.6955,6.0061,6.337,7.0657,7.3937,7.6317,7.9336,8.0962,0.0,0.0,0.0,0.0,0.0,0.0,0.0,0.0,0.0,0.0,0.0,0.0,0.0,0.0,0.0,0.0,0.0,0.0,0.0,8.0875,8.0904,8.1107,8.1543,8.0904,8.0672,8.0904,8.1543,8.1978,8.223,8.2617,8.3052,8.3487,8.3487,8.374,8.4118,8.4118,8.4591,8.5345,8.4707,8.496,8.5802,8.6187,8.634,8.6456,8.753,8.7907,8.7907,8.7907,8.7907,8.7972,8.8467,8.9348,9.0369,9.0773,9.2163,9.3592,9.3592,9.408,9.4618,9.4618,9.4618,9.4618,9.4618,9.4618,9.4678,9.4888,9.4947,9.4947,9.4947,9.5007,9.5366,9.6406,9.6204,9.6481,9.8246,9.699,9.6481,9.8276,9.8516,10.0298,10.4993,10.7686,10.9101,10.9101,10.9101,10.9101,10.9101,10.9101,10.9101,10.9101,10.9101,10.9101,10.9101,10.9101,10.9101,10.9101,10.9101,10.9101,10.9101,10.9101,10.8704,0.0,0.0,0.0,0.0,0.0,0.0,6.8612,0.0,7.2765,7.8001,8.0033,0.0,0.0,0.0,0.0,0.0,0.0,0.0,0.0,0.0,0.0,0.0,0.0,0.0,0.0,0.0,0.0,0.0,0.0,8.0904,8.0323,8.0294,8.0294,8.0294,7.9656,7.9627,8.0294,8.0904,8.1514,8.2181,8.3429,8.4039,8.4068,8.4068,8.4068,8.4118,8.4118,8.4823,8.5934,8.5316,8.5831,8.6963,8.6963,8.6963,8.705,8.7675,8.7907,8.7907,8.7907,8.7907,8.7972,8.8467,8.9398,9.0428,9.0854,9.2222,9.3622,9.3622,9.411,9.4618,9.4618,9.4618,9.4618,9.4618,9.4618,9.4798,9.5456,9.5628,9.5628,9.5628,9.5815,9.6084,9.6525,9.767,9.8516,9.8516,9.4148,9.2691,9.7858,9.8516,9.8516,9.8516,10.4702,10.8792,10.8886,10.9008,10.8994,10.8994,10.9082,10.9101,10.9101,10.9101,10.9101,10.9101,10.9101,10.9101,10.9101,10.9101,10.9101,10.9101,10.912,10.8722,3.8077,0.0,0.0,0.0,0.0,0.0,0.0,0.0,6.3676,7.2068,7.3705,0.0,0.0,0.0,0.0,0.0,0.0,0.0,0.0,0.0,0.0,0.0,0.0,0.0,0.0,0.0,0.0,0.0,8.0439,8.0468,8.0323,8.0294,8.0294,8.0294,8.012,8.012,8.0294,8.0904,8.1281,8.1484,8.2326,8.2965,8.3429,8.3429,8.3711,8.4118,8.4118,8.4562,8.5287,8.4649,8.5142,8.6282,8.6282,8.6282,8.6398,8.7501,8.7907,8.7907,8.7907,8.7907,8.8095,8.9401,9.0383,9.126,9.2478,9.3524,9.4319,9.4319,9.4469,9.4618,9.4618,9.4618,9.4618,9.4618,9.4618,9.4798,9.5456,9.5987,9.6316,9.6316,9.6593,9.6803,9.6615,9.767,9.8516,9.8516,9.7259,9.684,9.8306,9.8516,9.8516,9.8516,10.0306,10.2512,10.5001,10.6395,10.7108,10.7108,10.8398,10.9101,10.9101,10.9101,10.9101,10.9101,10.9101,10.9101,10.9101,10.9101,10.9101,10.912,10.859,10.849,0.0,0.0,0.0,0.0,0.0,0.0,0.0,5.6926,0.0,0.0,7.1394,0.0,0.0,0.0,0.0,0.0,0.0,0.0,0.0,0.0,0.0,0.0,0.0,0.0,0.0,8.0294,8.0294,8.0294,8.0294,8.0294,8.0294,8.0294,8.0294,8.0294,8.0033,8.0033,8.0294,8.0904,8.1339,8.163,8.253,8.3218,8.3595,8.3595,8.3769,8.4118,8.4118,8.4495,8.5047,8.4379,8.4707,8.5644,8.5905,8.6,8.6174,8.7733,8.8139,8.7936,8.8198,8.8139,8.8124,8.9542,9.0583,9.1564,9.2898,9.3899,9.4618,9.4618,9.4618,9.4618,9.4618,9.4618,9.4618,9.4618,9.4618,9.4798,9.5456,9.5965,9.6436,9.6885,9.7401,9.7648,9.7431,9.803,9.8516,9.8516,9.8516,9.7708,9.5494,9.714,9.8516,9.8516,9.8516,9.9955,10.3493,10.5394,10.6688,10.7501,10.8478,10.9101,10.9101,10.9101,10.9101,10.9101,10.9101,10.9101,10.9101,10.9101,10.9101,10.912,10.8689,10.8722,4.0234,0.0,0.0,0.0,0.0,0.0,5.5155,5.681,5.8668,0.0,0.0,0.0,0.0,0.0,0.0,0.0,0.0,0.0,0.0,0.0,0.0,0.0,0.0,0.0,8.0091,8.0149,8.0178,8.0178,8.0265,8.0294,8.0294,8.0294,8.0294,8.0294,7.9714,7.9685,8.0294,8.0962,8.1601,8.223,8.3487,8.4118,8.4118,8.4118,8.4118,8.4118,8.4176,8.4553,8.5076,8.4553,8.462,8.5142,8.576,8.6,8.6253,8.8161,8.848,8.7994,8.8676,8.8495,8.8175,8.9392,9.0513,9.1585,9.275,9.3786,9.4618,9.4618,9.4618,9.4618,9.4618,9.4618,9.4618,9.4618,9.4618,9.4798,9.5456,9.5815,9.6294,9.7311,9.8037,9.8516,9.8516,9.8516,9.8516,9.8516,9.8516,9.681,9.2062,9.5584,9.8516,9.8516,9.8516,9.9779,10.2911,10.5082,10.6915,10.8403,10.8915,10.9101,10.9101,10.9101,10.9101,10.9101,10.9101,10.9101,10.9101,10.9101,10.9101,10.9101,10.9101,10.9101,4.3438,4.4153,4.5093,0.0,0.0,0.0,0.0,4.7619,5.1191,0.0,5.8247,0.0,0.0,0.0,0.0,0.0,0.0,0.0,0.0,0.0,0.0,0.0,0.0,0.0,7.8785,7.922,7.9511,7.9511,8.0004,8.0294,8.0294,8.0294,8.0294,8.0294,8.0178,8.0178,8.0294,8.1426,8.2065,8.223,8.3487,8.4118,8.4118,8.4118,8.4118,8.4147,8.4669,8.4989,8.5134,8.5469,8.5432,8.5142,8.576,8.6,8.6253,8.8161,8.848,8.7994,8.8676,8.8712,8.8728,9.0424,9.1349,9.2097,9.3739,9.4412,9.4618,9.4618,9.4618,9.4618,9.4618,9.4618,9.4618,9.4618,9.4618,9.4798,9.5456,9.6047,9.6675,9.7393,9.8037,9.8516,9.8516,9.8516,9.8516,9.8516,9.8516,9.8127,9.708,9.7858,9.8516,9.8516,9.8516,9.8801,9.9477,10.3411,10.5506,10.4924,10.7501,10.9101,10.9101,10.9101,10.9101,10.9101,10.9101,10.9101,10.9101,10.9101,10.9101,10.9101,10.9101,10.9101,4.5064,4.5372,4.6348,4.6348,0.0,0.0,0.0,0.0,4.9332,5.4778,5.5113,0.0,0.0,0.0,0.0,0.0,0.0,0.0,0.0,0.0,0.0,0.0,0.0,0.0,7.8407,7.8669,7.8988,7.9278,7.9598,7.9946,8.0265,8.0294,8.0294,8.0294,8.0294,8.0294,8.0294,8.1543,8.2181,8.223,8.3487,8.4118,8.4118,8.4118,8.4118,8.4147,8.4815,8.5105,8.5142,8.576,8.5818,8.5615,8.6274,8.6688,8.7124,8.8444,8.8705,8.8451,8.8793,8.8755,8.8907,9.0701,9.1567,9.2255,9.4048,9.4618,9.4618,9.4618,9.4618,9.4618,9.4618,9.4618,9.4618,9.4618,9.4618,9.4708,9.5037,9.5366,9.5815,9.6563,9.7319,9.7977,9.8426,9.8516,9.8516,9.8516,9.8516,9.8516,9.8516,9.8516,9.8516,9.8516,9.8516,9.8516,9.8516,10.1791,10.4202,10.5001,10.7596,10.9101,10.9101,10.9101,10.9101,10.9101,10.9101,10.9101,10.9101,10.9101,10.9101,10.9101,10.9101,10.9101,0.0,0.0,0.0,0.0,0.0,4.7608,0.0,0.0,0.0,5.3965,0.0,0.0,0.0,0.0,0.0,0.0,0.0,0.0,0.0,0.0,0.0,0.0,0.0,0.0,0.0,7.7246,7.7682,7.9017,7.8436,7.8611,8.0033,8.012,8.0178,8.0294,8.0294,8.0294,8.0294,8.1543,8.2181,8.223,8.3487,8.4118,8.4118,8.4118,8.4176,8.435,8.4968,8.5345,8.5511,8.6108,8.6369,8.6427,8.6826,8.7377,8.7965,8.8626,8.8909,8.8909,8.8909,8.882,8.8985,9.0597,9.1602,9.2511,9.41,9.4618,9.4618,9.4618,9.4618,9.4618,9.4618,9.4618,9.4618,9.4618,9.4618,9.4618,9.4618,9.4708,9.5007,9.5725,9.6571,9.7379,9.8007,9.8336,9.8516,9.8516,9.8516,9.8516,9.8516,9.8516,9.8516,9.8516,9.8516,9.8778,9.9477,10.1278,10.3482,10.6206,10.8086,10.9101,10.9101,10.9101,10.9101,10.9101,10.9101,10.9101,10.9101,10.9101,10.9101,10.9101,10.9101,10.9101,0.0,0.0,0.0,0.0,5.241,0.0,0.0,0.0,0.0,4.6748,0.0,0.0,0.0,0.0,0.0,0.0,0.0,0.0,0.0,0.0,0.0,0.0,0.0,0.0,0.0,7.3124,7.4129,7.8204,7.5312,7.5109,7.9191,7.9423,7.9685,8.0265,8.0294,8.0294,8.0294,8.1543,8.2181,8.223,8.3487,8.4118,8.4118,8.4118,8.4437,8.5018,8.5615,8.6224,8.6847,8.7443,8.7675,8.7646,8.7174,8.7377,8.7965,8.8626,8.8909,8.8909,8.8909,8.9035,8.9352,9.0144,9.1778,9.3558,9.4357,9.4618,9.4618,9.4618,9.4618,9.4618,9.4618,9.4618,9.4618,9.4618,9.4618,9.4618,9.4618,9.5067,9.5516,9.5606,9.6473,9.7132,9.6855,9.776,9.8516,9.8516,9.8516,9.8516,9.8516,9.8516,9.8516,9.8516,9.8516,9.9779,10.289,10.3379,10.4395,10.6297,10.8086,10.9101,10.9101,10.9101,10.9101,10.9101,10.9101,10.9101,10.9101,10.9101,10.9101,10.9101,10.9101,10.9101,0.0,0.0,0.0,0.0,0.0,0.0,0.0,0.0,4.6853,0.0,0.0,0.0,0.0,0.0,0.0,0.0,0.0,0.0,0.0,0.0,0.0,0.0,0.0,0.0,0.0,0.0,0.0,0.0,7.3182,7.385,7.7972,7.8901,7.9598,8.0265,8.0294,8.0294,8.0294,8.1543,8.2181,8.223,8.3487,8.4118,8.4118,8.4118,8.4466,8.5134,8.5731,8.6369,8.705,8.7646,8.7907,8.7878,8.7617,8.811,8.8981,8.8938,8.9141,8.9409,8.9409,8.9634,9.0133,9.1702,9.3113,9.4229,9.4528,9.4618,9.4618,9.4618,9.4618,9.4618,9.4618,9.4618,9.4618,9.4618,9.4618,9.4618,9.4618,9.4828,9.5037,9.5037,9.5995,9.6795,9.6615,9.767,9.8516,9.8516,9.8516,9.8516,9.8516,9.8516,9.8516,9.8516,9.8516,9.9106,10.0594,10.4508,10.6584,10.6014,10.7915,10.9101,10.9101,10.9101,10.9101,10.9101,10.9101,10.9101,10.9101,10.9101,10.9101,10.9101,10.9101,10.9101,5.7725,0.0,0.0,0.0,0.0,0.0,0.0,0.0,0.0,0.0,0.0,0.0,0.0,0.0,0.0,0.0,0.0,0.0,0.0,0.0,0.0,0.0,0.0,0.0,0.0,0.0,0.0,0.0,0.0,7.1342,7.6608,7.7914,7.8988,7.9975,8.0207,8.0294,8.0294,8.1368,8.2007,8.221,8.3313,8.3923,8.4118,8.4292,8.4736,8.5374,8.5992,8.6652,8.729,8.7704,8.7907,8.7907,8.7907,8.8691,8.9736,8.9141,8.9409,9.0055,8.9852,9.0138,9.0876,9.2934,9.393,9.4349,9.4558,9.4618,9.4618,9.4618,9.4618,9.4618,9.4618,9.4618,9.4618,9.4618,9.4618,9.4618,9.4618,9.4618,9.4618,9.4618,9.5576,9.6496,9.6735,9.773,9.8516,9.8516,9.8516,9.8516,9.8516,9.8516,9.8516,9.8516,9.8516,9.8516,9.8516,10.3213,10.629,10.6506,10.8209,10.9101,10.9101,10.9101,10.9101,10.9101,10.9101,10.9101,10.9101,10.9101,10.9101,10.9101,10.9101,10.9101,0.0,0.0,0.0,0.0,0.0,0.0,0.0,0.0,4.9383,0.0,0.0,0.0,0.0,0.0,0.0,0.0,0.0,0.0,0.0,0.0,0.0,0.0,0.0,0.0,0.0,0.0,0.0,0.0,0.0,0.0,7.508,7.622,7.741,7.9278,7.9975,8.0294,8.0294,8.0904,8.1543,8.221,8.2907,8.3517,8.4118,8.4786,8.5403,8.6021,8.6681,8.7319,8.7878,8.7907,8.7907,8.7907,8.7907,8.8691,8.9736,8.9141,8.97,9.0664,9.0026,9.038,9.1453,9.3083,9.3622,9.3772,9.4409,9.4618,9.4618,9.4618,9.4618,9.4618,9.4618,9.4618,9.4618,9.4618,9.4618,9.4618,9.4618,9.4618,9.4618,9.4618,9.5336,9.6182,9.702,9.7917,9.8516,9.8516,9.8516,9.8516,9.8516,9.8516,9.8516,9.8516,9.8516,9.8516,9.8516,9.8711,10.1697,10.8601,10.9116,10.9101,10.9101,10.9101,10.9101,10.9101,10.9101,10.9101,10.9101,10.9101,10.9101,10.9101,10.9101,10.9101,0.0,0.0,6.6883,6.0264,0.0,0.0,0.0,0.0,0.0,0.0,0.0,0.0,0.0,0.0,0.0,0.0,0.0,0.0,0.0,0.0,0.0,0.0,0.0,0.0,0.0,0.0,0.0,0.0,6.2732,0.0,0.0,7.4797,7.6724,7.864,7.9743,8.0294,8.0294,8.1339,8.1978,8.221,8.3284,8.3914,8.4118,8.4786,8.5432,8.605,8.671,8.7348,8.7907,8.7907,8.7907,8.7936,8.8393,8.9061,8.9765,8.9584,9.0055,9.0841,9.1242,9.1894,9.2723,9.3867,9.4259,9.4289,9.4528,9.4618,9.4618,9.4618,9.4618,9.4618,9.4618,9.4618,9.4618,9.4618,9.4618,9.4618,9.4618,9.4618,9.4618,9.4618,9.5217,9.6025,9.702,9.7917,9.8516,9.8516,9.8516,9.8516,9.8516,9.8516,9.8516,9.8516,9.8516,9.8516,9.8516,10.2796,10.6506,10.8886,10.9101,10.9101,10.9101,10.9101,10.9101,10.9101,10.9101,10.9101,10.9101,10.9101,10.9101,10.9101,10.9101,10.9101,7.1208,7.1313,0.0,0.0,6.2122,0.0,0.0,0.0,0.0,0.0,0.0,0.0,0.0,0.0,0.0,0.0,0.0,0.0,0.0,0.0,0.0,0.0,0.0,0.0,0.0,0.0,5.5329,6.0148,5.9829,0.0,0.0,0.0,7.5127,7.7304,7.9046,8.0062,8.0294,8.1339,8.1949,8.221,8.3255,8.3894,8.4147,8.5026,8.5615,8.605,8.6942,8.7552,8.7907,8.7907,8.8023,8.8306,8.8734,8.9409,9.0171,9.0171,9.0577,9.1285,9.2232,9.2857,9.3343,9.4285,9.4618,9.4618,9.4618,9.4618,9.4618,9.4618,9.4618,9.4618,9.4618,9.4618,9.4678,9.4917,9.4768,9.4678,9.4917,9.4768,9.4618,9.4618,9.5127,9.5815,9.6533,9.7678,9.8516,9.8516,9.8516,9.8516,9.8516,9.8516,9.8516,9.8516,9.8516,9.9521,10.2099,10.6499,10.9101,10.9101,10.9101,10.9101,10.9101,10.9101,10.9101,10.9101,10.9101,10.9101,10.9101,10.9101,10.9101,10.9101,10.9101,10.9101]},{"header":{"parameterUnit":"m.s-1","parameterCategory":1,"la1":30.6,"la2":29.2853,"lo1":-89.7004,"lo2":-87.6739,"dy":0.0162,"dx":0.0183,"nx":112,"ny":82,"refTime":"2026-04-17T00:00:00:Z","depth":0,"parameterNumber":3,"parameterNumberName":"V-component_of_WINDS"},"data":[0.0,0.0,0.0,0.0,0.0,0.0,0.0,0.0,0.0,0.0,0.0,0.0,0.0,0.0,0.0,0.0,0.0,0.0,0.0,0.0,0.0,0.0,0.0,0.0,0.0,0.0,0.0,0.0,0.0,0.0,0.0,0.0,0.0,0.0,0.0,0.0,0.0,0.0,0.0,0.0,0.0,0.0,0.0,0.0,0.0,0.0,0.0,0.0,0.0,0.0,0.0,0.0,0.0,0.0,0.0,0.0,0.0,0.0,0.0,0.0,0.0,0.0,0.0,0.0,0.0,0.0,0.0,0.0,0.0,0.0,0.0,0.0,0.0,0.0,0.0,0.0,0.0,0.0,0.0,0.0,0.0,0.0,0.0,0.0,0.0,0.0,0.0,0.0,0.0,0.0,0.0,2.4644,2.7573,2.93,2.9081,2.8788,2.7071,2.3486,0.0,0.0,0.0,0.0,0.0,0.0,0.0,0.0,0.0,0.0,0.0,0.0,0.0,0.0,0.0,0.0,0.0,0.0,0.0,0.0,0.0,0.0,0.0,0.0,0.0,0.0,0.0,0.0,0.0,0.0,0.0,0.0,0.0,0.0,0.0,0.0,0.0,0.0,0.0,0.0,0.0,0.0,0.0,0.0,0.0,0.0,0.0,0.0,0.0,0.0,0.0,0.0,0.0,0.0,0.0,0.0,0.0,0.0,0.0,0.0,0.0,0.0,0.0,0.0,0.0,0.0,0.0,0.0,0.0,0.0,0.0,0.0,0.0,0.0,0.0,0.0,0.0,0.0,0.0,0.0,0.0,0.0,0.0,0.0,0.0,0.0,0.0,0.0,0.0,0.0,0.0,0.0,0.0,0.0,0.0,0.0,0.0,0.0,0.0,0.0,0.0,0.0,0.0,0.0,2.3429,2.77,2.8905,2.9491,2.9731,2.8232,2.6325,2.4088,0.0,0.0,0.0,0.0,0.0,0.0,0.0,0.0,0.0,0.0,0.0,0.0,0.0,0.0,0.0,0.0,0.0,0.0,0.0,0.0,0.0,0.0,0.0,0.0,0.0,0.0,0.0,0.0,0.0,0.0,0.0,0.0,0.0,0.0,0.0,0.0,0.0,0.0,0.0,0.0,0.0,0.0,0.0,0.0,0.0,0.0,0.0,0.0,0.0,0.0,0.0,0.0,0.0,0.0,0.0,0.0,0.0,0.0,0.0,0.0,0.0,0.0,0.0,0.0,0.0,0.0,0.0,0.0,0.0,0.0,0.0,0.0,0.0,0.0,0.0,0.0,0.0,0.0,0.0,0.0,0.0,0.0,0.0,0.0,0.0,0.0,0.0,0.0,0.0,0.0,0.0,0.0,0.0,0.0,0.0,0.0,0.0,0.0,0.0,0.0,0.0,0.0,0.0,2.2535,2.479,2.8744,2.9462,3.0091,3.1121,2.9098,2.7083,2.5504,2.3499,0.0,0.0,0.0,0.0,0.0,0.0,0.0,0.0,0.0,0.0,0.0,0.0,0.0,0.0,0.0,0.0,0.0,0.0,0.0,0.0,0.0,0.0,0.0,0.0,0.0,0.0,0.0,0.0,0.0,0.0,0.0,0.0,0.0,0.0,0.0,0.0,0.0,0.0,0.0,0.0,0.0,0.0,0.0,0.0,0.0,0.0,0.0,0.0,0.0,0.0,0.0,0.0,0.0,0.0,0.0,0.0,0.0,0.0,0.0,0.0,0.0,0.0,0.0,0.0,0.0,0.0,0.0,0.0,0.0,0.0,0.0,0.0,0.0,0.0,0.0,0.0,0.0,0.0,0.0,0.0,0.0,0.0,0.0,0.0,0.0,0.0,0.0,0.0,0.0,0.0,0.0,0.0,0.0,0.0,0.0,0.0,0.0,0.0,0.0,0.0,0.0,0.0,2.4981,2.6694,2.9803,2.9986,3.0716,3.2737,2.9973,2.7681,2.6584,2.37,0.0,0.0,0.0,0.0,0.0,0.0,0.0,0.0,0.0,0.0,0.0,0.0,0.0,0.0,0.0,0.0,0.0,0.0,0.0,0.0,0.0,0.0,0.0,0.0,0.0,0.0,0.0,0.0,0.0,0.0,0.0,0.0,0.0,0.0,0.0,0.0,0.0,0.0,0.0,0.0,0.0,0.0,0.0,0.0,0.0,0.0,0.0,0.0,0.0,0.0,0.0,0.0,0.0,0.0,0.0,0.0,0.0,0.0,0.0,0.0,0.0,0.0,0.0,0.0,0.0,0.0,0.0,0.0,0.0,0.0,0.0,0.0,0.0,0.0,0.0,0.0,0.0,0.0,0.0,0.0,0.0,0.0,0.0,0.0,0.0,0.0,0.0,0.0,0.0,0.0,0.0,0.0,0.0,0.0,0.0,0.0,0.0,0.0,0.0,0.0,0.0,0.0,2.6088,2.9194,3.1984,3.0861,3.1221,3.4452,3.0213,2.7123,2.6552,2.3445,0.0,0.0,0.0,0.0,0.0,0.0,0.0,0.0,0.0,0.0,0.0,0.0,0.0,0.0,0.0,0.0,0.0,0.0,0.0,0.0,0.0,0.0,0.0,0.0,0.0,0.0,0.0,0.0,0.0,0.0,0.0,0.0,0.0,0.0,0.0,0.0,0.0,0.0,0.0,0.0,0.0,0.0,0.0,0.0,0.0,0.0,0.0,0.0,0.0,0.0,0.0,0.0,0.0,0.0,0.0,0.0,0.0,0.0,0.0,0.0,0.0,0.0,0.0,0.0,0.0,0.0,0.0,0.0,0.0,0.0,0.0,0.0,0.0,0.0,0.0,0.0,0.0,0.0,0.0,0.0,0.0,0.0,0.0,0.0,0.0,0.0,0.0,0.0,0.0,0.0,0.0,0.0,0.0,0.0,0.0,0.0,0.0,0.0,0.0,0.0,0.0,0.0,2.7651,3.1204,0.0,3.3138,3.4314,3.6586,3.3437,3.0411,2.8192,0.0,0.0,0.0,0.0,0.0,0.0,0.0,0.0,0.0,0.0,0.0,0.0,0.0,0.0,0.0,0.0,0.0,0.0,0.0,0.0,0.0,0.0,0.0,0.0,0.0,0.0,0.0,0.0,0.0,0.0,0.0,0.0,0.0,0.0,0.0,0.0,0.0,0.0,0.0,0.0,0.0,0.0,0.0,0.0,0.0,0.0,0.0,0.0,0.0,0.0,0.0,0.0,0.0,0.0,0.0,0.0,0.0,0.0,0.0,0.0,0.0,0.0,0.0,0.0,0.0,0.0,0.0,0.0,0.0,0.0,0.0,0.0,0.0,0.0,0.0,0.0,0.0,0.0,0.0,0.0,0.0,0.0,0.0,0.0,0.0,0.0,0.0,0.0,0.0,0.0,0.0,0.0,0.0,0.0,0.0,0.0,0.0,0.0,0.0,0.0,0.0,0.0,2.4424,2.9477,3.3561,0.0,3.5952,3.727,3.9584,3.6515,3.3028,2.9661,0.0,0.0,0.0,0.0,0.0,0.0,0.0,0.0,0.0,0.0,0.0,0.0,0.0,0.0,0.0,0.0,0.0,0.0,0.0,0.0,0.0,0.0,0.0,0.0,0.0,0.0,0.0,0.0,0.0,0.0,0.0,0.0,0.0,0.0,0.0,0.0,0.0,0.0,0.0,0.0,0.0,0.0,0.0,0.0,0.0,0.0,0.0,0.0,0.0,0.0,0.0,0.0,0.0,0.0,0.0,0.0,0.0,0.0,0.0,0.0,0.0,0.0,0.0,0.0,0.0,0.0,0.0,0.0,0.0,0.0,0.0,0.0,0.0,0.0,0.0,0.0,0.0,0.0,0.0,0.0,0.0,0.0,0.0,0.0,0.0,0.0,0.0,0.0,0.0,0.0,0.0,0.0,0.0,0.0,0.0,0.0,0.0,0.0,0.0,0.0,0.0,0.0,2.6593,3.16,3.648,4.0303,3.9215,3.9704,4.3479,3.8994,3.4393,0.0,0.0,0.0,0.0,0.0,0.0,0.0,0.0,0.0,0.0,0.0,0.0,0.0,0.0,0.0,0.0,0.0,0.0,0.0,0.0,0.0,0.0,0.0,0.0,0.0,0.0,0.0,0.0,0.0,0.0,0.0,0.0,0.0,0.0,0.0,0.0,0.0,0.0,0.0,0.0,0.0,0.0,0.0,0.0,0.0,0.0,0.0,0.0,0.0,0.0,0.0,0.0,0.0,0.0,0.0,0.0,0.0,0.0,0.0,0.0,0.0,0.0,0.0,0.0,0.0,0.0,0.0,0.0,0.0,0.0,0.0,0.0,0.0,0.0,0.0,0.0,0.0,0.0,0.0,0.0,0.0,0.0,0.0,0.0,0.0,0.0,0.0,0.0,0.0,0.0,0.0,0.0,0.0,0.0,0.0,0.0,0.0,0.0,0.0,0.0,0.0,0.0,0.0,0.0,3.5887,4.1384,4.1912,4.2909,4.3711,4.4175,4.188,3.7852,3.1833,0.0,0.0,0.0,0.0,0.0,0.0,0.0,0.0,0.0,0.0,0.0,0.0,0.0,0.0,0.0,0.0,0.0,0.0,0.0,0.0,0.0,0.0,0.0,0.0,0.0,0.0,0.0,0.0,0.0,0.0,0.0,0.0,0.0,0.0,0.0,0.0,0.0,0.0,0.0,0.0,0.0,0.0,0.0,0.0,0.0,0.0,0.0,0.0,0.0,0.0,0.0,0.0,0.0,0.0,0.0,0.0,0.0,0.0,0.0,0.0,0.0,0.0,0.0,0.0,0.0,0.0,0.0,0.0,0.0,0.0,0.0,0.0,0.0,0.0,0.0,0.0,0.0,0.0,0.0,0.0,0.0,0.0,0.0,0.0,0.0,0.0,0.0,0.0,0.0,0.0,0.0,0.0,0.0,0.0,0.0,0.0,0.0,0.0,0.0,0.0,0.0,0.0,3.08,3.8764,4.4482,4.5057,4.6314,4.6883,4.6332,4.4813,4.0971,3.4145,0.0,0.0,0.0,0.0,0.0,0.0,0.0,0.0,0.0,0.0,0.0,0.0,0.0,0.0,0.0,0.0,0.0,0.0,0.0,0.0,0.0,0.0,0.0,0.0,0.0,0.0,0.0,0.0,0.0,0.0,0.0,0.0,0.0,0.0,0.0,0.0,0.0,0.0,0.0,0.0,0.0,0.0,0.0,0.0,0.0,0.0,0.0,0.0,0.0,0.0,0.0,0.0,0.0,0.0,0.0,0.0,0.0,0.0,0.0,0.0,0.0,0.0,0.0,0.0,0.0,0.0,0.0,0.0,0.0,0.0,0.0,0.0,0.0,0.0,0.0,0.0,0.0,0.0,0.0,0.0,0.0,0.0,0.0,0.0,0.0,0.0,0.0,0.0,0.0,0.0,0.0,0.0,0.0,0.0,0.0,0.0,0.0,0.0,0.0,0.0,0.0,0.0,3.3806,4.0678,4.6326,4.8935,4.9246,4.9247,4.9122,4.7424,4.3588,3.7075,0.0,0.0,0.0,0.0,0.0,0.0,0.0,0.0,0.0,0.0,0.0,0.0,0.0,0.0,0.0,0.0,0.0,0.0,0.0,0.0,0.0,0.0,0.0,0.0,0.0,0.0,0.0,0.0,0.0,0.0,0.0,0.0,0.0,0.0,0.0,0.0,0.0,0.0,0.0,0.0,0.0,0.0,0.0,0.0,0.0,0.0,0.0,0.0,0.0,0.0,0.0,0.0,0.0,0.0,0.0,0.0,0.0,0.0,0.0,0.0,3.0753,0.0,0.0,0.0,0.0,0.0,0.0,0.0,0.0,0.0,0.0,0.0,0.0,0.0,0.0,0.0,0.0,0.0,0.0,0.0,0.0,0.0,0.0,0.0,0.0,0.0,0.0,0.0,0.0,0.0,0.0,0.0,0.0,0.0,0.0,0.0,0.0,0.0,0.0,0.0,0.0,0.0,3.6299,4.314,4.8314,4.9949,5.0446,5.0261,4.9184,4.7734,4.4497,3.8952,0.0,0.0,0.0,0.0,0.0,0.0,0.0,0.0,0.0,0.0,0.0,0.0,0.0,0.0,0.0,0.0,0.0,0.0,0.0,0.0,0.0,0.0,0.0,0.0,0.0,0.0,0.0,0.0,0.0,0.0,0.0,0.0,0.0,0.0,0.0,0.0,0.0,0.0,0.0,0.0,0.0,0.0,0.0,0.0,0.0,0.0,0.0,0.0,0.0,0.0,0.0,0.0,0.0,0.0,0.0,0.0,0.0,0.0,0.0,0.0,0.0,3.2374,0.0,0.0,0.0,0.0,0.0,0.0,0.0,0.0,0.0,0.0,0.0,0.0,0.0,0.0,0.0,0.0,0.0,0.0,0.0,0.0,0.0,0.0,0.0,0.0,0.0,0.0,0.0,0.0,0.0,0.0,0.0,0.0,0.0,0.0,0.0,0.0,0.0,0.0,0.0,0.0,3.8084,4.4514,4.9329,5.0922,5.1294,5.0984,4.9825,4.8666,4.608,4.159,3.8195,0.0,0.0,0.0,0.0,0.0,0.0,0.0,0.0,0.0,0.0,0.0,0.0,0.0,0.0,0.0,0.0,0.0,0.0,0.0,0.0,0.0,0.0,0.0,0.0,0.0,0.0,0.0,0.0,0.0,0.0,0.0,0.0,0.0,0.0,0.0,0.0,0.0,0.0,0.0,0.0,0.0,0.0,0.0,0.0,0.0,0.0,0.0,0.0,0.0,0.0,0.0,0.0,0.0,0.0,4.11,4.2474,4.2976,4.3118,4.2847,3.9409,3.7432,3.6509,0.0,0.0,0.0,0.0,0.0,0.0,0.0,0.0,0.0,0.0,0.0,0.0,0.0,0.0,0.0,0.0,0.0,0.0,0.0,0.0,0.0,0.0,0.0,0.0,0.0,3.7144,3.8189,0.0,0.0,0.0,0.0,0.0,0.0,0.0,0.0,0.0,0.0,0.0,0.0,3.9744,4.549,4.9867,5.1626,5.1791,5.1419,5.0486,4.9681,4.7713,4.4194,4.0951,3.7599,0.0,0.0,0.0,0.0,0.0,0.0,0.0,0.0,0.0,0.0,0.0,0.0,0.0,0.0,0.0,0.0,0.0,0.0,0.0,0.0,0.0,0.0,0.0,0.0,0.0,0.0,0.0,0.0,0.0,0.0,0.0,0.0,2.8897,2.9477,0.0,0.0,0.0,0.0,0.0,0.0,0.0,0.0,0.0,0.0,0.0,0.0,0.0,0.0,4.0755,4.3244,4.4756,4.5355,4.7341,4.8417,4.8625,4.8707,4.8728,4.8687,4.8148,0.0,4.0371,3.9982,0.0,0.0,0.0,0.0,0.0,0.0,0.0,0.0,0.0,0.0,0.0,0.0,0.0,0.0,0.0,0.0,0.0,0.0,0.0,0.0,0.0,0.0,4.2715,4.2217,4.2856,4.3232,0.0,3.6203,3.0846,2.8748,0.0,0.0,0.0,0.0,0.0,0.0,0.0,0.0,4.1938,4.672,5.0262,5.1646,5.1791,5.1419,5.0486,4.9971,4.848,4.5601,4.3139,4.0424,3.7307,3.3821,0.0,0.0,0.0,0.0,0.0,0.0,0.0,0.0,0.0,0.0,0.0,0.0,0.0,0.0,0.0,0.0,0.0,0.0,0.0,0.0,0.0,0.0,0.0,0.0,0.0,0.0,0.0,0.0,0.0,2.9071,3.1112,3.0815,3.1498,3.1229,0.0,0.0,0.0,0.0,0.0,0.0,0.0,0.0,0.0,4.2329,4.3203,4.4444,4.6201,4.7631,4.8831,4.9803,5.084,5.171,5.2454,5.2454,5.2454,5.2454,5.2454,5.071,4.767,4.4797,4.214,3.9684,0.0,0.0,0.0,0.0,0.0,3.7468,3.9537,0.0,0.0,0.0,0.0,0.0,0.0,0.0,0.0,0.0,0.0,0.0,0.0,0.0,0.0,4.5603,4.6264,4.6492,4.5995,4.2791,3.8843,0.0,3.3577,3.1985,2.8788,0.0,0.0,0.0,0.0,0.0,4.3553,4.7424,5.0302,5.1646,5.1564,5.1127,5.0444,5.0033,4.8832,4.6555,4.5042,4.3037,4.0448,3.7315,3.445,0.0,0.0,0.0,0.0,0.0,0.0,0.0,0.0,0.0,0.0,0.0,0.0,0.0,0.0,0.0,0.0,0.0,0.0,0.0,0.0,0.0,0.0,0.0,0.0,0.0,0.0,0.0,0.0,3.1498,3.3457,3.2685,3.4315,3.446,0.0,0.0,0.0,0.0,0.0,0.0,4.0601,4.1715,4.3865,4.7341,4.7961,4.912,5.0985,5.1315,5.204,5.3178,5.3178,5.3778,5.4852,5.4852,5.4789,5.4686,5.481,5.442,5.3388,4.9038,4.6223,4.4463,4.2396,4.1302,4.0971,4.155,4.1899,4.2536,4.5394,4.585,4.5065,4.431,0.0,4.0596,3.7348,0.0,0.0,0.0,0.0,3.9572,4.2545,0.0,4.5673,4.7734,4.8583,4.8832,4.848,4.7568,4.5396,0.0,3.9119,3.7318,3.2851,0.0,0.0,0.0,0.0,4.1219,4.5003,4.8107,5.0426,5.1667,5.1377,5.09,5.0444,5.0033,4.9101,4.7465,4.6533,4.5187,4.3259,4.0649,3.8083,0.0,0.0,0.0,0.0,0.0,0.0,0.0,0.0,0.0,0.0,0.0,0.0,0.0,0.0,0.0,0.0,0.0,0.0,0.0,0.0,0.0,0.0,0.0,0.0,0.0,0.0,0.0,0.0,0.0,0.0,3.5919,3.7864,0.0,0.0,0.0,0.0,3.8348,4.1402,4.3989,4.5811,4.8416,5.0548,5.2102,5.2989,5.369,5.4272,5.4269,5.4541,5.5065,5.5065,5.5334,5.5831,5.5831,5.5583,5.5189,5.5645,5.5562,5.492,5.2495,5.0696,4.9309,4.7858,4.701,4.6534,4.6141,4.6555,4.7424,4.8045,4.7941,4.7817,4.9431,4.761,4.4444,4.2936,4.1242,0.0,0.0,4.2538,4.4278,4.5728,4.7465,4.8977,4.9557,4.999,5.0279,5.0258,4.9224,4.732,0.0,4.264,4.1146,3.827,0.0,0.0,3.8451,4.0867,4.372,4.6534,4.8934,5.0756,5.1708,5.1377,5.09,5.0444,5.0033,4.9392,4.8397,4.7444,4.6513,4.558,4.3321,4.1004,3.8621,3.48,0.0,0.0,0.0,0.0,0.0,0.0,0.0,0.0,0.0,0.0,0.0,0.0,0.0,0.0,0.0,0.0,0.0,0.0,0.0,0.0,0.0,0.0,0.0,0.0,0.0,0.0,0.0,0.0,3.9223,4.1961,0.0,0.0,4.1462,4.2393,4.318,4.5933,4.8252,4.9762,5.1336,5.2826,5.4172,5.4544,5.4938,5.5393,5.5393,5.5766,5.649,5.649,5.6904,5.7629,5.7318,5.6945,5.649,5.639,5.5914,5.5169,5.4651,5.3613,5.2203,5.0549,4.9804,4.9617,4.9451,4.9782,5.0404,5.0882,5.0944,5.0694,5.0178,4.8935,4.732,4.5603,4.4838,4.4651,4.4982,4.5975,4.7196,4.8273,4.9245,5.0052,5.0551,5.0756,5.0838,5.0838,5.0487,4.9535,4.7527,4.5705,4.3696,4.127,4.1669,4.2044,4.1172,4.3347,4.5768,4.7651,4.9142,5.0239,5.0839,5.053,5.0199,5.0033,4.9329,4.8625,4.7983,4.7072,4.6161,4.529,4.3884,4.2186,4.0199,3.767,3.4217,0.0,0.0,0.0,0.0,0.0,0.0,0.0,0.0,0.0,0.0,0.0,0.0,0.0,0.0,0.0,0.0,0.0,0.0,0.0,0.0,0.0,0.0,0.0,0.0,0.0,0.0,4.206,4.206,4.5271,4.6699,4.4712,4.5912,4.7072,4.7693,5.0012,5.1895,5.3116,5.4048,5.502,5.6076,5.6262,5.6515,5.6825,5.6825,5.709,5.7666,5.7666,5.7914,5.8348,5.8038,5.7562,5.7008,5.6863,5.639,5.5686,5.5831,5.5434,5.4583,5.3075,5.2474,5.2474,5.2307,5.2431,5.272,5.2888,5.3031,5.2909,5.1255,5.0488,4.9971,4.8396,4.8148,4.8355,4.821,4.8728,4.9453,5.0074,5.0549,5.0941,5.1274,5.1336,5.1336,5.1336,5.1189,5.0839,4.995,4.819,4.6222,4.4234,4.4753,4.4981,4.3653,4.5478,4.7299,4.8065,4.9122,4.995,5.0341,5.0054,4.9806,4.9806,4.8645,4.7858,4.7713,4.6244,4.521,4.4774,4.3428,4.2042,4.0696,3.8125,3.4912,3.1024,0.0,0.0,0.0,0.0,0.0,0.0,0.0,0.0,0.0,0.0,0.0,0.0,0.0,0.0,0.0,0.0,0.0,0.0,0.0,0.0,0.0,0.0,0.0,3.697,4.1255,4.4443,4.4505,4.7713,4.9412,4.8065,4.9535,5.092,5.1853,5.3569,5.4976,5.5914,5.678,5.7459,5.7893,5.8348,5.8601,5.8601,5.8601,5.8601,5.8601,5.8601,5.8348,5.7914,5.7893,5.7422,5.6639,5.7028,5.6945,5.6535,5.6101,5.6183,5.6519,5.5562,5.521,5.5189,5.4707,5.4517,5.4479,5.4,5.4124,5.4314,5.2971,5.2536,5.2371,5.1439,5.1127,5.1046,5.0569,5.0755,5.1129,5.1129,5.146,5.1791,5.1791,5.1791,5.1791,5.1791,5.1439,5.1108,5.1108,5.0054,4.8707,4.732,4.7465,4.7341,4.6036,4.732,0.0,4.7817,4.8957,4.9929,5.032,5.0012,4.9765,4.9765,4.8065,4.7175,4.7631,4.5084,4.3782,4.4256,4.2143,4.0735,4.0268,3.6261,3.3207,3.1216,0.0,0.0,0.0,0.0,0.0,0.0,0.0,0.0,0.0,0.0,0.0,0.0,0.0,0.0,0.0,0.0,0.0,0.0,0.0,0.0,0.0,0.0,4.0403,4.0752,4.4234,4.7382,4.9017,5.1272,5.2826,5.3118,5.3595,5.411,5.4734,5.5803,5.6714,5.7318,5.7918,5.8266,5.839,5.8539,5.8601,5.8601,5.8601,5.8601,5.8601,5.8601,5.8539,5.8415,5.8063,5.7583,5.7003,5.6842,5.6515,5.6101,5.6308,5.6473,5.6519,5.5562,5.5417,5.5686,5.5559,5.5289,5.4979,5.4855,5.4896,5.4834,5.3776,5.3672,5.3714,5.2495,5.2122,5.2019,5.1543,5.1522,5.1605,5.1605,5.1708,5.1791,5.1791,5.1791,5.1791,5.1791,5.1439,5.1108,5.1108,5.0529,4.9928,4.9534,4.9575,4.9431,4.877,0.0,0.0,4.9247,4.9557,4.9723,4.9474,4.9371,4.9142,4.8811,4.7361,4.6555,0.0,4.4423,4.3306,4.3761,4.2578,4.185,4.1747,3.8001,3.5387,0.0,0.0,0.0,0.0,0.0,0.0,0.0,0.0,0.0,0.0,0.0,0.0,0.0,0.0,0.0,0.0,0.0,0.0,0.0,0.0,0.0,0.0,4.177,4.4566,4.5808,4.7983,5.0115,5.2017,5.3672,5.4979,5.5707,5.5931,5.6221,5.6697,5.7401,5.7976,5.8477,5.8746,5.8891,5.8891,5.8891,5.8995,5.9181,5.8995,5.9098,5.9471,5.9078,5.8788,5.8581,5.81,5.7645,0.0,5.6945,5.6697,5.6449,5.6556,5.6701,0.0,0.0,0.0,0.0,0.0,5.5893,5.5479,5.5272,5.521,5.5062,5.4334,5.4269,5.4293,5.3137,5.2785,5.264,5.1978,5.1791,5.1791,5.1791,5.1791,5.1791,5.1791,5.1791,5.1791,5.1791,5.1584,5.1398,5.1398,0.0,0.0,5.0713,5.0527,5.0197,4.9599,4.9682,4.9661,0.0,4.9557,4.9702,4.9433,4.9536,4.9514,4.9245,4.761,0.0,0.0,0.0,4.2414,4.1899,0.0,0.0,0.0,0.0,0.0,0.0,0.0,0.0,0.0,3.266,3.215,0.0,0.0,0.0,0.0,0.0,0.0,0.0,0.0,0.0,0.0,0.0,0.0,0.0,0.0,0.0,0.0,4.6041,4.9364,5.1445,5.2374,5.3146,5.3864,5.5403,5.6494,5.6726,5.7559,5.8072,5.8068,5.8665,5.9127,5.9373,0.0,0.0,0.0,0.0,5.974,6.0133,5.974,5.9885,6.0615,5.9781,5.9098,5.8601,5.8162,5.7707,5.7272,5.7272,5.7252,5.7169,5.6801,5.6863,5.721,5.721,5.721,5.7148,5.6805,5.637,0.0,0.0,0.0,0.0,5.4748,5.4624,5.4479,5.3551,5.3284,5.3075,5.2205,5.1957,5.1957,5.1957,5.1915,5.1874,5.1874,5.1874,5.1853,5.1812,5.1791,5.1791,5.1791,5.175,5.1605,5.1253,5.0775,5.0177,4.9308,4.9537,4.9495,4.8666,4.9308,4.9847,4.9806,0.0,0.0,5.032,4.8293,4.701,4.7092,4.4298,4.1915,4.0185,4.0123,3.9957,3.9585,3.9833,4.0389,4.1273,4.1687,4.2161,4.2456,3.6536,3.5359,0.0,0.0,0.0,0.0,0.0,0.0,0.0,0.0,0.0,0.0,0.0,0.0,0.0,0.0,0.0,4.4797,5.0346,5.478,5.5652,5.7865,5.8255,5.5282,5.7658,5.9045,5.7784,6.1208,6.2261,5.9252,6.0723,6.1208,5.9927,6.0216,0.0,6.0429,6.0728,6.0976,6.1059,6.0976,6.0645,6.0113,0.0,0.0,5.8601,5.8519,5.8229,5.7769,5.7769,5.7541,5.719,5.7107,5.7128,5.721,5.721,5.721,5.719,5.7107,5.6821,5.6453,5.6349,5.6328,5.6183,5.5331,5.531,5.5372,5.4086,5.3669,0.0,5.3075,5.2932,5.2932,5.2932,5.2663,5.235,5.235,5.235,5.2247,5.1874,5.1791,5.1791,5.1791,5.1501,5.1336,5.1626,5.1294,5.0673,4.9806,4.9744,4.9744,4.9557,4.9971,5.0156,4.9827,4.9868,4.993,4.993,4.8106,4.7175,4.7527,4.5995,4.4711,4.3967,4.3946,4.407,4.436,4.3327,4.3078,4.3635,4.3739,4.4008,4.4422,4.2033,4.1453,0.0,0.0,0.0,0.0,0.0,0.0,0.0,0.0,0.0,0.0,0.0,3.7636,0.0,0.0,4.7629,5.0456,5.4392,5.748,5.8548,6.0319,6.0885,5.9157,6.0954,6.2082,6.146,6.3804,6.4671,6.2981,6.4084,6.3998,6.2066,6.3214,6.334,6.1979,6.1927,6.2012,6.2267,6.095,6.032,6.032,5.9864,5.9409,5.8953,5.8726,5.8452,5.8245,5.8245,5.81,5.7872,5.7645,5.7417,5.721,5.721,5.721,5.721,5.721,5.6945,5.6598,5.6598,5.6432,5.6163,5.5707,5.5562,5.5352,5.4438,5.398,5.3711,5.3302,5.3201,5.3201,5.3201,5.3036,5.287,5.287,5.287,5.2808,5.2536,5.2495,5.2433,5.2185,5.1957,5.1729,5.1501,5.1253,5.1046,5.084,5.0613,5.0447,5.0447,5.0632,5.0673,5.0488,5.0654,5.0716,5.0468,4.8976,4.8045,4.8045,4.7196,4.6492,4.6017,4.5996,4.6099,4.6347,4.5892,4.5871,4.6367,4.6595,4.6823,4.7051,4.6574,4.6099,0.0,0.0,0.0,0.0,0.0,0.0,0.0,0.0,3.647,3.8475,4.0201,4.2535,4.643,4.9256,5.2179,5.5783,5.822,6.0044,6.12,6.236,6.3338,6.3945,6.455,6.4957,6.5051,6.6175,6.681,6.6572,6.715,6.663,6.4646,6.6203,6.6173,6.4014,6.3654,6.3698,6.407,6.1979,6.1058,6.1311,6.0558,5.9927,5.9409,5.9057,5.8829,5.8746,5.8643,5.8601,5.8581,5.8183,5.781,5.7479,5.7479,5.7479,5.7438,5.7272,5.7008,5.6722,5.6722,5.6473,5.6142,5.6059,5.5769,5.5372,5.4914,5.4438,5.4003,5.3675,5.3509,5.3447,5.3447,5.3385,5.3302,5.3302,5.3302,5.3305,5.3222,5.324,5.3178,5.2723,5.2642,5.2371,5.1522,5.1377,5.1419,5.1522,5.1212,5.0962,5.0962,5.1024,5.1108,5.1108,5.1439,5.1522,5.1127,5.0281,4.9515,4.8956,4.8583,4.8107,4.7568,4.7465,4.7444,4.7548,4.7817,4.8252,4.879,4.9163,4.9349,4.9349,4.9743,4.9267,3.2409,3.222,3.3692,3.6259,3.7807,3.9869,0.0,0.0,4.3587,4.7921,4.8384,4.8905,5.1823,5.5337,5.7696,5.7391,6.1765,6.5018,6.4476,6.6397,6.8048,6.8595,6.8013,6.7057,6.573,6.902,7.0056,6.7329,6.7993,6.8045,6.6891,6.6939,6.6891,6.657,6.6932,6.7158,6.7203,6.6928,6.5647,6.3448,6.3413,6.2191,5.9906,5.9864,5.9616,5.9202,5.8788,5.8601,5.8601,5.856,5.8498,5.8457,5.8457,5.8457,5.8328,5.75,5.7169,5.7128,5.7128,5.7086,5.6983,5.6639,5.6498,5.6349,5.5893,5.5417,5.502,5.5003,5.4689,5.4355,5.4355,5.4065,5.3731,5.3731,5.3731,5.3651,5.3261,5.3489,5.361,5.3199,5.3139,5.2974,5.2433,5.2329,5.1936,5.0734,5.0506,5.0465,5.0465,5.0838,5.1108,5.1108,5.115,5.117,5.1086,5.1729,5.1729,5.086,5.0756,5.0342,4.9515,4.908,4.906,4.9495,4.9143,4.9349,5.0175,5.0217,5.0237,5.0258,5.03,5.0052,3.768,3.833,0.0,0.0,4.3856,4.6213,4.8424,4.8557,4.9031,5.1851,5.2587,5.3574,5.6358,5.8403,6.0292,0.0,6.4754,6.6657,6.6998,6.8148,6.9054,6.9301,6.9511,6.9438,6.8892,7.0936,7.1938,7.1005,7.1319,7.0932,6.9561,7.034,7.0222,6.8914,6.8843,6.8796,6.8796,6.7552,6.6405,6.5293,6.4066,6.2923,6.1823,6.0568,5.9885,5.9699,5.9492,5.9264,5.9015,5.9015,5.885,5.8601,5.8601,5.8601,5.8535,5.8141,5.7831,5.7603,5.7603,5.7438,5.7169,5.7008,5.6805,5.6556,5.6349,5.5976,5.5604,5.5604,5.5479,5.531,5.531,5.5165,5.502,5.502,5.4813,5.4565,5.4402,5.4272,5.4086,5.3631,5.3548,5.3403,5.2971,5.2911,5.2702,5.2122,5.1564,5.1189,5.1189,5.1398,5.1522,5.1522,5.1251,5.1336,5.1874,5.2019,5.2164,5.2309,5.2309,5.2166,5.1793,5.1586,5.1586,5.1772,5.1317,5.1275,5.1626,5.1357,5.1189,5.1232,5.1501,5.1522,4.1578,0.0,0.0,4.6159,4.9257,5.2058,5.2225,5.2845,5.3877,5.5746,5.6299,5.7243,5.9932,6.0952,0.0,6.5392,6.6649,6.7631,6.8644,6.9154,6.9374,6.9253,6.986,7.0426,7.0761,7.176,7.2845,7.3923,7.3603,7.2939,7.203,7.3115,7.2863,7.0957,7.0737,7.059,7.0445,6.8918,6.7841,6.7249,6.5704,6.467,6.4011,6.1875,6.0568,5.9988,5.9988,5.9802,5.9492,5.9492,5.9285,5.8995,5.8995,5.8995,5.8995,5.8995,5.8622,5.8059,5.7934,5.7666,5.7376,5.7252,5.7008,5.6763,5.6763,5.6453,5.608,5.608,5.5997,5.5893,5.5893,5.5893,5.5893,5.5893,5.5645,5.5355,5.5231,5.4938,5.4562,5.4083,5.398,5.3879,5.3447,5.3364,5.3323,5.3222,5.2619,5.2185,5.2185,5.2185,5.2143,5.1998,5.1812,5.1895,5.2454,5.2309,5.2412,5.2974,5.3015,5.2953,5.2829,5.2806,5.2806,5.2806,5.2599,5.2495,5.2495,5.2288,5.2185,5.2185,5.2516,5.2681,0.0,0.0,4.7253,4.9174,5.3246,5.6831,5.6945,5.7265,5.833,6.116,6.0429,5.9984,6.2263,6.3614,6.4563,6.5208,6.7078,6.8627,6.9213,6.9684,6.9765,6.918,6.9098,6.9313,0.0,7.1107,7.2715,7.4891,7.3599,7.3168,7.4136,7.4198,7.3705,7.2646,7.312,7.3118,7.2597,7.2526,7.1502,6.9502,6.9429,6.8306,6.6231,6.4088,6.1978,5.9988,5.9988,5.9988,5.9968,5.9968,5.9968,5.9947,5.9947,5.9947,5.9947,5.9947,5.9367,5.8519,5.8059,5.7893,5.779,5.7355,5.719,5.719,5.719,5.6904,5.6577,5.6577,5.6246,5.5893,5.5893,5.5893,5.5893,5.5893,5.5893,5.5749,5.5293,5.5189,5.5041,5.4583,5.4476,5.4311,5.3856,5.3773,5.3651,5.324,5.3181,5.316,5.316,5.316,5.2994,5.2539,5.2868,5.295,5.2536,5.2911,5.2994,5.2536,5.2516,5.2309,5.1853,5.1853,5.1853,5.1853,5.2267,5.2495,5.2495,5.293,5.316,5.316,5.3181,5.3181,0.0,0.0,5.2337,5.4615,5.7518,5.9873,6.0278,6.0738,6.1256,6.1873,6.0931,6.0238,6.0996,6.2008,6.3245,6.496,6.7601,6.9657,7.0272,7.1329,7.1164,6.8724,6.9699,0.0,0.0,0.0,0.0,7.4883,7.3898,7.369,7.4837,7.4143,7.3424,7.2715,7.2882,7.2882,7.2717,7.2717,7.236,7.1645,7.0252,6.8478,6.638,6.5631,6.4164,6.2112,6.2112,6.1327,5.9988,5.9988,5.9988,5.9988,5.9988,5.9988,5.9988,5.9988,5.9802,5.945,5.8995,5.841,5.7872,5.7707,5.7459,5.721,5.721,5.7107,5.7008,5.7008,5.6883,5.678,5.678,5.678,5.678,5.678,5.6552,5.6308,5.6163,5.5893,5.5624,5.5455,5.5414,5.5372,5.5227,5.4938,5.4586,5.4127,5.3571,5.3201,5.3201,5.3201,5.3139,5.2994,5.3118,5.324,5.3362,5.3507,5.3651,5.3817,5.3817,5.3755,5.361,5.3589,5.3589,5.3589,5.3445,5.3362,5.3362,5.3261,5.3201,5.3222,5.3465,5.3755,5.1066,5.3885,5.6705,5.9459,6.1239,6.2427,6.2967,6.2946,6.2642,6.2044,6.0435,5.9176,5.9291,5.9357,6.0493,6.393,6.6685,6.908,7.1144,7.2048,7.1696,6.9546,7.0171,0.0,0.0,0.0,0.0,7.4802,7.4382,7.433,7.5104,7.481,7.4198,7.3301,7.3468,7.3397,7.3042,7.2817,7.2717,7.2693,7.158,6.9816,6.7544,6.7755,6.6139,6.3193,6.3193,6.1978,5.9988,5.9988,5.9988,5.9988,5.9988,5.9988,5.9988,5.9988,5.9988,5.9926,5.9471,5.8912,5.8348,5.8183,5.7934,5.7666,5.75,5.7562,5.7666,5.75,5.7438,5.7438,5.7438,5.7334,5.721,5.721,5.7008,5.6784,5.6618,5.6349,5.6101,5.5935,5.5893,5.5893,5.5893,5.5645,5.5355,5.5062,5.4379,5.384,5.3696,5.3675,5.3613,5.3427,5.3427,5.3445,5.3569,5.3589,5.3714,5.4003,5.4024,5.4107,5.4228,5.4249,5.4249,5.4249,5.4104,5.3959,5.3794,5.3693,5.3737,5.3926,5.4192,5.4541,5.5262,5.7747,6.0247,6.3476,6.4348,6.453,6.4878,6.3874,6.2633,6.1785,5.9053,5.6888,0.0,0.0,5.6765,6.2157,6.4589,6.7349,7.1801,7.1964,7.1565,0.0,0.0,0.0,0.0,0.0,0.0,7.465,0.0,7.4982,7.514,7.6022,7.5862,7.4426,7.4805,7.4566,7.3642,7.3016,7.2717,7.2717,7.3318,7.2287,6.9817,7.0347,6.8031,6.3616,6.3616,6.2404,6.0417,6.0286,6.0213,6.0192,6.0082,6.003,6.003,6.003,6.005,5.9988,5.9533,5.9347,5.9222,5.8788,5.8622,5.8519,5.8059,5.825,5.8519,5.8059,5.7914,5.7893,5.7893,5.7562,5.7231,5.7231,5.7231,5.7128,5.6743,5.6639,5.6494,5.6059,5.5976,5.5956,5.5935,5.5935,5.5914,5.5893,5.5521,5.5062,5.4603,5.4497,5.4311,5.3876,5.3835,5.3693,5.3305,5.3284,5.3284,5.3305,5.3284,5.3468,5.3876,5.3876,5.3876,5.3897,5.4331,5.4331,5.3897,5.4352,5.4789,5.5251,5.5251,5.55,5.865,6.1401,6.3703,6.5041,6.5749,6.5789,6.4591,6.402,6.2859,5.9716,5.658,5.3959,5.2553,0.0,0.0,5.9975,6.5136,0.0,7.2517,7.388,0.0,0.0,0.0,7.1853,7.0886,7.1461,0.0,0.0,7.381,7.457,7.6818,7.5956,7.5443,7.5558,7.4485,7.3996,7.4189,7.3206,7.2717,7.2717,7.3318,7.323,7.2577,7.3149,7.1834,6.9165,6.9165,6.7935,6.5846,6.419,6.3292,6.2813,6.1175,6.0532,6.0532,6.0532,6.0713,6.0914,6.0485,5.9885,5.9285,5.916,5.8891,5.8581,5.8477,5.8519,5.8581,5.8457,5.8162,5.7893,5.7893,5.781,5.7707,5.7707,5.7707,5.7686,5.7587,5.7297,5.7028,5.6879,5.6859,5.678,5.6473,5.6411,5.6287,5.5956,5.579,5.5562,5.5082,5.4707,5.4435,5.4331,5.4311,5.4293,5.4189,5.4169,5.4337,5.4672,5.4379,5.4544,5.5331,5.502,5.5,5.5352,5.5476,5.5476,5.5352,5.5476,5.5604,5.5728,5.5728,5.5976,6.2657,6.503,6.6694,6.7349,6.743,6.6604,6.382,6.2508,6.0519,5.5824,5.2456,0.0,4.8252,0.0,0.0,0.0,0.0,0.0,7.2611,7.3944,7.4179,0.0,7.3029,0.0,7.2533,7.282,7.363,0.0,7.434,7.485,7.7021,7.6477,7.6163,7.6288,7.5432,7.4677,7.4047,7.341,7.3093,7.3093,7.3694,7.3946,7.3971,7.4499,7.3453,7.1212,0.0,6.9991,6.7822,6.561,6.5118,6.5544,6.333,6.2481,6.2481,6.2481,6.1963,6.1286,6.1038,6.0506,5.9864,5.9678,5.9429,5.9181,5.8974,5.9057,5.9181,5.8974,5.8726,5.8493,5.8493,5.8348,5.8229,5.8229,5.8229,5.8141,5.7934,5.7852,5.7748,5.7541,5.75,5.7355,5.6925,5.6863,5.6759,5.6511,5.6328,5.6101,5.5852,5.5393,5.5124,5.5124,5.5124,5.5124,5.5124,5.5124,5.5227,5.55,5.5248,5.5352,5.5873,5.5645,5.5624,5.5893,5.5893,5.5893,5.5893,5.5893,5.5997,5.6204,5.639,5.6718,6.6442,6.8147,6.9166,6.9579,6.8867,6.697,6.2811,6.0165,5.6999,5.1415,0.0,4.5602,4.4559,4.6306,4.9891,5.5936,0.0,6.7247,7.248,7.3238,7.3656,7.478,7.3996,7.3735,7.4702,7.431,7.4676,7.6247,7.5516,7.5512,7.6662,7.7156,7.7157,7.6717,7.6785,7.5835,7.3839,7.3742,7.3694,7.372,7.4272,7.4499,7.4524,7.5076,7.4045,7.1851,0.0,0.0,6.8895,6.669,6.6851,6.8319,6.6109,6.5226,6.5226,6.5226,6.382,6.1928,6.1866,6.1408,6.0801,6.0257,6.005,5.9906,5.9512,5.9678,5.9906,5.9512,5.9347,5.9305,5.9305,5.8995,5.8705,5.8705,5.8705,5.8581,5.8162,5.8374,5.8498,5.8059,5.7976,5.7852,5.7459,5.7376,5.7376,5.7376,5.709,5.6867,5.6867,5.6308,5.5893,5.5893,5.5893,5.5893,5.5893,5.5893,5.5914,5.5976,5.5935,5.5956,5.608,5.6018,5.6018,5.608,5.608,5.608,5.608,5.6142,5.637,5.6784,5.7194,5.7603,6.7833,6.9375,7.018,6.9788,6.8497,6.6243,6.217,5.8764,0.0,0.0,0.0,4.3717,4.2788,4.5827,5.0451,5.6545,0.0,0.0,0.0,0.0,7.4127,0.0,0.0,0.0,0.0,0.0,0.0,0.0,0.0,0.0,7.7287,7.6976,7.6743,7.6693,7.6785,7.6207,7.4946,7.4489,7.4248,7.4272,7.48,7.5052,7.5101,7.5653,7.5681,7.5235,0.0,0.0,7.4516,7.2259,7.1312,7.1085,6.8876,6.8001,6.8001,6.8001,6.6816,6.5141,6.48,6.3399,6.1638,6.0837,6.0325,5.9968,5.9906,5.9926,5.9968,5.9906,5.9595,5.9305,5.9305,5.9243,5.9181,5.9181,5.9181,5.916,5.9078,5.8829,5.8581,5.8498,5.8498,5.8431,5.8348,5.8374,5.8374,5.8374,5.8312,5.825,5.825,5.6888,5.5893,5.5893,5.5893,5.5893,5.5893,5.5893,5.6059,5.6453,5.6101,5.62,5.6941,5.666,5.6614,5.6962,5.6962,5.6962,5.6962,5.7355,5.7608,5.7691,5.8146,5.839,6.9114,7.0363,7.0886,7.0311,6.8403,6.524,5.9655,0.0,0.0,0.0,0.0,4.0329,3.9445,4.3048,0.0,5.2056,0.0,0.0,0.0,0.0,0.0,0.0,0.0,0.0,0.0,0.0,0.0,0.0,0.0,0.0,7.7444,7.7499,7.7524,7.7597,7.7308,7.6795,7.6033,7.5479,7.5238,7.5238,7.5198,7.5352,7.5678,7.5954,7.6104,7.6104,7.6104,0.0,7.5931,7.3634,7.3263,7.3919,7.1658,7.0792,7.0792,7.0792,6.9517,6.7743,6.7545,6.6612,6.5242,6.3647,6.1885,6.0325,6.0071,5.9988,5.9988,5.9988,5.9843,5.9657,5.9657,5.9657,5.9657,5.9657,5.9471,5.9367,5.9616,5.9305,5.8974,5.8974,5.8974,5.8891,5.8643,5.8601,5.8601,5.8601,5.8601,5.8601,5.8601,5.7836,5.7194,5.6966,5.6945,5.6842,5.6594,5.6801,5.7028,5.7256,5.7277,5.7484,5.7914,5.7753,5.7732,5.7914,5.7914,5.7914,5.7914,5.8141,5.8245,5.8291,5.8746,5.8974,6.9945,7.1095,7.1435,7.0755,6.8345,6.4292,5.732,5.2433,0.0,0.0,3.8179,3.7387,3.696,4.0417,4.4487,0.0,5.2485,5.8209,0.0,0.0,0.0,0.0,0.0,0.0,0.0,0.0,0.0,0.0,0.0,0.0,7.7627,7.8074,7.838,7.8568,7.8009,7.7512,7.7152,7.662,7.628,7.6159,7.5744,7.5726,7.6104,7.6104,7.6104,7.6104,7.6104,0.0,0.0,7.4187,7.4488,7.5931,7.4137,7.3433,7.3433,7.3433,7.2014,7.0113,7.0113,6.9574,6.8534,6.6701,6.4031,6.1395,6.054,6.0216,6.0154,6.0257,6.0216,6.0154,6.0257,6.0216,6.0113,6.0009,5.9719,5.9554,5.9906,5.9699,5.945,5.945,5.945,5.9326,5.8974,5.8912,5.8912,5.8912,5.8912,5.8912,5.8912,5.8912,5.8726,5.8245,5.81,5.7893,5.7521,5.7831,5.8038,5.8038,5.8415,5.8601,5.8601,5.8601,5.8601,5.8601,5.8601,5.8601,5.8601,5.8808,5.8912,5.8912,5.9471,5.974,6.9971,7.1382,7.1958,7.086,6.8031,6.3665,5.6745,0.0,0.0,3.9328,3.7093,3.6582,3.7604,3.9836,4.3323,4.8852,5.2328,5.7163,6.5234,6.8162,0.0,0.0,0.0,0.0,0.0,0.0,0.0,0.0,0.0,0.0,0.0,7.8259,7.8547,7.9097,7.8615,7.8299,7.8251,7.7718,7.7207,7.6742,7.6693,7.6473,7.6104,7.6104,7.6104,7.6104,0.0,0.0,0.0,7.5881,7.5931,7.6079,7.5881,7.5782,7.5782,7.5782,7.4362,7.242,7.242,7.1044,6.9248,6.8585,6.6559,6.3946,6.1823,6.0941,6.0713,6.108,6.0941,6.0713,6.108,6.092,6.0532,6.0092,5.9968,5.9947,5.9988,5.9968,5.9926,5.9926,5.9926,5.9906,5.9864,5.9864,5.9864,5.9864,5.9864,5.9864,5.9864,5.9864,5.9678,5.9222,5.8788,5.8519,5.8452,5.8519,5.8539,5.8539,5.8581,5.8601,5.8601,5.8601,5.8601,5.8601,5.8601,5.8601,5.8601,5.945,5.9864,5.9885,6.0728,6.1142,6.9684,7.1435,7.2036,7.0886,6.7482,6.2645,5.6066,0.0,4.4146,3.8527,3.6436,3.5861,3.6671,3.8161,4.0566,4.4618,4.624,4.9912,5.8366,6.0614,0.0,0.0,0.0,0.0,0.0,0.0,0.0,0.0,0.0,0.0,0.0,7.8832,7.896,7.9196,7.9004,7.8883,7.8883,7.8353,7.7964,7.7771,7.7454,7.7014,7.6523,7.6523,7.6376,7.6104,0.0,0.0,0.0,7.6104,7.6104,7.6104,7.6104,7.6104,7.6104,7.6104,7.5534,7.4762,7.4762,7.4162,7.3182,7.1623,7.0391,6.9009,6.6176,6.5214,6.5129,6.5302,6.5214,6.5129,6.5302,6.4247,6.2643,6.0849,6.0609,6.0734,6.0464,6.0609,6.0707,6.0464,6.0429,6.0429,6.0429,6.0429,6.0485,6.0748,6.0769,6.0769,6.0769,6.0568,6.0367,6.0154,5.9471,5.8912,5.8643,5.8871,5.9015,5.9015,5.9285,5.9429,5.9429,5.9429,5.9574,5.9843,5.9864,5.9988,6.0231,6.0604,6.0769,6.079,6.1142,6.1301,6.8498,7.0696,7.1513,7.0363,6.6599,6.1573,0.0,4.915,4.3284,3.828,3.6358,3.5704,3.6253,3.722,3.8736,4.1258,4.2683,4.6083,5.3556,5.6092,5.9908,0.0,0.0,0.0,0.0,0.0,0.0,0.0,0.0,0.0,0.0,7.9196,7.9196,7.9196,7.9196,7.9196,7.9196,7.8835,7.857,7.8401,7.7868,7.7406,7.7039,7.6745,7.6499,7.6302,0.0,0.0,0.0,7.6104,7.6104,7.6104,7.6104,7.6104,7.6104,7.6104,7.6104,7.6104,7.6104,7.6104,7.5832,7.4237,7.371,7.3287,7.1082,6.9362,6.8251,6.8363,6.7922,6.7361,6.7251,6.5571,6.3403,6.136,6.108,6.1224,6.0941,6.11,6.1224,6.0941,6.0878,6.0878,6.0878,6.0878,6.0982,6.1266,6.1301,6.1301,6.1301,6.1038,6.0878,6.0878,6.0299,5.9719,5.9264,5.9512,5.9761,5.9859,6.0216,6.0382,6.0382,6.0382,6.0547,6.0878,6.0878,6.1023,6.1301,6.1425,6.1508,6.1508,6.1659,6.1721,6.6229,6.8971,7.0337,6.9119,6.5397,6.0501,0.0,4.8889,4.3389,3.8829,3.6933,3.6279,3.6881,3.7482,3.8437,4.0136,4.3807,4.8082,5.2746,5.7303,6.1249,0.0,0.0,0.0,0.0,0.0,0.0,0.0,0.0,0.0,0.0,7.9196,7.9196,7.9196,7.9196,7.9196,7.9196,7.9196,7.8931,7.8401,7.7868,7.7601,7.7576,7.6572,7.6351,0.0,0.0,0.0,0.0,7.6104,7.6104,7.6104,7.6104,7.6104,7.6104,7.6104,7.6104,7.6104,7.6104,7.6104,7.6104,7.6079,7.6055,7.6055,7.603,7.2592,6.8798,6.9251,6.7765,6.5928,6.5549,6.3729,6.1913,6.1411,6.128,6.1301,6.128,6.128,6.1301,6.128,6.128,6.128,6.128,6.128,6.128,6.1301,6.1301,6.1301,6.1301,6.128,6.128,6.128,6.1307,6.1121,6.0692,6.0698,6.0858,6.1239,6.128,6.128,6.128,6.128,6.128,6.128,6.128,6.128,6.1301,6.1783,6.2011,6.2011,6.2472,6.2679,5.9219,6.1482,6.2509,6.0982,5.8467,5.5195,5.0612,4.6436,4.2461,3.8684,3.7273,3.6765,3.6948,3.7496,3.9233,4.3284,4.5048,4.7635,5.2694,0.0,0.0,0.0,0.0,0.0,0.0,0.0,0.0,0.0,0.0,0.0,0.0,7.8986,7.9196,7.9196,7.9196,7.9196,7.9196,7.9196,7.9124,7.8956,7.8787,7.8498,7.8135,7.7454,0.0,0.0,0.0,0.0,0.0,7.6572,7.6572,7.6548,7.6228,7.6104,7.6104,7.6104,7.6104,7.6104,7.6104,7.6104,7.6104,7.6104,7.6104,7.6104,7.6104,7.4987,7.3792,7.3938,7.3459,7.25,7.0829,6.874,6.6557,6.4564,6.3155,6.2183,6.1845,6.2031,6.2162,6.1845,6.1783,6.1783,6.1783,6.1783,6.1886,6.2224,6.2265,6.2265,6.2265,6.1969,6.1783,6.1783,6.1487,6.1239,6.1121,6.11,6.1162,6.128,6.1301,6.1301,6.1301,6.1301,6.1446,6.1783,6.1783,6.1928,6.2265,6.241,6.2472,6.2472,6.2617,6.2707,5.3954,5.6721,5.7896,5.6622,5.4457,5.1788,4.8377,4.4899,4.1573,3.8789,3.7732,3.7351,3.7351,3.7821,3.9326,4.2775,4.4407,4.672,0.0,0.0,0.0,0.0,0.0,0.0,0.0,0.0,0.0,0.0,0.0,0.0,0.0,0.0,7.8777,7.8542,7.896,7.9196,7.9196,7.9196,7.9196,7.9196,7.9004,7.8835,7.8691,7.7941,0.0,0.0,0.0,0.0,0.0,7.6892,7.6794,7.6745,7.6277,7.6203,7.6376,7.6376,7.6376,7.6376,7.6376,7.6252,7.6104,7.6104,7.6104,7.6104,7.6104,7.6104,7.6104,7.6104,7.5485,7.4488,7.3054,7.1066,6.877,6.6244,6.4767,6.3637,6.2518,6.2493,6.2617,6.2327,6.2259,6.2259,6.2259,6.2259,6.2369,6.2645,6.2707,6.2707,6.2707,6.2452,6.2259,6.2259,6.199,6.1824,6.1824,6.168,6.1638,6.1824,6.1824,6.1824,6.1824,6.1824,6.1969,6.2238,6.2259,6.241,6.2707,6.2866,6.2955,6.2955,6.3142,6.3114,0.0,5.3568,5.5244,5.4648,5.2292,4.955,4.7357,4.3898,0.0,3.9038,3.8254,3.7952,3.8057,3.8423,3.9012,3.9979,4.2866,4.5858,0.0,5.3138,0.0,0.0,0.0,0.0,0.0,0.0,0.0,0.0,0.0,0.0,0.0,0.0,7.8021,7.7444,7.849,7.9065,7.9065,7.9117,7.9117,7.9065,7.8613,7.8637,7.9119,7.8058,0.0,0.0,0.0,0.0,0.0,7.7137,7.6916,7.6867,7.64,7.6474,7.6867,7.6867,7.6843,7.6794,7.6794,7.6499,7.6104,7.6104,7.6104,7.6104,7.6104,7.6104,7.6104,7.6104,7.4563,7.2928,7.2928,7.1194,6.8864,6.6756,6.6006,6.5197,6.315,6.2707,6.2707,6.2707,6.2707,6.2707,6.2741,6.2741,6.2769,6.2769,6.2804,6.2804,6.2804,6.2769,6.2769,6.2804,6.2769,6.2769,6.2804,6.2348,6.2238,6.2679,6.2707,6.2707,6.2707,6.2741,6.2741,6.2741,6.2769,6.2804,6.2804,6.3252,6.3452,6.3452,6.3908,6.3874,4.1502,0.0,4.5454,4.5041,4.4233,4.3336,0.0,4.1161,3.9744,3.8881,3.8254,3.828,3.9587,3.9195,4.0188,4.4747,4.6929,4.9035,5.1779,0.0,0.0,0.0,0.0,0.0,0.0,0.0,0.0,0.0,0.0,0.0,0.0,7.8074,7.7841,7.6845,7.7522,7.7888,7.7888,7.8309,7.8309,7.7888,7.819,7.8399,7.8494,7.7826,0.0,0.0,0.0,0.0,7.8208,7.8087,7.8038,7.7964,7.7454,7.7308,7.743,7.743,7.7161,7.6794,7.6794,7.6499,7.6104,7.6104,7.6104,7.6104,7.6104,7.6104,7.6104,7.6104,7.5708,7.5286,7.5286,7.237,6.9256,6.8733,6.5979,6.3341,6.2795,6.2707,6.2707,6.2707,6.2707,6.2804,6.319,6.3252,6.3376,6.3721,6.3784,6.3784,6.3784,6.3452,6.3362,6.3721,6.3452,6.3362,6.3749,6.3017,6.2582,6.2679,6.2707,6.2707,6.2707,6.3038,6.3252,6.3252,6.3597,6.3784,6.3784,6.3859,6.3936,6.3936,6.406,6.4032,3.7964,4.0333,4.2544,4.2201,4.2117,4.1957,4.1401,4.0188,3.9012,3.8437,0.0,3.8254,3.9404,3.9535,4.0763,4.4695,4.6982,0.0,0.0,0.0,0.0,0.0,0.0,0.0,0.0,0.0,0.0,0.0,0.0,0.0,0.0,7.7368,7.7109,7.6218,7.6505,7.6947,7.7493,7.7784,7.7784,7.752,7.8048,7.8285,7.8285,7.8,0.0,0.0,0.0,0.0,7.8375,7.8394,7.8401,7.8353,7.782,7.7771,7.7941,7.7698,7.743,7.7137,7.6892,7.6499,7.6104,7.6104,7.6104,7.6104,7.6104,7.6104,7.6104,7.6104,7.6104,7.6104,7.6104,7.4484,7.2576,7.1548,6.8807,6.6131,6.4903,6.3959,6.3287,6.3052,6.3204,6.3438,6.3687,6.3721,6.3811,6.406,6.4094,6.4094,6.4094,6.3859,6.3825,6.4074,6.3874,6.3825,6.4094,6.3611,6.3328,6.3328,6.3328,6.3328,6.3328,6.3597,6.3721,6.3721,6.397,6.4094,6.4094,6.4281,6.4377,6.4377,6.4604,6.4591,3.7475,4.0414,4.3066,4.2349,4.2484,4.258,4.1698,4.0121,0.0,0.0,0.0,0.0,0.0,4.0266,0.0,0.0,0.0,0.0,0.0,0.0,0.0,0.0,0.0,0.0,0.0,0.0,0.0,0.0,0.0,0.0,0.0,7.6587,7.6299,7.5698,7.5698,7.6192,7.7208,7.7313,7.7313,7.7235,7.7865,7.8129,7.8024,7.8129,7.8178,0.0,0.0,0.0,7.8314,7.8457,7.8522,7.8498,7.8038,7.8135,7.8474,7.8014,7.7795,7.7649,7.7014,7.6548,7.6203,7.6129,7.6104,7.6104,7.6104,7.6104,7.6129,7.6205,7.6179,7.6129,7.6205,7.6308,7.593,7.4051,7.2236,7.0281,6.8029,6.6006,6.4485,6.4109,6.4055,6.4122,6.4184,6.417,6.4218,6.4281,6.4309,6.4309,6.4309,6.4246,6.4218,6.4281,6.4218,6.4218,6.4281,6.4309,6.4309,6.4309,6.4184,6.4108,6.417,6.417,6.4218,6.4309,6.4309,6.4309,6.4309,6.4638,6.4825,6.4825,6.5197,6.5197,3.9346,4.19,4.3264,4.076,4.108,4.1749,4.082,4.0007,3.943,0.0,0.0,0.0,0.0,4.3232,0.0,0.0,0.0,0.0,0.0,0.0,0.0,0.0,0.0,0.0,0.0,0.0,0.0,0.0,0.0,0.0,0.0,0.0,7.6299,7.5698,7.5698,7.58,7.5983,7.6479,7.6479,7.6009,7.7104,7.7365,7.6874,7.7391,7.7627,0.0,0.0,7.8285,7.8338,7.8865,7.9076,7.9076,7.898,7.9004,7.9076,7.898,7.8667,7.8159,7.7137,7.6745,7.6622,7.6228,7.6104,7.6104,7.6104,7.6104,7.6205,7.6657,7.6431,7.6205,7.6657,7.5428,7.4075,7.4227,7.2576,7.0878,7.0441,6.8576,6.6955,6.6874,6.5374,6.4218,6.4542,6.4604,6.4729,6.5135,6.5197,6.5197,6.5197,6.4853,6.4762,6.5163,6.4825,6.4762,6.5163,6.5197,6.5197,6.5197,6.4529,6.4232,6.4576,6.4604,6.4791,6.5197,6.5197,6.5197,6.5197,6.5259,6.5288,6.5288,6.537,6.537,3.7463,3.9702,4.1736,4.198,4.3639,4.4844,4.3281,4.2397,0.0,0.0,0.0,0.0,0.0,0.0,0.0,0.0,0.0,0.0,0.0,0.0,0.0,0.0,0.0,0.0,0.0,0.0,0.0,0.0,0.0,0.0,0.0,0.0,7.5986,7.5698,7.5698,7.5698,7.5698,7.596,7.596,7.5698,7.6584,7.6871,7.6587,7.6898,7.7002,7.7028,0.0,7.7865,7.7941,7.8829,7.9196,7.9196,7.9196,7.9196,7.9172,7.8883,7.8425,7.7917,7.7406,7.7235,7.7161,7.6646,7.6474,7.6425,7.6178,7.6104,7.623,7.6758,7.6707,7.6657,7.7185,7.6778,7.6261,7.6559,7.5094,7.3585,7.3302,7.1633,6.9691,6.8186,6.723,6.6339,6.5258,6.5073,6.5135,6.537,6.5383,6.5383,6.5383,6.5197,6.5163,6.5383,6.5197,6.5163,6.5383,6.5383,6.5383,6.5383,6.5011,6.4902,6.5073,6.5073,6.5197,6.5383,6.5383,6.5383,6.5383,6.5383,6.5383,6.5383,6.5383,6.5383,3.6648,3.8409,4.0722,4.365,0.0,4.7122,4.689,0.0,0.0,0.0,0.0,0.0,0.0,0.0,0.0,0.0,0.0,0.0,0.0,0.0,0.0,0.0,0.0,0.0,0.0,0.0,0.0,0.0,0.0,0.0,0.0,0.0,7.5698,7.5698,7.5698,7.5698,7.5698,7.5698,7.5698,7.5698,7.6299,7.6508,7.6378,7.6535,7.6508,7.643,7.7182,7.752,7.7598,7.8725,7.9196,7.9196,7.9196,7.9196,7.9148,7.8739,7.8329,7.7965,7.7844,7.7795,7.7698,7.7014,7.6794,7.672,7.6252,7.6205,7.6406,7.6933,7.7185,7.736,7.7787,7.8189,7.854,7.8666,7.7701,7.6621,7.6261,7.4636,7.2581,7.0424,6.9424,6.8323,6.6508,6.5762,6.5383,6.5383,6.5383,6.5383,6.5383,6.5383,6.5383,6.5383,6.5383,6.5383,6.5383,6.5383,6.5383,6.5383,6.5383,6.5383,6.5383,6.5383,6.5383,6.5383,6.5383,6.5383,6.5383,6.5383,6.5383,6.5383,6.5383,6.5383,4.006,4.0953,4.1703,4.4731,4.4832,0.0,5.0781,4.983,0.0,0.0,0.0,0.0,0.0,0.0,0.0,0.0,0.0,0.0,0.0,0.0,0.0,0.0,0.0,0.0,0.0,0.0,0.0,0.0,0.0,0.0,0.0,0.0,0.0,7.5698,7.5698,7.5698,7.5698,7.5698,7.5698,7.5698,7.6299,7.6323,7.5777,7.6326,7.6273,7.5852,7.6999,7.752,7.7598,7.8725,7.9196,7.9196,7.9196,7.9196,7.9196,7.9172,7.9124,7.9028,7.8522,7.8353,7.8183,7.7137,7.6794,7.672,7.6252,7.6456,7.6958,7.7486,7.8013,7.8389,7.844,7.8465,7.864,7.9193,7.9241,7.9137,7.9112,7.7269,7.5586,7.5379,7.1854,6.886,6.8659,6.6819,6.5383,6.5383,6.5383,6.5383,6.5383,6.5383,6.5383,6.5383,6.5383,6.5383,6.5383,6.5383,6.5383,6.5383,6.5383,6.5383,6.5383,6.5383,6.5383,6.5383,6.5383,6.5383,6.5383,6.5383,6.5383,6.5383,6.5383,6.5383,3.7986,3.9601,4.1696,4.5504,4.7337,0.0,0.0,5.3034,5.4236,0.0,0.0,0.0,0.0,0.0,0.0,0.0,0.0,0.0,0.0,0.0,0.0,0.0,0.0,0.0,0.0,0.0,0.0,0.0,0.0,0.0,0.0,0.0,0.0,7.5698,7.5698,7.5698,7.5698,7.5698,7.5698,7.5698,7.5934,7.5907,7.5698,7.5957,7.6117,7.6323,7.713,7.7679,7.8048,7.8882,7.9196,7.9196,7.9196,7.9196,7.9196,7.9196,7.9196,7.9172,7.898,7.8907,7.8767,7.8059,7.7589,7.7212,7.6729,7.6732,7.7009,7.7536,7.8088,7.859,7.8967,7.9068,7.9118,7.9344,7.9394,7.9394,7.9394,7.8697,7.7659,7.6166,7.4467,7.2312,6.9395,6.8162,6.7179,6.6006,6.5569,6.5507,6.5805,6.5818,6.5818,6.5818,6.6116,6.6128,6.5867,6.6116,6.6252,6.6252,6.5722,6.5383,6.5383,6.5383,6.5383,6.5383,6.5383,6.5383,6.5383,6.5383,6.5383,6.5412,6.5694,6.5681,3.7196,3.8909,4.1544,4.5454,0.0,0.0,5.4324,5.6597,5.8949,0.0,0.0,0.0,0.0,0.0,0.0,0.0,0.0,0.0,0.0,0.0,0.0,0.0,0.0,0.0,0.0,0.0,0.0,0.0,0.0,0.0,0.0,0.0,0.0,0.0,7.5698,7.5698,7.5698,7.5698,7.5698,7.5698,7.5698,7.5698,7.5698,7.5698,7.593,7.6352,7.695,7.7548,7.81,7.8675,7.9039,7.9196,7.9196,7.9196,7.9196,7.9196,7.9196,7.9196,7.9196,7.9196,7.9104,7.8574,7.8159,7.7711,7.7078,7.7109,7.7436,7.7637,7.8239,7.8892,7.9294,7.9394,7.9394,7.9394,7.9394,7.9394,7.9394,7.9394,7.893,7.732,7.6402,7.4868,7.1681,6.9888,6.8453,6.7185,6.623,6.5743,6.6053,6.624,6.6331,6.6331,6.6612,6.6674,6.6364,6.6612,6.6799,6.6799,6.619,6.5784,6.5631,6.5495,6.5383,6.5383,6.5383,6.5383,6.5383,6.5557,6.5619,6.5631,6.6116,6.6066,3.8787,3.9546,4.1376,4.4454,0.0,0.0,5.8896,6.0726,6.2633,0.0,0.0,0.0,0.0,0.0,0.0,0.0,0.0,0.0,0.0,0.0,0.0,0.0,0.0,0.0,0.0,0.0,0.0,0.0,0.0,0.0,0.0,0.0,0.0,0.0,7.5698,7.5698,7.5698,7.5698,7.5698,7.5698,7.5698,7.5698,7.5698,7.5698,7.5698,7.5725,7.6352,7.695,7.7522,7.8074,7.8649,7.9196,7.9196,7.9196,7.9196,7.9196,7.9196,7.9196,7.9196,7.9196,7.9124,7.8594,7.8399,7.8195,7.7143,7.761,7.8364,7.7862,7.8515,7.9394,7.9394,7.9394,7.9394,7.9394,7.9394,7.9394,7.9394,7.9394,7.9394,7.9394,7.7528,7.5928,7.5902,7.2013,6.8938,6.8888,6.7327,6.6116,6.6116,6.6521,6.6799,6.6799,6.6799,6.6799,6.6799,6.6799,6.6799,6.6799,6.6799,6.6612,6.6116,6.566,6.5412,6.5412,6.5383,6.5383,6.5383,6.5867,6.6116,6.6116,6.6583,6.655,3.8246,4.0618,0.0,4.7163,0.0,0.0,0.0,6.4613,0.0,0.0,0.0,0.0,0.0,0.0,0.0,0.0,0.0,0.0,0.0,0.0,0.0,0.0,0.0,0.0,0.0,0.0,0.0,0.0,0.0,0.0,0.0,0.0,0.0,0.0,7.5698,7.5698,7.5698,7.5698,7.5698,7.5698,7.5698,7.5698,7.5698,7.5698,7.5934,7.6375,7.6973,7.7339,7.7522,7.8074,7.8649,7.9196,7.9196,7.9196,7.9196,7.9196,7.9196,7.9196,7.9196,7.9196,7.9152,7.9013,7.8452,7.7861,7.7956,7.7989,7.7988,7.8189,7.8817,7.9394,7.9394,7.9394,7.9394,7.9394,7.9394,7.9394,7.9394,7.9394,7.9394,7.9394,7.8827,7.7841,7.6166,7.3369,7.0916,6.9599,6.7518,6.6335,6.6985,6.7221,6.7295,6.7295,6.7594,6.7656,6.7325,6.7594,6.778,6.778,6.7482,6.7076,6.6612,6.6128,6.588,6.588,6.5569,6.5383,6.5383,6.5536,6.5784,6.6116,6.6583,6.655,4.0387,4.3472,0.0,5.0938,5.5978,6.1495,6.6907,0.0,0.0,0.0,0.0,0.0,0.0,0.0,0.0,0.0,0.0,0.0,0.0,0.0,0.0,0.0,0.0,0.0,0.0,0.0,0.0,0.0,0.0,0.0,0.0,0.0,0.0,0.0,7.5146,7.5019,7.5019,7.5019,7.5019,7.5042,7.5254,7.5382,7.5408,7.5594,7.6012,7.6662,7.7446,7.7705,7.7522,7.8074,7.8649,7.9169,7.896,7.8986,7.9196,7.9196,7.9196,7.9196,7.9196,7.9196,7.9152,7.8935,7.8426,7.7912,7.7854,7.7938,7.8063,7.8164,7.8766,7.9394,7.9394,7.9394,7.9394,7.9394,7.9394,7.9394,7.9394,7.9394,7.9394,7.9394,7.9394,7.8956,7.7528,7.4574,7.2022,7.0881,6.8258,6.6737,6.7656,6.778,6.778,6.778,6.8029,6.8091,6.7792,6.8029,6.8215,6.8215,6.7916,6.7656,6.7358,6.6737,6.6302,6.6116,6.5818,6.5569,6.5383,6.5569,6.5818,6.6116,6.6583,6.655,4.3847,4.7085,5.1063,5.5203,5.9054,0.0,7.0781,0.0,0.0,0.0,0.0,0.0,0.0,0.0,0.0,0.0,0.0,0.0,0.0,0.0,0.0,0.0,0.0,0.0,0.0,0.0,0.0,0.0,0.0,0.0,0.0,0.0,0.0,7.499,7.4441,7.4153,7.4153,7.4127,7.4075,0.0,7.4597,7.4833,7.4833,7.5411,7.6038,7.6741,7.7658,7.7865,7.7601,7.7995,7.8544,7.9065,7.8518,7.8675,7.9196,7.9196,7.9196,7.9196,7.9196,7.9196,7.9124,7.857,7.8373,7.8144,7.7169,7.761,7.8339,7.7913,7.854,7.9394,7.9394,7.9394,7.9394,7.9394,7.9394,7.9394,7.9394,7.9394,7.9394,7.9394,7.9394,7.9394,7.9394,7.569,7.2584,7.2195,6.9061,6.7047,6.7967,6.8103,6.8153,6.8153,6.8165,6.8215,6.8215,6.8215,6.8215,6.8215,6.8215,6.8215,6.8215,6.7295,6.6612,6.6178,6.6066,6.5818,6.5383,6.5818,6.6053,6.6116,6.655,6.6517,4.2785,4.7059,5.2448,5.739,6.3299,6.8743,7.2167,7.3395,0.0,0.0,0.0,0.0,0.0,0.0,0.0,0.0,0.0,0.0,0.0,0.0,0.0,0.0,0.0,0.0,0.0,0.0,0.0,0.0,0.0,0.0,0.0,0.0,0.0,7.5516,7.5385,7.5333,7.5333,7.4937,7.4702,0.0,7.4362,7.4183,7.4232,7.5251,7.6296,7.7261,7.6558,7.6953,7.8074,7.729,7.7577,7.8492,7.8338,7.8675,7.9196,7.9196,7.9196,7.9196,7.9196,7.9196,7.9124,7.857,7.8115,7.7733,7.7548,7.7661,7.7938,7.8239,7.8842,7.9394,7.9394,7.9394,7.9394,7.9394,7.9394,7.9394,7.9394,7.9394,7.9394,7.9394,7.9394,7.9394,7.9394,7.7031,7.4021,7.071,6.7945,6.6459,6.7047,6.742,6.7656,6.7656,6.7979,6.8215,6.8215,6.8215,6.8215,6.8215,6.8215,6.8215,6.8215,6.7295,6.6737,6.6645,6.5929,6.5507,6.5383,6.5507,6.5743,6.6116,6.619,6.619,4.4736,4.9441,5.4994,6.213,0.0,7.0729,7.3029,7.3787,0.0,0.0,0.0,0.0,0.0,0.0,0.0,0.0,0.0,0.0,0.0,0.0,0.0,0.0,0.0,0.0,0.0,0.0,0.0,0.0,0.0,0.0,0.0,7.5437,7.5329,7.5329,7.5042,7.4885,7.4885,7.4624,7.4467,7.4467,7.4441,7.4441,7.4467,7.5306,7.5904,7.6293,7.6741,7.7136,7.7449,7.7159,7.7368,7.7917,7.7917,7.8257,7.8779,7.9091,7.9196,7.9196,7.9196,7.9196,7.9124,7.857,7.8038,7.7554,7.732,7.7484,7.7762,7.8038,7.8741,7.9394,7.9394,7.9394,7.9394,7.9394,7.9394,7.9394,7.9394,7.9394,7.9394,7.9394,7.9394,7.9394,7.9394,7.7451,7.4626,7.0859,6.9231,6.8058,6.6961,6.7014,6.7346,6.7792,6.8041,6.8215,6.8215,6.8215,6.8215,6.8215,6.8215,6.8215,6.8215,6.7532,6.7047,6.6799,6.6331,6.5867,6.5383,6.5383,6.5536,6.5756,6.5756,6.5756,4.6256,5.1795,5.7921,6.6637,6.9715,0.0,7.3474,7.3996,7.4336,0.0,0.0,0.0,0.0,0.0,0.0,0.0,0.0,0.0,0.0,0.0,0.0,0.0,0.0,0.0,0.0,0.0,0.0,0.0,0.0,0.0,7.5591,7.5251,7.5042,7.5042,7.4549,7.431,7.431,7.4205,7.4153,7.4179,7.4571,7.4702,7.4624,7.5254,7.5359,7.5146,7.7031,7.7371,7.6613,7.7025,7.7235,7.7339,7.7444,7.7836,7.8364,7.8986,7.9196,7.9196,7.9196,7.9196,7.9124,7.857,7.8038,7.7503,7.6965,7.7232,7.7712,7.7712,7.8515,7.9394,7.9394,7.9394,7.9394,7.9394,7.9394,7.9394,7.9394,7.9394,7.9394,7.9394,7.9394,7.9394,7.9394,7.7344,7.4763,7.2072,7.0719,6.9254,6.7086,6.6799,6.7109,6.7875,6.8091,6.8215,6.8215,6.8215,6.8215,6.8215,6.8215,6.8215,6.8215,6.7843,6.7408,6.6923,6.6832,6.6364,6.5507,6.5598,6.5598,6.5507,6.5507,6.5495,4.2345,5.0817,6.0423,6.7134,6.9715,7.12,0.0,0.0,7.4336,0.0,0.0,0.0,0.0,0.0,0.0,0.0,0.0,0.0,0.0,0.0,0.0,0.0,0.0,0.0,0.0,0.0,0.0,0.0,0.0,0.0,7.5042,7.5382,7.5594,7.5594,7.5538,7.5463,7.5463,7.4993,7.478,7.478,7.4336,7.3866,7.3395,7.4493,7.5225,7.5594,7.593,7.6247,7.6584,7.614,7.627,7.6767,7.7287,7.7836,7.8364,7.8986,7.9196,7.9196,7.9196,7.9196,7.9124,7.857,7.8038,7.7503,7.6965,7.7232,7.7712,7.7712,7.8515,7.9394,7.9394,7.9394,7.9394,7.9394,7.9394,7.9394,7.9394,7.9394,7.9394,7.9394,7.9394,7.9394,7.9394,7.6874,7.4728,7.4263,6.9604,6.6293,6.6753,6.6799,6.6861,6.6985,6.7718,6.8215,6.8215,6.8215,6.8215,6.8215,6.8215,6.8215,6.8215,6.8153,6.7905,6.742,6.7014,6.655,6.6004,6.6426,6.6397,6.6004,6.6004,6.5805,4.5919,5.3782,6.1372,6.7703,6.971,7.0703,7.2977,7.3761,7.4258,0.0,0.0,0.0,0.0,0.0,0.0,0.0,0.0,0.0,0.0,0.0,0.0,0.0,0.0,0.0,0.0,0.0,0.0,0.0,0.0,7.4807,7.4885,7.512,7.5408,7.5672,7.5408,7.5408,7.5698,7.5172,7.5068,7.5355,7.5071,7.4676,7.4153,7.499,7.5146,7.4784,7.5777,7.6143,7.609,7.6169,7.6143,7.6192,7.713,7.7627,7.7943,7.8856,7.9196,7.9196,7.9196,7.9196,7.9172,7.8931,7.828,7.7576,7.7332,7.7455,7.7712,7.7712,7.8515,7.9394,7.9394,7.9394,7.9394,7.9394,7.9394,7.9394,7.9394,7.9394,7.9394,7.9394,7.9394,7.9394,7.9394,7.8231,7.7344,7.7344,7.4998,7.1868,6.807,6.7594,6.7594,6.7594,6.7967,6.8215,6.8215,6.8215,6.8215,6.8215,6.8215,6.8215,6.8215,6.8215,6.7979,6.7532,6.7295,6.6956,6.6488,6.6704,6.6674,6.6488,6.6488,6.6364,4.7293,5.3436,5.8557,6.5371,6.7854,6.9265,0.0,0.0,7.3996,0.0,0.0,0.0,0.0,0.0,0.0,0.0,0.0,0.0,0.0,0.0,0.0,0.0,0.0,0.0,0.0,0.0,0.0,0.0,0.0,7.4284,7.4441,7.4597,7.4859,7.5277,7.4885,7.4859,7.5254,7.5042,7.5097,7.5512,7.562,7.5434,7.4937,7.546,7.515,7.431,7.5748,7.6195,7.596,7.6404,7.6427,7.6244,7.7313,7.7705,7.7836,7.8829,7.9196,7.9196,7.9196,7.9196,7.9172,7.9052,7.8377,7.7576,7.7454,7.7529,7.7712,7.7712,7.8515,7.9394,7.9394,7.9394,7.9394,7.9394,7.9394,7.9394,7.9394,7.9394,7.9394,7.9394,7.9394,7.9394,7.9394,7.9394,7.9394,7.9394,7.9897,7.8208,7.2606,6.9721,6.8215,6.8215,6.8215,6.8215,6.8215,6.8215,6.8215,6.8215,6.8215,6.8215,6.8215,6.8215,6.8029,6.7668,6.7668,6.747,6.6985,6.7109,6.708,6.6985,6.6985,6.6923,4.1847,4.5687,4.9908,5.7939,6.2802,6.6515,0.0,0.0,7.3474,0.0,0.0,0.0,0.0,0.0,0.0,0.0,0.0,0.0,0.0,0.0,0.0,0.0,0.0,0.0,0.0,0.0,0.0,0.0,0.0,7.4388,7.3264,7.3735,7.4075,7.4101,7.4075,7.4075,7.4101,7.465,7.4888,7.4963,7.5437,7.5434,7.4937,7.546,7.5408,7.4885,7.5512,7.6038,7.6558,7.6587,7.6924,7.7444,7.8048,7.8259,7.8311,7.896,7.9196,7.9196,7.9196,7.9196,7.9124,7.8618,7.8062,7.7527,7.7014,7.7257,7.7712,7.7712,7.8515,7.9394,7.9394,7.9394,7.9394,7.9394,7.9394,7.9394,7.9394,7.9394,7.9394,7.9394,7.9394,7.9394,7.9394,7.9394,7.9394,7.9394,8.1203,8.2399,8.2014,7.3888,6.8215,6.8215,6.8215,6.8215,6.8215,6.8215,6.8215,6.8215,6.8215,6.8215,6.8215,6.8215,6.8186,6.8153,6.8153,6.7916,6.747,6.7905,6.7905,6.747,6.747,6.7233,4.0737,4.4304,4.8381,5.4985,5.881,6.2077,6.6306,6.9161,7.1356,7.2925,0.0,0.0,0.0,0.0,0.0,0.0,0.0,0.0,0.0,0.0,0.0,0.0,0.0,0.0,0.0,0.0,0.0,0.0,0.0,0.0,7.3108,7.3317,7.3604,7.3996,7.363,7.3421,7.3421,7.4022,7.4336,7.4336,7.4519,7.4728,7.4911,7.5094,7.5254,7.5411,7.562,7.6038,7.6561,7.6169,7.6375,7.6976,7.7574,7.7784,7.7914,7.8856,7.9196,7.9196,7.9196,7.9196,7.9124,7.857,7.827,7.804,7.7548,7.7787,7.8189,7.8189,7.8792,7.9394,7.9394,7.9394,7.9394,7.9394,7.9394,7.9394,7.9394,7.9394,7.9394,7.9394,7.9394,7.962,8.0297,7.9846,7.9897,8.1304,8.2183,8.271,8.271,7.9655,7.5118,6.8856,6.8215,6.8215,6.8215,6.8215,6.8215,6.8215,6.8215,6.8215,6.8215,6.8215,6.8215,6.8215,6.8215,6.8123,6.7967,6.8123,6.8103,6.7967,6.7967,6.7718,3.8083,4.1246,4.5297,5.1282,5.4079,5.7059,6.362,6.6573,6.8716,7.1435,7.2898,0.0,0.0,0.0,0.0,0.0,0.0,0.0,0.0,0.0,0.0,0.0,0.0,0.0,0.0,0.0,0.0,0.0,0.0,0.0,7.282,7.2846,7.3029,7.3421,7.2846,7.2637,7.2846,7.3421,7.3813,7.4,7.4388,7.478,7.5172,7.5172,7.5359,7.5698,7.5698,7.6166,7.6845,7.627,7.6456,7.7214,7.7603,7.7784,7.7888,7.8856,7.9196,7.9196,7.9196,7.9196,7.9124,7.857,7.8399,7.8297,7.7828,7.8065,7.849,7.849,7.8942,7.9394,7.9394,7.9394,7.9394,7.9394,7.9394,7.9444,7.962,7.967,7.967,7.967,7.9721,8.0022,8.0849,8.0725,8.1002,8.2484,8.1429,8.1002,8.2509,8.271,8.0228,7.3773,7.0141,6.8215,6.8215,6.8215,6.8215,6.8215,6.8215,6.8215,6.8215,6.8215,6.8215,6.8215,6.8215,6.8215,6.8215,6.8215,6.8215,6.8215,6.8215,6.7967,0.0,0.0,0.0,0.0,0.0,0.0,6.1745,0.0,6.5482,7.0232,7.2062,0.0,0.0,0.0,0.0,0.0,0.0,0.0,0.0,0.0,0.0,0.0,0.0,0.0,0.0,0.0,0.0,0.0,0.0,7.2846,7.2323,7.2297,7.2297,7.2297,7.1722,7.1696,7.2297,7.2846,7.3395,7.3996,7.512,7.5669,7.5695,7.5695,7.5695,7.5698,7.5698,7.6375,7.7418,7.6819,7.724,7.8259,7.8259,7.8259,7.8338,7.8986,7.9196,7.9196,7.9196,7.9196,7.9124,7.857,7.84,7.8348,7.7854,7.8115,7.8515,7.8515,7.8967,7.9394,7.9394,7.9394,7.9394,7.9394,7.9394,7.9545,8.0097,8.0197,8.0197,8.0197,8.0398,8.0624,8.095,8.1955,8.271,8.271,7.9043,7.7863,8.2158,8.271,8.271,8.271,7.4253,6.856,6.8412,6.8364,6.8314,6.8314,6.8245,6.8215,6.8215,6.8215,6.8215,6.8215,6.8215,6.8215,6.8215,6.8215,6.8215,6.8215,6.8186,6.7937,3.4303,0.0,0.0,0.0,0.0,0.0,0.0,0.0,5.7303,6.4855,6.6364,0.0,0.0,0.0,0.0,0.0,0.0,0.0,0.0,0.0,0.0,0.0,0.0,0.0,0.0,0.0,0.0,0.0,7.2428,7.2454,7.2323,7.2297,7.2297,7.2297,7.214,7.214,7.2297,7.2846,7.3186,7.3369,7.4127,7.4702,7.512,7.512,7.5333,7.5698,7.5698,7.614,7.6793,7.6218,7.6662,7.7731,7.7731,7.7731,7.7836,7.8829,7.9196,7.9196,7.9196,7.9196,7.9104,7.8575,7.8698,7.8939,7.8418,7.8693,7.9143,7.9143,7.9269,7.9394,7.9394,7.9394,7.9394,7.9394,7.9394,7.9545,8.0097,8.0498,8.0774,8.0774,8.1051,8.1227,8.1025,8.1955,8.271,8.271,8.1655,8.1304,8.2534,8.271,8.271,8.271,8.028,7.7248,7.3694,7.1806,7.0809,7.0809,6.9182,6.8215,6.8215,6.8215,6.8215,6.8215,6.8215,6.8215,6.8215,6.8215,6.8215,6.8186,6.7854,6.7792,0.0,0.0,0.0,0.0,0.0,0.0,0.0,5.1256,0.0,0.0,6.4319,0.0,0.0,0.0,0.0,0.0,0.0,0.0,0.0,0.0,0.0,0.0,0.0,0.0,0.0,7.2297,7.2297,7.2297,7.2297,7.2297,7.2297,7.2297,7.2297,7.2297,7.2062,7.2062,7.2297,7.2846,7.3238,7.35,7.431,7.4888,7.5228,7.5228,7.5385,7.5698,7.5698,7.6038,7.6535,7.5934,7.627,7.7156,7.7391,7.752,7.7676,7.9039,7.9405,7.9222,7.9457,7.9405,7.913,7.8829,7.9003,7.9245,7.8949,7.9096,7.9394,7.9394,7.9394,7.9394,7.9394,7.9394,7.9394,7.9394,7.9394,7.9545,8.0097,8.0524,8.0874,8.1251,8.1729,8.1982,8.1754,8.2257,8.271,8.271,8.271,8.2032,8.0173,8.1555,8.271,8.271,8.271,8.0717,7.5797,7.3199,7.1371,7.0355,6.8983,6.8215,6.8215,6.8215,6.8215,6.8215,6.8215,6.8215,6.8215,6.8215,6.8215,6.8186,6.7916,6.7937,3.6227,0.0,0.0,0.0,0.0,0.0,4.9662,5.1152,5.2825,0.0,0.0,0.0,0.0,0.0,0.0,0.0,0.0,0.0,0.0,0.0,0.0,0.0,0.0,0.0,7.2114,7.2167,7.2193,7.2193,7.2271,7.2297,7.2297,7.2297,7.2297,7.2297,7.1775,7.1748,7.2297,7.2898,7.3474,7.4,7.5172,7.5698,7.5698,7.5698,7.5698,7.5698,7.5751,7.609,7.6561,7.609,7.6192,7.6662,7.7261,7.752,7.7705,7.9381,7.9668,7.9274,7.9801,7.9594,7.9132,7.9175,7.9203,7.922,7.9303,7.9352,7.9394,7.9394,7.9394,7.9394,7.9394,7.9394,7.9394,7.9394,7.9394,7.9545,8.0097,8.0398,8.08,8.1654,8.2308,8.271,8.271,8.271,8.271,8.271,8.271,8.1279,7.7335,8.0249,8.271,8.271,8.271,8.0934,7.6585,7.3579,7.1101,6.9102,6.8513,6.8215,6.8215,6.8215,6.8215,6.8215,6.8215,6.8215,6.8215,6.8215,6.8215,6.8215,6.8215,6.8215,3.909,3.9756,4.058,0.0,0.0,0.0,0.0,4.2853,4.6067,0.0,5.2475,0.0,0.0,0.0,0.0,0.0,0.0,0.0,0.0,0.0,0.0,0.0,0.0,0.0,7.0938,7.133,7.1592,7.1592,7.2036,7.2297,7.2297,7.2297,7.2297,7.2297,7.2193,7.2193,7.2297,7.3317,7.3892,7.4,7.5172,7.5698,7.5698,7.5698,7.5698,7.5725,7.6195,7.6482,7.6613,7.6999,7.6924,7.6662,7.7261,7.752,7.7705,7.9381,7.9668,7.9274,7.9801,7.9352,7.8629,7.9126,7.9015,7.8745,7.9225,7.9397,7.9394,7.9394,7.9394,7.9394,7.9394,7.9394,7.9394,7.9394,7.9394,7.9545,8.0097,8.0548,8.1075,8.1678,8.2308,8.271,8.271,8.271,8.271,8.271,8.271,8.2384,8.1505,8.2158,8.271,8.271,8.271,8.2309,8.1367,7.6041,7.3107,7.3939,7.0355,6.8215,6.8215,6.8215,6.8215,6.8215,6.8215,6.8215,6.8215,6.8215,6.8215,6.8215,6.8215,6.8215,4.0554,4.0853,4.1755,4.1755,0.0,0.0,0.0,0.0,4.4395,4.9322,4.9651,0.0,0.0,0.0,0.0,0.0,0.0,0.0,0.0,0.0,0.0,0.0,0.0,0.0,7.0598,7.0834,7.1121,7.1382,7.167,7.1984,7.2271,7.2297,7.2297,7.2297,7.2297,7.2297,7.2297,7.3421,7.3996,7.4,7.5172,7.5698,7.5698,7.5698,7.5698,7.5725,7.6326,7.6587,7.6662,7.7261,7.7313,7.713,7.7682,7.8097,7.849,7.9592,7.9827,7.9642,7.9905,7.9304,7.8485,7.9106,7.8942,7.8619,7.9222,7.9394,7.9394,7.9394,7.9394,7.9394,7.9394,7.9394,7.9394,7.9394,7.9394,7.9469,7.9746,8.0022,8.0398,8.1026,8.1706,8.2258,8.2635,8.271,8.271,8.271,8.271,8.271,8.271,8.271,8.271,8.271,8.271,8.271,8.271,7.8196,7.4886,7.3694,7.0208,6.8215,6.8215,6.8215,6.8215,6.8215,6.8215,6.8215,6.8215,6.8215,6.8215,6.8215,6.8215,6.8215,0.0,0.0,0.0,0.0,0.0,4.2866,0.0,0.0,0.0,4.859,0.0,0.0,0.0,0.0,0.0,0.0,0.0,0.0,0.0,0.0,0.0,0.0,0.0,0.0,0.0,6.9553,6.9945,7.1147,7.0624,7.0781,7.2062,7.214,7.2193,7.2297,7.2297,7.2297,7.2297,7.3421,7.3996,7.4,7.5172,7.5698,7.5698,7.5698,7.5751,7.5907,7.6505,7.6845,7.6953,7.7574,7.781,7.7862,7.8178,7.8675,7.9248,7.9799,8.001,8.001,8.001,7.9231,7.8338,7.8928,7.8842,7.862,7.9222,7.9394,7.9394,7.9394,7.9394,7.9394,7.9394,7.9394,7.9394,7.9394,7.9394,7.9394,7.9394,7.9469,7.9721,8.0323,8.1078,8.1756,8.2283,8.256,8.271,8.271,8.271,8.271,8.271,8.271,8.271,8.271,8.271,8.2335,8.1367,7.886,7.5746,7.2017,6.9524,6.8215,6.8215,6.8215,6.8215,6.8215,6.8215,6.8215,6.8215,6.8215,6.8215,6.8215,6.8215,6.8215,0.0,0.0,0.0,0.0,4.7165,0.0,0.0,0.0,0.0,4.2069,0.0,0.0,0.0,0.0,0.0,0.0,0.0,0.0,0.0,0.0,0.0,0.0,0.0,0.0,0.0,6.5841,6.671,7.0415,6.7848,6.7665,7.1304,7.1513,7.1748,7.2271,7.2297,7.2297,7.2297,7.3421,7.3996,7.4,7.5172,7.5698,7.5698,7.5698,7.5986,7.6508,7.713,7.7679,7.8155,7.8777,7.8986,7.896,7.8492,7.8675,7.9248,7.9799,8.001,8.001,8.001,7.8989,7.7801,7.8318,7.8516,7.8591,7.9219,7.9394,7.9394,7.9394,7.9394,7.9394,7.9394,7.9394,7.9394,7.9394,7.9394,7.9394,7.9394,7.9771,8.0147,8.0223,8.0951,8.1503,8.1226,8.2031,8.271,8.271,8.271,8.271,8.271,8.271,8.271,8.271,8.271,8.0934,7.6613,7.5887,7.455,7.1952,6.9524,6.8215,6.8215,6.8215,6.8215,6.8215,6.8215,6.8215,6.8215,6.8215,6.8215,6.8215,6.8215,6.8215,0.0,0.0,0.0,0.0,0.0,0.0,0.0,0.0,4.2186,0.0,0.0,0.0,0.0,0.0,0.0,0.0,0.0,0.0,0.0,0.0,0.0,0.0,0.0,0.0,0.0,0.0,0.0,0.0,6.5894,6.6495,7.0206,7.1043,7.167,7.2271,7.2297,7.2297,7.2297,7.3421,7.3996,7.4,7.5172,7.5698,7.5698,7.5698,7.6012,7.6613,7.7235,7.781,7.8338,7.896,7.9196,7.9169,7.8934,7.9379,8.0163,8.0036,8.0219,8.0505,8.0505,7.9432,7.8093,7.8365,7.8695,7.9068,7.9319,7.9394,7.9394,7.9394,7.9394,7.9394,7.9394,7.9394,7.9394,7.9394,7.9394,7.9394,7.9394,7.957,7.9746,7.9746,8.0549,8.1176,8.1025,8.1955,8.271,8.271,8.271,8.271,8.271,8.271,8.271,8.271,8.271,8.1879,7.9793,7.4459,7.1596,7.2437,6.9789,6.8215,6.8215,6.8215,6.8215,6.8215,6.8215,6.8215,6.8215,6.8215,6.8215,6.8215,6.8215,6.8215,5.2004,0.0,0.0,0.0,0.0,0.0,0.0,0.0,0.0,0.0,0.0,0.0,0.0,0.0,0.0,0.0,0.0,0.0,0.0,0.0,0.0,0.0,0.0,0.0,0.0,0.0,0.0,0.0,0.0,6.4201,6.8978,7.0154,7.1121,7.201,7.2219,7.2297,7.2297,7.3264,7.3839,7.4022,7.5016,7.5565,7.5698,7.5855,7.6296,7.6871,7.747,7.8021,7.8597,7.9013,7.9196,7.9196,7.9196,7.9901,8.0843,8.0219,8.0505,8.113,8.0947,7.9923,7.8607,7.8544,7.8817,7.9168,7.9344,7.9394,7.9394,7.9394,7.9394,7.9394,7.9394,7.9394,7.9394,7.9394,7.9394,7.9394,7.9394,7.9394,7.9394,7.9394,8.0198,8.0925,8.1125,8.2005,8.271,8.271,8.271,8.271,8.271,8.271,8.271,8.271,8.271,8.271,8.271,7.6243,7.2031,7.1712,6.9477,6.8215,6.8215,6.8215,6.8215,6.8215,6.8215,6.8215,6.8215,6.8215,6.8215,6.8215,6.8215,6.8215,0.0,0.0,0.0,0.0,0.0,0.0,0.0,0.0,4.4514,0.0,0.0,0.0,0.0,0.0,0.0,0.0,0.0,0.0,0.0,0.0,0.0,0.0,0.0,0.0,0.0,0.0,0.0,0.0,0.0,0.0,6.7639,6.8591,6.9662,7.1382,7.201,7.2297,7.2297,7.2846,7.3421,7.4022,7.465,7.5199,7.5698,7.6299,7.6898,7.7496,7.8048,7.8623,7.9169,7.9196,7.9196,7.9196,7.9196,7.9901,8.0843,8.0219,8.0766,8.1679,8.1104,8.0181,7.9193,7.867,7.8515,7.864,7.9218,7.9394,7.9394,7.9394,7.9394,7.9394,7.9394,7.9394,7.9394,7.9394,7.9394,7.9394,7.9394,7.9394,7.9394,7.9394,7.9997,8.0751,8.1454,8.2208,8.271,8.271,8.271,8.271,8.271,8.271,8.271,8.271,8.271,8.271,8.271,8.2416,7.8255,6.8937,6.8266,6.8215,6.8215,6.8215,6.8215,6.8215,6.8215,6.8215,6.8215,6.8215,6.8215,6.8215,6.8215,6.8215,0.0,0.0,6.0222,5.4262,0.0,0.0,0.0,0.0,0.0,0.0,0.0,0.0,0.0,0.0,0.0,0.0,0.0,0.0,0.0,0.0,0.0,0.0,0.0,0.0,0.0,0.0,0.0,0.0,5.6484,0.0,0.0,6.7311,6.9082,7.0807,7.1801,7.2297,7.2297,7.3238,7.3813,7.4022,7.499,7.5516,7.5698,7.6299,7.6924,7.7522,7.8074,7.8649,7.9196,7.9196,7.9196,7.9222,7.959,8.0191,8.0869,8.0661,8.113,8.1659,8.068,8.0412,8.0293,7.9376,7.9093,7.9118,7.9319,7.9394,7.9394,7.9394,7.9394,7.9394,7.9394,7.9394,7.9394,7.9394,7.9394,7.9394,7.9394,7.9394,7.9394,7.9394,7.9896,8.0574,8.1454,8.2208,8.271,8.271,8.271,8.271,8.271,8.271,8.271,8.271,8.271,8.271,8.271,7.6805,7.1712,6.8412,6.8215,6.8215,6.8215,6.8215,6.8215,6.8215,6.8215,6.8215,6.8215,6.8215,6.8215,6.8215,6.8215,6.8215,6.4116,6.4175,0.0,0.0,5.5935,0.0,0.0,0.0,0.0,0.0,0.0,0.0,0.0,0.0,0.0,0.0,0.0,0.0,0.0,0.0,0.0,0.0,0.0,0.0,0.0,0.0,4.9819,5.4158,5.387,0.0,0.0,0.0,6.7645,6.9605,7.1173,7.2088,7.2297,7.3238,7.3787,7.4022,7.4963,7.5538,7.5725,7.6558,7.713,7.7522,7.8283,7.8832,7.9196,7.9196,7.93,7.9511,7.9853,8.0505,8.1235,8.1235,8.1601,8.1924,8.0797,8.0675,8.083,7.973,7.9394,7.9394,7.9394,7.9394,7.9394,7.9394,7.9394,7.9394,7.9394,7.9394,7.9444,7.9645,7.952,7.9444,7.9645,7.952,7.9394,7.9394,7.9821,8.0398,8.1001,8.2007,8.271,8.271,8.271,8.271,8.271,8.271,8.271,8.271,8.271,8.1312,7.7858,7.1792,6.8215,6.8215,6.8215,6.8215,6.8215,6.8215,6.8215,6.8215,6.8215,6.8215,6.8215,6.8215,6.8215,6.8215,6.8215,6.8215]}]]